[[{"header":{"parameterUnit":"m.s-1","parameterCategory":1,"la1":30.6,"la2":29.2853,"lo1":-89.7004,"lo2":-87.6739,"dy":0.0162,"dx":0.0183,"nx":112,"ny":82,"refTime":"2023-04-08T00:00:00:Z","depth":0,"parameterNumber":2,"parameterNumberName":"U-component_of_WINDS"},"data":[0.0,0.0,0.0,0.0,0.0,0.0,0.0,0.0,0.0,0.0,0.0,0.0,0.0,0.0,0.0,0.0,0.0,0.0,0.0,0.0,0.0,0.0,0.0,0.0,0.0,0.0,0.0,0.0,0.0,0.0,0.0,0.0,0.0,0.0,0.0,0.0,0.0,0.0,0.0,0.0,0.0,0.0,0.0,0.0,0.0,0.0,0.0,0.0,0.0,0.0,0.0,0.0,0.0,0.0,0.0,0.0,0.0,0.0,0.0,0.0,0.0,0.0,0.0,0.0,0.0,0.0,0.0,0.0,0.0,0.0,0.0,0.0,0.0,0.0,0.0,0.0,0.0,0.0,0.0,0.0,0.0,0.0,0.0,0.0,0.0,0.0,0.0,0.0,0.0,0.0,3.4824,3.4902,3.4902,3.5098,3.5547,3.5527,3.5527,3.5586,0.0,0.0,0.0,0.0,0.0,0.0,0.0,0.0,0.0,0.0,0.0,0.0,0.0,0.0,0.0,0.0,0.0,0.0,0.0,0.0,0.0,0.0,0.0,0.0,0.0,0.0,0.0,0.0,0.0,0.0,0.0,0.0,0.0,0.0,0.0,0.0,0.0,0.0,0.0,0.0,0.0,0.0,0.0,0.0,0.0,0.0,0.0,0.0,0.0,0.0,0.0,0.0,0.0,0.0,0.0,0.0,0.0,0.0,0.0,0.0,0.0,0.0,0.0,0.0,0.0,0.0,0.0,0.0,0.0,0.0,0.0,0.0,0.0,0.0,0.0,0.0,0.0,0.0,0.0,0.0,0.0,0.0,0.0,0.0,0.0,0.0,0.0,0.0,0.0,0.0,0.0,0.0,0.0,0.0,0.0,0.0,0.0,0.0,0.0,0.0,0.0,0.0,0.0,0.0,3.543,3.5781,3.5786,3.5996,3.648,3.6133,3.6074,3.6499,0.0,0.0,0.0,0.0,0.0,0.0,0.0,0.0,0.0,0.0,0.0,0.0,0.0,0.0,0.0,0.0,0.0,0.0,0.0,0.0,0.0,0.0,0.0,0.0,0.0,0.0,0.0,0.0,0.0,0.0,0.0,0.0,0.0,0.0,0.0,0.0,0.0,0.0,0.0,0.0,0.0,0.0,0.0,0.0,0.0,0.0,0.0,0.0,0.0,0.0,0.0,0.0,0.0,0.0,0.0,0.0,0.0,0.0,0.0,0.0,0.0,0.0,0.0,0.0,0.0,0.0,0.0,0.0,0.0,0.0,0.0,0.0,0.0,0.0,0.0,0.0,0.0,0.0,0.0,0.0,0.0,0.0,0.0,0.0,0.0,0.0,0.0,0.0,0.0,0.0,0.0,0.0,0.0,0.0,0.0,0.0,0.0,0.0,0.0,0.0,0.0,0.0,0.0,3.6289,3.6504,3.6699,3.6719,3.6797,3.6992,3.6836,3.6797,3.6992,3.6641,0.0,0.0,0.0,0.0,0.0,0.0,0.0,0.0,0.0,0.0,0.0,0.0,0.0,0.0,0.0,0.0,0.0,0.0,0.0,0.0,0.0,0.0,0.0,0.0,0.0,0.0,0.0,0.0,0.0,0.0,0.0,0.0,0.0,0.0,0.0,0.0,0.0,0.0,0.0,0.0,0.0,0.0,0.0,0.0,0.0,0.0,0.0,0.0,0.0,0.0,0.0,0.0,0.0,0.0,0.0,0.0,0.0,0.0,0.0,0.0,0.0,0.0,0.0,0.0,0.0,0.0,0.0,0.0,0.0,0.0,0.0,0.0,0.0,0.0,0.0,0.0,0.0,0.0,0.0,0.0,0.0,0.0,0.0,0.0,0.0,0.0,0.0,0.0,0.0,0.0,0.0,0.0,0.0,0.0,0.0,0.0,0.0,0.0,0.0,0.0,0.0,0.0,3.709,3.7305,3.7305,3.7305,3.7344,3.7441,3.7344,3.7344,3.7441,3.7344,0.0,0.0,0.0,0.0,0.0,0.0,0.0,0.0,0.0,0.0,0.0,0.0,0.0,0.0,0.0,0.0,0.0,0.0,0.0,0.0,0.0,0.0,0.0,0.0,0.0,0.0,0.0,0.0,0.0,0.0,0.0,0.0,0.0,0.0,0.0,0.0,0.0,0.0,0.0,0.0,0.0,0.0,0.0,0.0,0.0,0.0,0.0,0.0,0.0,0.0,0.0,0.0,0.0,0.0,0.0,0.0,0.0,0.0,0.0,0.0,0.0,0.0,0.0,0.0,0.0,0.0,0.0,0.0,0.0,0.0,0.0,0.0,0.0,0.0,0.0,0.0,0.0,0.0,0.0,0.0,0.0,0.0,0.0,0.0,0.0,0.0,0.0,0.0,0.0,0.0,0.0,0.0,0.0,0.0,0.0,0.0,0.0,0.0,0.0,0.0,0.0,0.0,3.7285,3.7305,3.7305,3.7305,3.7461,3.7851,3.7519,3.7461,3.7816,3.7519,0.0,0.0,0.0,0.0,0.0,0.0,0.0,0.0,0.0,0.0,0.0,0.0,0.0,0.0,0.0,0.0,0.0,0.0,0.0,0.0,0.0,0.0,0.0,0.0,0.0,0.0,0.0,0.0,0.0,0.0,0.0,0.0,0.0,0.0,0.0,0.0,0.0,0.0,0.0,0.0,0.0,0.0,0.0,0.0,0.0,0.0,0.0,0.0,0.0,0.0,0.0,0.0,0.0,0.0,0.0,0.0,0.0,0.0,0.0,0.0,0.0,0.0,0.0,0.0,0.0,0.0,0.0,0.0,0.0,0.0,0.0,0.0,0.0,0.0,0.0,0.0,0.0,0.0,0.0,0.0,0.0,0.0,0.0,0.0,0.0,0.0,0.0,0.0,0.0,0.0,0.0,0.0,0.0,0.0,0.0,0.0,0.0,0.0,0.0,0.0,0.0,0.0,3.793,3.8086,0.0,3.8086,3.8164,3.832,3.8184,3.8164,3.832,0.0,0.0,0.0,0.0,0.0,0.0,0.0,0.0,0.0,0.0,0.0,0.0,0.0,0.0,0.0,0.0,0.0,0.0,0.0,0.0,0.0,0.0,0.0,0.0,0.0,0.0,0.0,0.0,0.0,0.0,0.0,0.0,0.0,0.0,0.0,0.0,0.0,0.0,0.0,0.0,0.0,0.0,0.0,0.0,0.0,0.0,0.0,0.0,0.0,0.0,0.0,0.0,0.0,0.0,0.0,0.0,0.0,0.0,0.0,0.0,0.0,0.0,0.0,0.0,0.0,0.0,0.0,0.0,0.0,0.0,0.0,0.0,0.0,0.0,0.0,0.0,0.0,0.0,0.0,0.0,0.0,0.0,0.0,0.0,0.0,0.0,0.0,0.0,0.0,0.0,0.0,0.0,0.0,0.0,0.0,0.0,0.0,0.0,0.0,0.0,0.0,0.0,3.8125,3.8398,3.8611,0.0,3.8611,3.8611,3.8611,3.8611,3.8611,3.8611,0.0,0.0,0.0,0.0,0.0,0.0,0.0,0.0,0.0,0.0,0.0,0.0,0.0,0.0,0.0,0.0,0.0,0.0,0.0,0.0,0.0,0.0,0.0,0.0,0.0,0.0,0.0,0.0,0.0,0.0,0.0,0.0,0.0,0.0,0.0,0.0,0.0,0.0,0.0,0.0,0.0,0.0,0.0,0.0,0.0,0.0,0.0,0.0,0.0,0.0,0.0,0.0,0.0,0.0,0.0,0.0,0.0,0.0,0.0,0.0,0.0,0.0,0.0,0.0,0.0,0.0,0.0,0.0,0.0,0.0,0.0,0.0,0.0,0.0,0.0,0.0,0.0,0.0,0.0,0.0,0.0,0.0,0.0,0.0,0.0,0.0,0.0,0.0,0.0,0.0,0.0,0.0,0.0,0.0,0.0,0.0,0.0,0.0,0.0,0.0,0.0,0.0,3.8611,3.8611,3.8611,3.8611,3.8611,3.8611,3.8611,3.8611,3.8611,0.0,0.0,0.0,0.0,0.0,0.0,0.0,0.0,0.0,0.0,0.0,0.0,0.0,0.0,0.0,0.0,0.0,0.0,0.0,0.0,0.0,0.0,0.0,0.0,0.0,0.0,0.0,0.0,0.0,0.0,0.0,0.0,0.0,0.0,0.0,0.0,0.0,0.0,0.0,0.0,0.0,0.0,0.0,0.0,0.0,0.0,0.0,0.0,0.0,0.0,0.0,0.0,0.0,0.0,0.0,0.0,0.0,0.0,0.0,0.0,0.0,0.0,0.0,0.0,0.0,0.0,0.0,0.0,0.0,0.0,0.0,0.0,0.0,0.0,0.0,0.0,0.0,0.0,0.0,0.0,0.0,0.0,0.0,0.0,0.0,0.0,0.0,0.0,0.0,0.0,0.0,0.0,0.0,0.0,0.0,0.0,0.0,0.0,0.0,0.0,0.0,0.0,0.0,3.8611,3.8611,3.8611,3.8611,3.8611,3.8611,3.8611,3.8611,3.8611,3.8611,0.0,0.0,0.0,0.0,0.0,0.0,0.0,0.0,0.0,0.0,0.0,0.0,0.0,0.0,0.0,0.0,0.0,0.0,0.0,0.0,0.0,0.0,0.0,0.0,0.0,0.0,0.0,0.0,0.0,0.0,0.0,0.0,0.0,0.0,0.0,0.0,0.0,0.0,0.0,0.0,0.0,0.0,0.0,0.0,0.0,0.0,0.0,0.0,0.0,0.0,0.0,0.0,0.0,0.0,0.0,0.0,0.0,0.0,0.0,0.0,0.0,0.0,0.0,0.0,0.0,0.0,0.0,0.0,0.0,0.0,0.0,0.0,0.0,0.0,0.0,0.0,0.0,0.0,0.0,0.0,0.0,0.0,0.0,0.0,0.0,0.0,0.0,0.0,0.0,0.0,0.0,0.0,0.0,0.0,0.0,0.0,0.0,0.0,0.0,0.0,0.0,0.0,3.8828,3.8984,3.9101,3.9101,3.9101,3.9101,3.9101,3.9101,3.9101,3.9101,0.0,0.0,0.0,0.0,0.0,0.0,0.0,0.0,0.0,0.0,0.0,0.0,0.0,0.0,0.0,0.0,0.0,0.0,0.0,0.0,0.0,0.0,0.0,0.0,0.0,0.0,0.0,0.0,0.0,0.0,0.0,0.0,0.0,0.0,0.0,0.0,0.0,0.0,0.0,0.0,0.0,0.0,0.0,0.0,0.0,0.0,0.0,0.0,0.0,0.0,0.0,0.0,0.0,0.0,0.0,0.0,0.0,0.0,0.0,0.0,0.0,0.0,0.0,0.0,0.0,0.0,0.0,0.0,0.0,0.0,0.0,0.0,0.0,0.0,0.0,0.0,0.0,0.0,0.0,0.0,0.0,0.0,0.0,0.0,0.0,0.0,0.0,0.0,0.0,0.0,0.0,0.0,0.0,0.0,0.0,0.0,0.0,0.0,0.0,0.0,0.0,0.0,3.9258,3.9629,3.9902,3.9902,3.9902,3.9902,3.9902,3.9902,3.9902,3.9902,0.0,0.0,0.0,0.0,0.0,0.0,0.0,0.0,0.0,0.0,0.0,0.0,0.0,0.0,0.0,0.0,0.0,0.0,0.0,0.0,0.0,0.0,0.0,0.0,0.0,0.0,0.0,0.0,0.0,0.0,0.0,0.0,0.0,0.0,0.0,0.0,0.0,0.0,0.0,0.0,0.0,0.0,0.0,0.0,0.0,0.0,0.0,0.0,0.0,0.0,0.0,0.0,0.0,0.0,0.0,0.0,0.0,0.0,0.0,0.0,3.7109,3.6797,0.0,0.0,0.0,0.0,0.0,0.0,0.0,0.0,0.0,0.0,0.0,0.0,0.0,0.0,0.0,0.0,0.0,0.0,0.0,0.0,0.0,0.0,0.0,0.0,0.0,0.0,0.0,0.0,0.0,0.0,0.0,0.0,0.0,0.0,0.0,0.0,0.0,0.0,0.0,0.0,3.9746,3.9824,3.9902,3.9902,3.9902,3.9902,3.9902,3.9902,3.9902,3.9902,3.9902,0.0,0.0,0.0,0.0,0.0,0.0,0.0,0.0,0.0,0.0,0.0,0.0,0.0,0.0,0.0,0.0,0.0,0.0,0.0,0.0,0.0,0.0,0.0,0.0,0.0,0.0,0.0,0.0,0.0,0.0,0.0,0.0,0.0,0.0,0.0,0.0,0.0,0.0,0.0,0.0,0.0,0.0,0.0,0.0,0.0,0.0,0.0,0.0,0.0,0.0,0.0,0.0,0.0,0.0,0.0,0.0,0.0,0.0,0.0,3.7676,3.7402,0.0,0.0,0.0,0.0,0.0,0.0,0.0,0.0,0.0,0.0,0.0,0.0,0.0,0.0,0.0,0.0,0.0,0.0,0.0,0.0,0.0,0.0,0.0,0.0,0.0,0.0,0.0,0.0,0.0,0.0,0.0,0.0,0.0,0.0,0.0,0.0,0.0,0.0,0.0,0.0,4.0508,4.0859,4.1113,4.1113,4.1113,4.1113,4.1113,4.1113,4.1113,4.1113,4.1113,0.0,0.0,0.0,0.0,0.0,0.0,0.0,0.0,0.0,0.0,0.0,0.0,0.0,0.0,0.0,0.0,0.0,0.0,0.0,0.0,0.0,0.0,0.0,0.0,0.0,0.0,0.0,0.0,0.0,0.0,0.0,0.0,0.0,0.0,0.0,0.0,0.0,0.0,0.0,0.0,0.0,0.0,0.0,0.0,0.0,0.0,0.0,0.0,0.0,0.0,0.0,0.0,0.0,3.8516,3.8767,3.8845,3.8845,3.8845,3.8806,3.8066,3.7871,3.8008,3.7656,0.0,0.0,0.0,0.0,0.0,0.0,0.0,0.0,0.0,0.0,0.0,0.0,0.0,0.0,0.0,0.0,0.0,0.0,0.0,0.0,0.0,0.0,0.0,0.0,4.0176,4.0254,0.0,0.0,0.0,0.0,0.0,0.0,0.0,0.0,0.0,0.0,0.0,0.0,4.1387,4.1992,4.2382,4.2382,4.2382,4.2382,4.2382,4.2382,4.2382,4.2382,4.2382,4.1539,0.0,0.0,0.0,0.0,0.0,0.0,0.0,0.0,0.0,0.0,0.0,0.0,0.0,0.0,0.0,0.0,0.0,0.0,0.0,0.0,0.0,0.0,0.0,0.0,0.0,0.0,0.0,0.0,0.0,0.0,0.0,0.0,3.5508,3.6343,0.0,0.0,0.0,0.0,0.0,0.0,0.0,0.0,0.0,0.0,0.0,0.0,0.0,3.8435,3.8435,3.8457,3.8672,3.9043,3.9082,3.9336,3.9726,3.9726,3.9726,3.9726,3.9609,0.0,3.8476,3.8474,0.0,0.0,0.0,0.0,0.0,0.0,0.0,0.0,0.0,0.0,0.0,0.0,0.0,0.0,0.0,0.0,0.0,0.0,0.0,0.0,0.0,0.0,4.0527,4.0918,4.1289,4.1641,0.0,4.0937,4.0,4.0371,4.043,0.0,0.0,0.0,0.0,0.0,0.0,0.0,4.2226,4.2323,4.2382,4.2382,4.2382,4.2382,4.2382,4.2382,4.2382,4.2382,4.2382,4.2261,4.1961,4.2203,0.0,0.0,0.0,0.0,0.0,0.0,0.0,0.0,0.0,0.0,0.0,0.0,0.0,0.0,0.0,0.0,0.0,0.0,0.0,0.0,0.0,0.0,0.0,0.0,0.0,0.0,0.0,0.0,0.0,3.6191,3.6601,3.6973,3.7031,3.709,0.0,0.0,0.0,0.0,0.0,0.0,0.0,0.0,0.0,3.8652,3.9082,3.9316,3.9316,3.9316,3.9414,3.959,3.959,3.9707,3.9902,3.9902,4.0019,4.0254,4.0254,4.0176,4.0038,3.9512,3.9316,3.9336,0.0,0.0,0.0,0.0,3.9902,3.9902,3.9902,3.9902,3.9941,4.0176,0.0,0.0,0.0,0.0,0.0,0.0,0.0,0.0,0.0,0.0,4.1601,4.1836,4.2012,4.2207,4.2343,4.2031,4.166,0.0,4.1543,4.1679,4.209,0.0,0.0,0.0,0.0,4.3144,4.3144,4.3574,4.3845,4.3845,4.3845,4.3845,4.3845,4.3845,4.3845,4.3845,4.3672,4.2919,4.1597,4.2375,4.2147,0.0,0.0,0.0,0.0,0.0,0.0,0.0,0.0,0.0,0.0,0.0,0.0,0.0,0.0,0.0,0.0,0.0,0.0,0.0,0.0,0.0,0.0,0.0,0.0,0.0,0.0,0.0,0.0,3.7266,3.75,3.7617,3.7617,3.7617,0.0,0.0,0.0,0.0,0.0,0.0,3.8906,3.9219,3.9375,3.9375,3.9726,3.9941,4.0059,4.0059,4.0176,4.0391,4.0391,4.043,4.0547,4.0547,4.0723,4.1016,4.1016,4.1191,4.1426,4.0566,4.0215,4.0234,4.0351,4.0391,4.0391,4.0508,4.0547,4.0547,4.0547,4.0547,4.0605,4.0879,4.1016,4.1035,4.1406,0.0,0.0,0.0,0.0,4.2598,4.2598,4.2754,4.2889,4.2889,4.2967,4.3045,4.3045,4.334,4.3418,0.0,4.2851,4.2928,4.3026,0.0,0.0,0.0,0.0,4.4043,4.4043,4.4609,4.4977,4.4977,4.4977,4.4977,4.4977,4.4977,4.4977,4.4977,4.4726,4.3753,4.2038,4.3013,4.2751,4.1013,0.0,0.0,0.0,0.0,0.0,0.0,0.0,0.0,0.0,0.0,0.0,0.0,0.0,0.0,0.0,0.0,0.0,0.0,0.0,0.0,0.0,0.0,0.0,0.0,0.0,0.0,0.0,0.0,0.0,3.8457,3.8552,0.0,0.0,0.0,0.0,3.9141,3.957,3.9824,3.9824,3.9844,3.9863,3.9863,3.9883,4.0098,4.0488,4.0488,4.0898,4.1699,4.1699,4.1914,4.2265,4.2265,4.2265,4.2284,4.2284,4.2304,4.2305,4.1465,4.1152,4.1191,4.1543,4.1699,4.1758,4.2109,4.2265,4.2265,4.2265,4.2265,4.2265,4.2284,4.2284,4.2304,4.2323,4.2343,0.0,0.0,4.2715,4.3047,4.3047,4.3672,4.4297,4.4297,4.4609,4.486,4.486,4.4902,4.4668,0.0,4.4004,4.4433,4.4782,0.0,4.486,4.486,4.4899,4.4918,4.4918,4.4957,4.4977,4.4977,4.4977,4.4977,4.4977,4.4977,4.4977,4.4977,4.4957,4.4915,4.481,4.4856,4.4837,4.4752,4.2129,0.0,0.0,0.0,0.0,0.0,0.0,0.0,0.0,0.0,0.0,0.0,0.0,0.0,0.0,0.0,0.0,0.0,0.0,0.0,0.0,0.0,0.0,0.0,0.0,0.0,0.0,0.0,0.0,3.8926,3.8984,0.0,3.9394,3.957,3.9648,3.9648,3.9805,4.0019,4.0273,4.0566,4.084,4.1113,4.1387,4.1601,4.1699,4.1699,4.1855,4.2207,4.2207,4.2422,4.2851,4.2851,4.3164,4.3691,4.3691,4.3848,4.404,4.3769,4.2988,4.1992,4.2148,4.2207,4.2187,4.2323,4.2598,4.2851,4.2851,4.3027,4.3301,4.3594,4.3887,4.406,4.406,4.406,4.406,4.406,4.4177,4.4336,4.4336,4.457,4.4805,4.4805,4.4922,4.4977,4.4977,4.5254,4.5351,4.5039,4.4883,4.4844,4.5,4.4977,4.4489,4.2931,4.2895,4.252,4.0887,4.2327,4.3477,4.3477,4.4889,4.5859,4.5859,4.439,4.3477,4.3477,4.1708,4.0667,4.0667,4.0439,4.1058,4.2673,4.0088,4.0774,0.0,0.0,0.0,0.0,0.0,0.0,0.0,0.0,0.0,0.0,0.0,0.0,0.0,0.0,0.0,0.0,0.0,0.0,0.0,0.0,0.0,0.0,0.0,0.0,0.0,3.8962,3.9121,3.9394,3.9434,3.9609,4.0059,4.0234,4.0391,4.0527,4.0664,4.0879,4.1113,4.1445,4.1719,4.2012,4.2422,4.2715,4.2851,4.3008,4.3123,4.326,4.326,4.3457,4.373,4.373,4.4062,4.4609,4.4609,4.4766,4.4977,4.4977,4.4294,4.326,4.326,4.326,4.326,4.326,4.3496,4.373,4.373,4.3926,4.4199,4.4512,4.4805,4.4977,4.4977,4.4977,4.4977,4.4977,4.5137,4.5254,4.5254,4.5351,4.5449,4.5449,4.5449,4.5449,4.5449,4.5039,4.4884,4.5749,4.5664,4.5449,4.5449,4.5449,4.4914,4.3298,4.3303,4.2879,4.1204,4.2655,4.386,4.386,4.5329,4.5983,4.5109,4.4321,4.313,4.1484,4.0342,3.9396,3.8585,3.8264,3.931,4.1776,4.0198,4.0084,4.1517,0.0,0.0,0.0,0.0,0.0,0.0,0.0,0.0,0.0,0.0,0.0,0.0,0.0,0.0,0.0,0.0,0.0,0.0,0.0,0.0,0.0,0.0,0.0,3.9297,3.9629,3.9922,3.9941,3.9941,4.0117,4.0508,4.0957,4.1426,4.1797,4.2207,4.2421,4.2421,4.244,4.246,4.246,4.291,4.334,4.373,4.4199,4.4629,4.4977,4.4977,4.4996,4.4996,4.4996,4.5016,4.5016,4.5016,4.5016,4.5016,4.5016,4.5016,4.5058,4.4996,4.4977,4.4977,4.4977,4.4996,4.4996,4.5058,4.5016,4.5016,4.5016,4.5016,4.5016,4.4931,4.4973,4.5016,4.4931,4.5328,4.5746,4.5746,4.5996,4.6308,4.6308,4.6308,4.6265,4.6221,4.4296,4.3345,4.5739,4.6197,4.624,4.6308,4.6308,4.6265,4.6221,4.6158,0.0,4.5983,4.6026,4.607,4.609,4.6133,4.5216,4.2836,4.4757,4.403,3.9175,4.0988,4.1214,3.8856,3.8765,3.9857,4.2219,4.2398,3.9898,3.4722,0.0,0.0,0.0,0.0,0.0,0.0,0.0,0.0,0.0,0.0,0.0,0.0,0.0,0.0,0.0,0.0,0.0,0.0,0.0,0.0,0.0,4.0625,4.0605,3.9805,4.0078,4.0469,4.0781,4.1094,4.1445,4.1816,4.1972,4.2129,4.2246,4.2656,4.3027,4.334,4.3672,4.4004,4.4255,4.4433,4.4551,4.4626,4.4785,4.4902,4.4977,4.4977,4.5195,4.5508,4.5508,4.5664,4.5957,4.5957,4.5957,4.5957,4.5957,4.5957,4.5898,4.5273,4.4977,4.4977,4.4977,4.5234,4.5547,4.584,4.5957,4.5957,4.5957,4.5957,4.5633,4.3808,4.4529,4.559,4.3764,4.4667,4.6133,4.6133,4.6211,4.6308,4.6308,4.6308,4.5884,4.4339,4.3433,4.3235,4.4223,4.4414,4.4834,4.608,4.6308,4.57,4.3904,4.3638,0.0,3.8794,3.9903,4.1093,4.1416,4.3054,4.3856,4.3163,4.2087,3.999,3.6529,3.5292,3.442,3.3732,3.3685,3.4013,3.4686,3.8154,3.8396,0.0,0.0,0.0,0.0,0.0,0.0,0.0,0.0,0.0,0.0,0.0,0.0,0.0,0.0,0.0,0.0,0.0,0.0,0.0,0.0,0.0,0.0,4.1523,4.1523,4.1016,4.1172,4.1406,4.166,4.1914,4.2305,4.291,4.2969,4.3125,4.3455,4.375,4.4004,4.4238,4.4512,4.4766,4.4977,4.5195,4.5293,4.5293,4.5469,4.5566,4.5566,4.5566,4.5703,4.5937,4.5937,4.6074,4.6308,4.6308,4.6308,4.6308,4.6308,4.6406,4.6504,0.0,0.0,0.0,0.0,4.5035,4.4416,4.4662,4.4738,4.4738,4.4738,4.5436,4.5832,4.3353,4.3704,4.445,4.1955,4.318,4.498,4.3911,4.4424,4.4935,4.3866,4.3641,4.3289,4.2027,4.0957,4.0608,4.185,4.128,0.0,4.3262,4.5401,4.5624,4.2021,4.2384,4.1639,3.7724,3.8467,3.9475,3.9673,4.1003,4.1465,4.0402,3.9985,0.0,0.0,0.0,3.3146,3.2134,3.3064,0.0,0.0,0.0,3.6542,3.3964,0.0,0.0,0.0,3.5866,3.6304,0.0,0.0,0.0,0.0,0.0,0.0,0.0,0.0,0.0,0.0,0.0,0.0,0.0,0.0,0.0,0.0,4.2538,4.2557,4.2655,4.2674,4.2635,4.2538,4.2616,4.3027,4.3769,4.3848,4.418,4.4918,4.5035,4.5098,4.5098,4.5094,0.0,0.0,0.0,4.5785,4.5785,4.6113,4.6328,4.6367,4.6367,4.6406,4.6445,4.6445,4.6314,4.603,4.603,4.5854,4.5571,4.5571,4.5782,4.6089,4.6034,4.603,4.5986,4.5659,4.4186,4.2299,4.2299,0.0,0.0,4.2299,4.3767,4.511,4.2631,4.2278,4.2225,3.9726,4.1072,4.2735,4.0487,4.156,4.2689,4.0441,3.9879,3.9848,3.9599,3.7818,3.6896,3.9192,3.7864,3.7083,3.9256,4.358,4.5175,4.0581,4.1838,4.2348,3.9832,3.9503,3.9519,3.9568,0.0,0.0,3.6451,3.8293,3.758,3.2873,3.461,3.4851,3.2692,3.4659,3.4803,3.2643,3.4707,3.4578,3.2158,3.2158,3.2024,3.19,3.6189,3.6975,0.0,0.0,0.0,0.0,0.0,0.0,0.0,0.0,0.0,0.0,0.0,0.0,0.0,0.0,0.0,4.334,4.3457,4.3711,4.4414,4.4489,4.4258,4.3535,4.4082,4.4548,4.4704,4.4723,4.4801,4.4977,4.5351,4.5547,4.5547,4.5879,4.6055,4.6055,4.6133,4.6191,4.6191,4.6269,4.6465,4.6772,4.6772,0.0,4.7324,4.7324,4.6209,4.4188,4.4188,4.3029,4.1123,4.1123,4.1203,4.144,4.3431,4.4188,4.396,4.1908,4.0828,4.041,4.041,4.041,4.041,4.041,4.0752,4.0642,3.8166,3.8871,0.0,3.752,3.8654,4.0534,4.0019,4.0253,4.0534,4.0019,3.9879,3.9396,3.7634,3.6829,3.6773,3.7612,3.7606,3.7555,3.8048,3.9946,4.1048,4.0066,4.03,3.9738,3.7249,3.6915,3.707,3.744,3.747,3.7278,3.6795,3.7181,3.6078,3.2802,3.3019,3.3068,3.2643,3.3068,3.3068,3.2594,3.3068,3.304,3.2514,3.2514,3.2487,3.2455,3.2912,3.2866,0.0,0.0,0.0,0.0,0.0,0.0,0.0,0.0,0.0,0.0,0.0,4.2812,4.3027,0.0,4.3613,4.4258,4.4355,4.4512,4.4918,4.5215,4.5098,4.4453,4.4704,4.5117,4.5332,4.5351,4.543,4.5644,4.5859,4.5996,4.5996,4.6191,4.6406,4.6601,4.6621,4.6719,4.6933,4.6933,4.7051,4.7246,4.7246,4.6716,4.5648,4.5648,4.4243,4.1792,4.1792,4.1094,3.9942,4.0123,4.0189,4.0205,4.0434,4.104,4.1652,4.0347,3.9126,3.804,3.804,3.804,3.804,3.804,3.8891,3.9456,3.6963,3.718,3.7733,3.5275,3.6658,3.8501,3.7204,3.7959,3.8701,3.7395,3.7115,3.6765,3.5714,3.5443,3.5499,3.5755,3.591,3.5973,3.5973,3.6612,3.7115,3.7115,3.8228,3.813,3.5564,3.5267,3.5323,3.5578,3.5607,3.5607,3.5607,3.5607,3.5001,3.3541,3.3293,3.3263,3.3263,3.3116,3.2973,3.2973,3.2973,3.2906,3.2808,3.2808,3.2741,3.2581,3.23,3.2152,0.0,0.0,0.0,0.0,0.0,0.0,0.0,4.2518,4.2635,4.2635,4.3086,4.3555,4.3906,4.4277,4.4668,4.5078,4.5156,4.5176,4.5211,4.5586,4.5664,4.5312,4.5231,4.541,4.5762,4.5844,4.5976,4.6387,4.6426,4.6465,4.6543,4.6543,4.6699,4.7051,4.6542,4.6472,4.6819,4.6348,4.6159,4.6235,4.6235,4.5196,4.3302,4.3302,4.1936,3.9546,3.9021,3.883,3.8862,3.9179,3.929,3.9128,3.7371,3.7587,3.883,3.8751,3.749,3.5842,3.5842,3.5842,3.5842,3.5842,3.7166,3.8448,3.6457,3.5968,3.573,3.3823,3.5101,3.6572,3.4507,3.5674,3.6911,3.4822,3.4322,3.4322,3.4322,3.4322,3.4322,3.4322,3.4362,3.4402,3.4402,3.4456,3.4456,3.4336,3.6111,3.6656,3.4566,3.4322,3.4322,3.4322,3.4322,3.4322,3.4322,3.4322,3.4322,3.4322,3.4095,3.3975,3.3975,3.3721,3.3587,3.3587,3.3587,3.3467,3.324,3.324,3.312,3.2942,3.2942,3.2822,4.2094,4.1582,4.2128,4.2226,4.2285,4.2265,0.0,4.3008,4.3555,4.3555,4.4219,4.4824,4.4863,4.4879,4.5098,4.5527,4.5605,4.5742,4.6113,4.6191,4.6211,4.6172,4.6152,4.6191,4.623,4.623,4.6406,4.6772,4.6811,4.7031,4.7422,4.7441,4.7461,4.75,4.5282,4.4097,4.4133,4.1885,4.0936,4.1285,4.1285,4.1496,4.181,4.181,4.0575,3.8274,3.595,3.4911,3.4911,3.5003,3.5003,3.4966,3.4752,3.4775,3.4884,3.4661,3.454,3.4517,3.4517,3.4517,3.4517,3.4517,3.4721,3.486,3.4619,3.4531,3.452,3.4213,3.442,3.4614,3.432,3.4488,3.4668,3.4374,3.4322,3.4322,3.4322,3.4322,3.4322,3.4322,3.4536,3.471,3.471,3.4923,3.4923,3.4402,3.4566,3.4617,3.4322,3.4322,3.4322,3.4322,3.4322,3.4322,3.4322,3.4322,3.4322,3.4322,3.4295,3.4269,3.4269,3.4242,3.4215,3.4215,3.4215,3.4202,3.4175,3.4175,3.4148,3.4122,3.4122,3.3561,4.2664,4.2148,4.248,4.2734,4.2988,4.3242,4.3516,4.4043,4.4473,4.4473,4.4766,4.5098,4.5351,4.541,4.5547,4.5976,4.6035,4.6113,4.6289,4.6504,4.666,4.666,4.6894,4.6953,4.6699,4.666,4.6855,4.7266,4.5901,4.5125,4.5311,4.3904,4.3211,4.3488,4.256,4.2218,4.2458,4.1559,4.1209,4.1357,4.1357,4.0739,3.9623,3.9623,3.8264,3.587,3.4771,3.4322,3.4322,3.4322,3.4322,3.4322,3.4322,3.4429,3.4536,3.4255,3.4215,3.4322,3.4322,3.4322,3.4322,3.4322,3.4322,3.4322,3.4322,3.4322,3.4322,3.4322,3.4442,3.4576,3.4576,3.471,3.483,3.483,3.483,3.483,3.483,3.483,3.4883,3.5044,3.5177,3.5324,3.5498,3.5631,3.5618,3.5378,3.5044,3.483,3.483,3.483,3.483,3.483,3.483,3.483,3.483,3.483,3.483,3.483,3.467,3.4576,3.4576,3.4416,3.4322,3.4322,3.4322,3.4322,3.4322,3.4322,3.4322,3.4322,3.4322,3.4055,4.3315,4.3006,4.3223,4.3535,4.3848,4.416,4.4492,4.4902,4.5195,4.5195,4.5293,4.5469,4.5781,4.584,4.5957,4.625,4.6406,4.6484,4.6484,4.6196,4.6268,4.702,4.6112,4.5664,4.6171,4.6101,4.6216,4.6681,4.4359,4.2994,4.3117,4.1417,4.0585,4.0896,4.0433,4.0316,4.0687,4.0149,3.9875,3.9875,3.9875,3.8983,3.7244,3.7331,3.6313,3.4563,3.4563,3.4603,3.4683,3.4683,3.4723,3.4803,3.4803,3.4937,3.515,3.4883,3.4696,3.4563,3.4563,3.4563,3.4563,3.4563,3.4563,3.4576,3.4656,3.4683,3.4696,3.4776,3.4963,3.5176,3.5176,3.5284,3.5431,3.5431,3.5431,3.5431,3.5431,3.5431,3.5498,3.5712,3.5752,3.5819,3.6032,3.6072,3.6072,3.6072,3.5712,3.5431,3.5431,3.5431,3.5431,3.5431,3.5431,3.5431,3.5431,3.5431,3.5431,3.5431,3.5297,3.5176,3.5176,3.4843,3.4683,3.4683,3.4603,3.4563,3.4563,3.4563,3.4563,3.4563,3.4563,3.4603,4.4219,4.4629,4.4899,4.4918,4.4938,4.4938,4.4957,4.5351,4.5707,4.5707,4.5976,4.6269,4.6289,4.6289,4.6289,4.6308,4.6641,4.687,4.687,4.5077,4.4727,4.7269,4.315,4.1276,4.4178,4.4056,4.4002,4.4446,4.2338,4.1158,4.1634,4.1834,4.1932,4.1949,3.9594,3.8268,3.8283,3.5805,3.4514,3.4514,3.4514,3.4676,3.4919,3.5201,3.5269,3.5164,3.5164,3.5324,3.5538,3.5538,3.5765,3.6073,3.6073,3.6019,3.6086,3.6073,3.5658,3.5164,3.5164,3.5164,3.5164,3.5164,3.5164,3.5217,3.5498,3.5538,3.5645,3.5939,3.6019,3.6086,3.6086,3.61,3.6046,3.6046,3.6046,3.6046,3.6046,3.6046,3.61,3.6059,3.6059,3.6113,3.6072,3.6072,3.6072,3.6072,3.6059,3.6046,3.6046,3.6046,3.6046,3.6046,3.6046,3.6046,3.6046,3.6046,3.6046,3.6046,3.6086,3.6086,3.6086,3.5752,3.5538,3.5538,3.5311,3.5164,3.5164,3.5164,3.5164,3.5164,3.5164,3.5324,4.4766,4.4922,4.4977,4.4977,4.5234,4.5449,4.5449,4.5781,4.6094,4.6094,4.6211,4.6387,4.666,4.6719,4.6816,4.7109,4.7266,4.6742,4.5016,4.4416,4.3909,4.3222,4.1916,4.1497,4.2671,4.2243,4.2022,4.2525,4.0396,3.9181,3.9355,3.7785,3.6896,3.6896,3.6257,3.592,3.592,3.5259,3.5004,3.5191,3.5391,3.5538,3.5685,3.5738,3.5778,3.5778,3.5778,3.5832,3.5925,3.5925,3.5979,3.6072,3.6072,3.6072,3.6072,3.6072,3.5952,3.5778,3.5778,3.5778,3.5778,3.5778,3.5778,3.5792,3.5899,3.5925,3.5939,3.6046,3.6072,3.6072,3.6072,3.6072,3.6072,3.6072,3.6072,3.6072,3.6072,3.6072,3.6126,3.6326,3.6366,3.6433,3.662,3.6647,3.6647,3.6647,3.6313,3.6072,3.6072,3.6072,3.6072,3.6072,3.6072,3.6072,3.6072,3.6072,3.6072,3.6072,3.6072,3.6072,3.6072,3.5979,3.5925,3.5925,3.5832,3.5778,3.5778,3.5778,3.5778,3.5778,3.5778,3.5832,4.5254,4.5371,4.5445,4.5445,4.5683,4.5898,4.5898,4.6113,4.6308,4.6308,4.6426,4.6601,4.6831,4.7051,4.7246,4.7539,4.7877,4.7124,4.4458,4.3833,4.3049,4.1502,3.9935,3.9442,4.0542,3.948,3.9176,4.0275,3.8283,3.6981,3.6981,3.548,3.4683,3.479,3.4977,3.5124,3.5283,3.5418,3.5605,3.5792,3.5979,3.6072,3.6072,3.6072,3.6072,3.6072,3.6072,3.6126,3.6233,3.6233,3.6286,3.638,3.638,3.638,3.638,3.638,3.638,3.6353,3.6139,3.6072,3.6072,3.6072,3.6072,3.614,3.6193,3.6233,3.6246,3.6353,3.638,3.638,3.638,3.638,3.638,3.638,3.638,3.638,3.638,3.638,3.6433,3.662,3.6647,3.6727,3.6845,3.6885,3.6885,3.6885,3.662,3.638,3.638,3.638,3.638,3.638,3.638,3.638,3.638,3.638,3.638,3.638,3.638,3.638,3.638,3.6286,3.6233,3.6233,3.6126,3.6072,3.6072,3.6072,3.6072,3.6072,3.6072,3.6126,4.5703,4.5996,4.6308,4.6308,4.6308,4.6308,4.6308,4.6308,4.6308,4.6328,4.6641,4.6889,4.6948,4.7235,4.7437,4.7456,4.8065,4.7577,4.4832,4.3001,4.1899,4.1668,3.7331,3.5298,3.7802,3.6088,3.5744,3.7897,3.6051,3.4855,3.4855,3.5084,3.5364,3.5645,3.5658,3.5792,3.6126,3.6086,3.6099,3.6099,3.6112,3.6112,3.6112,3.6112,3.6112,3.6112,3.6112,3.6273,3.654,3.654,3.6687,3.6885,3.6885,3.6885,3.6885,3.6885,3.6885,3.6874,3.6326,3.618,3.6112,3.6112,3.6112,3.6166,3.6433,3.654,3.658,3.6805,3.6885,3.6885,3.6885,3.6885,3.6885,3.6885,3.6885,3.6912,3.6912,3.6925,3.6981,3.6981,3.6981,3.6981,3.6981,3.6981,3.6981,3.6981,3.6981,3.6912,3.6885,3.6885,3.6885,3.6885,3.6885,3.6885,3.6885,3.6885,3.6885,3.6885,3.6885,3.6885,3.6885,3.6687,3.654,3.654,3.6259,3.6112,3.6112,3.6112,3.6112,3.6112,3.6139,3.6286,4.6152,4.623,4.6308,4.6308,4.6308,4.6308,4.6308,4.6308,4.6387,4.6699,4.6811,4.7084,4.7773,4.6409,4.5298,4.5593,4.4448,4.2538,3.9908,3.9361,3.859,3.6831,3.5458,3.4983,3.5864,3.56,3.5629,3.622,3.5721,3.5404,3.5404,3.5685,3.5885,3.5952,3.5952,3.5992,3.6072,3.6286,3.6393,3.6393,3.662,3.6727,3.6727,3.6727,3.6727,3.6727,3.6727,3.6754,3.6779,3.6779,3.6861,3.6885,3.6885,3.6885,3.6885,3.6885,3.7088,3.7235,3.7088,3.6901,3.6727,3.6727,3.6727,3.6727,3.6794,3.6779,3.6834,3.6901,3.6885,3.6885,3.6885,3.6885,3.6885,3.6885,3.7059,3.7275,3.7275,3.7448,3.7595,3.7595,3.7595,3.7595,3.7595,3.7595,3.7595,3.7595,3.7595,3.7392,3.6952,3.6885,3.6885,3.6885,3.6885,3.6885,3.6885,3.6885,3.6885,3.6885,3.6885,3.6885,3.6885,3.6805,3.6779,3.6779,3.6754,3.6727,3.6727,3.6727,3.6727,3.6727,3.6941,3.7088,4.6308,4.6308,4.6308,4.6308,4.6308,4.6348,4.6543,4.6582,4.6699,4.7129,4.7363,4.7315,4.6787,4.573,4.4631,4.3792,4.2764,4.114,3.8475,3.8421,3.7745,3.5289,3.507,3.5204,3.5364,3.5645,3.5819,3.5819,3.5819,3.5819,3.5819,3.5979,3.6126,3.6259,3.6259,3.6326,3.6433,3.662,3.6687,3.6687,3.6805,3.6885,3.6885,3.7032,3.7128,3.7128,3.7261,3.7286,3.7286,3.7286,3.7286,3.7286,3.7286,3.7286,3.7286,3.7286,3.7422,3.7569,3.7569,3.7448,3.7286,3.7286,3.7286,3.7286,3.7286,3.7286,3.7286,3.7286,3.7286,3.7286,3.7286,3.7286,3.7286,3.7286,3.7448,3.7569,3.7569,3.7702,3.7809,3.7809,3.7809,3.7809,3.7809,3.7809,3.7809,3.7809,3.7809,3.7702,3.7326,3.7286,3.7286,3.7286,3.7286,3.7286,3.7286,3.7286,3.7286,3.7286,3.7286,3.7286,3.7286,3.7286,3.7286,3.7286,3.7286,3.7286,3.7286,3.7286,3.7286,3.7286,3.7489,3.7569,4.6308,4.6308,4.6308,4.6308,4.6348,4.6484,4.6792,4.6928,4.7148,4.7578,4.7716,4.7167,4.5238,4.4684,4.3849,4.185,4.1611,4.0844,3.8434,3.8457,3.7861,3.5508,3.5471,3.5645,3.5685,3.5952,3.6126,3.6126,3.6166,3.6166,3.6126,3.6166,3.6299,3.654,3.658,3.6687,3.6952,3.6952,3.6952,3.6992,3.6992,3.6992,3.7048,3.7315,3.7448,3.7448,3.7702,3.7809,3.7809,3.7809,3.7809,3.7809,3.7809,3.7809,3.7809,3.7809,3.7849,3.7889,3.7889,3.7889,3.7929,3.7849,3.7809,3.7809,3.7809,3.7809,3.7809,3.7809,3.7809,3.7809,3.7809,3.7809,3.7809,3.7809,3.7849,3.7889,3.7889,3.7859,3.7929,3.7929,3.7929,3.7929,3.7929,3.7929,3.7929,3.7929,3.7929,3.7929,3.7929,3.7849,3.7809,3.7809,3.7809,3.7809,3.7809,3.7809,3.7809,3.7809,3.7809,3.7809,3.7809,3.7809,3.7809,3.7809,3.7809,3.7809,3.7809,3.7809,3.7809,3.7809,3.7849,3.7889,4.6308,4.6308,4.6308,4.6308,4.6562,4.6792,4.687,4.7207,4.7598,4.8008,4.6659,4.5397,4.5388,4.216,3.9313,3.8922,3.7374,3.6021,3.5516,3.5723,3.5799,3.5578,3.5551,3.5725,3.5979,3.6259,3.6433,3.6433,3.6647,3.6687,3.6433,3.6647,3.6794,3.6805,3.6805,3.7008,3.7301,3.7301,3.7422,3.7662,3.7662,3.7662,3.7662,3.7702,3.7742,3.7742,3.7782,3.7809,3.7809,3.7809,3.7809,3.7809,3.7809,3.7809,3.7809,3.7809,3.7969,3.8183,3.8183,3.8357,3.8464,3.7939,3.7809,3.7809,3.7809,3.7809,3.7809,3.7809,3.7809,3.7809,3.7809,3.7809,3.7809,3.7809,3.7996,3.8183,3.8183,3.8397,3.8513,3.8513,3.8513,3.8513,3.8513,3.8513,3.8513,3.8513,3.8513,3.8513,3.8513,3.8086,3.7809,3.7809,3.7809,3.7809,3.7809,3.7809,3.7809,3.7809,3.7809,3.7809,3.7809,3.7809,3.7809,3.7809,3.7809,3.7809,3.7809,3.7809,3.7809,3.7809,3.8076,3.8183,4.6308,4.6308,4.6348,4.6582,4.6777,4.7006,4.75,4.7754,4.7722,4.6933,4.591,4.4486,4.2311,3.998,3.8001,3.6819,3.5705,3.5044,3.5191,3.5338,3.5525,3.5819,3.5992,3.6139,3.6286,3.658,3.6727,3.6727,3.7008,3.7048,3.6699,3.7008,3.7155,3.7155,3.7301,3.7448,3.7595,3.7595,3.7676,3.7809,3.7809,3.7809,3.7809,3.7969,3.8036,3.8093,3.821,3.829,3.829,3.829,3.829,3.829,3.829,3.829,3.829,3.829,3.8357,3.8504,3.8504,3.8611,3.8633,3.8339,3.829,3.829,3.829,3.829,3.829,3.829,3.829,3.829,3.829,3.829,3.829,3.829,3.8397,3.8504,3.8504,3.8611,3.8718,3.8718,3.8718,3.8718,3.8718,3.8718,3.8718,3.8718,3.8718,3.8718,3.8718,3.8464,3.829,3.829,3.829,3.829,3.829,3.829,3.829,3.829,3.829,3.829,3.829,3.829,3.829,3.829,3.829,3.829,3.829,3.829,3.829,3.829,3.8437,3.8504,4.6308,4.6308,4.6406,4.6772,4.6992,4.7266,4.8027,4.8359,4.7915,4.5936,4.5166,4.3602,3.9384,3.8185,3.7277,3.5547,3.5284,3.5391,3.5685,3.5725,3.5832,3.6126,3.6366,3.654,3.658,3.6794,3.6912,3.7008,3.7301,3.7382,3.7128,3.7342,3.7489,3.7489,3.7702,3.7849,3.7929,3.7929,3.7956,3.7996,3.7996,3.7996,3.7979,3.825,3.837,3.8428,3.8611,3.8718,3.8718,3.8718,3.8718,3.8718,3.8718,3.8718,3.8718,3.8718,3.8718,3.8718,3.8718,3.8718,3.8718,3.8718,3.8718,3.8718,3.8718,3.8718,3.8718,3.8718,3.8718,3.8718,3.8718,3.8718,3.8718,3.8718,3.8718,3.8718,3.8718,3.8718,3.8718,3.8718,3.8718,3.8718,3.8718,3.8718,3.8718,3.8718,3.8718,3.8718,3.8718,3.8718,3.8718,3.8718,3.8718,3.8718,3.8718,3.8718,3.8718,3.8718,3.8718,3.8718,3.8718,3.8718,3.8718,3.8718,3.8718,3.8718,3.8718,3.8718,3.8718,3.8718,3.8718,3.8718,4.6308,4.6308,4.6406,4.6772,4.7226,4.7637,4.8105,4.8828,4.8646,4.6045,4.4163,4.2057,3.9119,3.6904,3.5508,3.5538,3.5538,3.5698,3.5992,3.6032,3.6139,3.6433,3.65,3.662,3.6861,3.6885,3.7048,3.7315,3.7595,3.7782,3.7742,3.7742,3.7782,3.7782,3.7809,3.7956,3.8281,3.8281,3.837,3.8593,3.8593,3.8593,3.8593,3.8651,3.8691,3.8691,3.866,3.8718,3.8718,3.8718,3.8718,3.8718,3.8718,3.8718,3.8718,3.8718,3.8718,3.8718,3.8718,3.8718,3.8718,3.8718,3.8718,3.8718,3.8718,3.8718,3.8718,3.8718,3.8718,3.8718,3.8718,3.8718,3.8718,3.8718,3.8718,3.8718,3.8718,3.8718,3.8718,3.8718,3.8718,3.8718,3.8718,3.8718,3.8718,3.8718,3.8718,3.8718,3.8718,3.8718,3.8718,3.8718,3.8718,3.8718,3.8718,3.8718,3.8718,3.8718,3.8718,3.8718,3.8718,3.8718,3.8718,3.8718,3.8718,3.8718,3.8718,3.8718,3.8718,3.8718,3.8718,3.8718,4.6308,4.6484,4.6777,4.7207,4.7637,4.7638,4.6531,4.67,4.5927,4.1948,4.0648,3.95,3.7022,3.5832,3.5284,3.5578,3.5578,3.5792,3.6273,3.6326,3.6433,3.6727,3.6754,3.6874,3.7168,3.7195,3.7422,3.7919,3.8067,3.8183,3.8357,3.8183,3.8076,3.8076,3.825,3.8437,3.8544,3.8544,3.8611,3.8718,3.8718,3.8718,3.8718,3.8718,3.8718,3.8718,3.8718,3.8718,3.8718,3.8718,3.8718,3.8718,3.8718,3.8718,3.8718,3.8718,3.8718,3.8718,3.8718,3.8718,3.8718,3.8718,3.8718,3.8718,3.8718,3.8718,3.8718,3.8718,3.8718,3.8718,3.8718,3.8718,3.8718,3.8718,3.8718,3.8718,3.8718,3.8718,3.8718,3.8718,3.8718,3.8718,3.8718,3.8718,3.8718,3.8718,3.8718,3.8718,3.8718,3.8718,3.8718,3.8718,3.8718,3.8718,3.8718,3.8718,3.8718,3.8718,3.8718,3.8718,3.8718,3.8718,3.8718,3.8718,3.8718,3.8718,3.8718,3.8718,3.8718,3.8718,3.8718,3.8718,4.6308,4.6601,4.6987,4.748,4.7891,4.7634,4.5622,4.5394,4.4275,3.9316,3.86,3.8089,3.5663,3.5271,3.5418,3.5712,3.5832,3.6059,3.658,3.6592,3.6754,3.6992,3.7032,3.7195,3.7489,3.7595,3.7823,3.8281,3.8388,3.8504,3.866,3.8504,3.8397,3.8397,3.8611,3.8718,3.8718,3.8718,3.8718,3.8718,3.8718,3.8718,3.8718,3.8718,3.8718,3.8718,3.8718,3.8718,3.8718,3.8718,3.8718,3.8718,3.8718,3.8718,3.8718,3.8718,3.8718,3.8718,3.8718,3.8718,3.8718,3.8718,3.8718,3.8718,3.8718,3.8718,3.8718,3.8718,3.8718,3.8718,3.8718,3.8718,3.8718,3.8718,3.8718,3.8718,3.8718,3.8718,3.8718,3.8718,3.8718,3.8718,3.8718,3.8718,3.8718,3.8718,3.8718,3.8718,3.8718,3.8718,3.8718,3.8718,3.8718,3.8718,3.8718,3.8718,3.8718,3.8718,3.8718,3.8718,3.8718,3.8718,3.8718,3.8718,3.8718,3.8718,3.8718,3.8718,3.8718,3.8718,3.8718,3.8718,4.6308,4.6601,4.6987,4.748,4.7891,4.773,4.5911,4.5826,4.4675,3.9602,3.8979,3.8456,3.5704,3.5431,3.5725,3.6019,3.6313,3.6607,3.6845,3.6885,3.6992,3.7342,3.7382,3.7489,3.7782,3.8076,3.8321,3.8321,3.8544,3.8718,3.8718,3.8718,3.8718,3.8718,3.8718,3.8718,3.8718,3.8718,3.8718,3.8718,3.8718,3.8718,3.8718,3.8718,3.8718,3.8718,3.8718,3.8718,3.8718,3.8718,3.8718,3.8718,3.8718,3.8718,3.8718,3.8718,3.8718,3.8718,3.8718,3.8718,3.8718,3.8718,3.8718,3.8718,3.8718,3.8718,3.8718,3.8718,3.8718,3.8718,3.8718,3.8718,3.8718,3.8718,3.8718,3.8718,3.8718,3.8718,3.8718,3.8718,3.8718,3.8718,3.8718,3.8718,3.8718,3.8718,3.8718,3.8718,3.8718,3.8718,3.8718,3.8718,3.8718,3.8718,3.8718,3.8718,3.8718,3.8718,3.8718,3.8718,3.8718,3.8718,3.8718,3.8718,3.8718,3.8718,3.8718,3.8718,3.8718,3.8718,3.8718,3.8718,4.666,4.7051,4.748,4.791,4.6998,4.5465,4.3297,4.1752,3.9818,3.6659,3.6256,3.6216,3.5349,3.5431,3.5725,3.6019,3.6313,3.6607,3.6845,3.6885,3.6992,3.7342,3.7742,3.8067,3.8116,3.8397,3.8584,3.8584,3.8651,3.8718,3.8718,3.8718,3.8718,3.8718,3.8718,3.8718,3.8718,3.8718,3.8718,3.8718,3.8718,3.8718,3.8718,3.8718,3.8718,3.8718,3.8718,3.8718,3.8718,3.8718,3.8718,3.8718,3.8718,3.8718,3.8718,3.8718,3.8718,3.8718,3.8718,3.8718,3.8718,3.8718,3.8718,3.8718,3.8718,3.8718,3.8718,3.8718,3.8718,3.8718,3.8718,3.8718,3.8718,3.8718,3.8718,3.8718,3.8718,3.8718,3.8718,3.8718,3.8718,3.8718,3.8718,3.8718,3.8718,3.8718,3.8718,3.8718,3.8718,3.8718,3.8718,3.8718,3.8718,3.8718,3.8718,3.8718,3.8718,3.8718,3.8718,3.8718,3.8718,3.8718,3.8718,3.8718,3.8718,3.8718,3.8718,3.8718,3.8718,3.8718,3.8718,3.8718,4.6772,4.6536,4.6216,4.6679,4.5244,4.3094,4.0851,3.9278,3.7717,3.5417,3.507,3.5231,3.5338,3.5605,3.5899,3.6193,3.6473,3.6727,3.6901,3.6992,3.7261,3.7676,3.8143,3.8437,3.8437,3.8611,3.8718,3.8718,3.8718,3.8718,3.8718,3.8718,3.8718,3.8718,3.8718,3.8718,3.8718,3.8718,3.8718,3.8718,3.8718,3.8718,3.8718,3.8718,3.8718,3.8718,3.8718,3.8718,0.0,3.8718,3.8718,3.8718,3.8718,3.8718,3.8718,3.8718,3.8718,3.8718,3.8718,3.8718,3.8718,3.8718,3.8718,3.8718,3.8718,3.8718,3.8718,3.8718,3.8718,3.8718,3.8718,3.8718,3.8718,3.8718,3.8718,3.8718,3.8718,3.8718,3.8718,3.8718,3.8718,3.8718,3.8718,3.8718,3.8718,3.8718,3.8718,3.8718,3.8718,3.8718,3.8718,3.8718,3.8718,3.8718,3.8718,3.8718,3.8718,3.8718,3.8718,3.8718,3.8718,3.8718,3.8718,3.8718,3.8718,3.8718,3.8718,3.8718,3.8718,3.8718,3.8718,3.8718,0.0,4.5348,4.381,4.4335,4.2867,4.077,3.8661,3.8247,0.0,3.565,3.5217,3.5311,3.5525,3.5885,3.6193,3.6473,3.6754,3.6885,3.6885,3.7195,3.7635,3.824,3.8544,3.8718,3.8718,3.8718,3.8718,3.8718,3.8718,3.8718,3.8718,3.8718,3.8718,3.8718,3.8718,3.8718,3.8718,3.8718,3.8718,3.8718,3.8718,3.8718,3.8718,3.8718,3.8718,3.8718,3.8718,3.8718,3.8718,3.8718,3.8718,3.8718,3.8718,3.8718,3.8718,3.8718,3.8718,3.8718,3.8718,3.8718,3.8718,3.8718,3.8718,3.8718,3.8718,3.8718,3.8718,3.8718,3.8718,3.8718,3.8718,3.8718,3.8718,3.8718,3.8718,3.8718,3.8718,3.8718,3.8718,3.8718,3.8718,3.8718,3.8718,3.8718,3.8718,3.8718,3.8718,3.8718,3.8718,3.8718,3.8718,3.8718,3.8718,3.8718,3.8718,3.8718,3.8718,3.8718,3.8718,3.8718,3.8718,3.8718,3.8718,3.8718,3.8718,3.8718,3.8718,3.8718,3.8718,3.8718,3.8718,3.8718,4.7305,0.0,4.3882,4.4678,4.1692,3.8527,0.0,3.69,3.5612,3.5295,3.5378,3.5551,3.5565,3.6059,3.6433,3.65,3.6754,3.6885,3.6885,3.7382,3.7849,3.8281,3.8544,3.8718,3.8718,3.8718,3.8718,3.8718,3.8718,3.8718,3.8718,3.8718,3.8718,3.8718,3.8718,3.8718,3.8718,3.8718,3.8718,3.8718,3.8718,3.8718,3.8718,3.8718,3.8718,3.8718,3.8718,3.8718,3.8718,3.8718,3.8718,3.8718,3.8718,3.8718,3.8718,3.8718,3.8718,3.8718,3.8718,3.8718,3.8718,3.8718,3.8718,3.8718,3.8718,3.8718,3.8718,3.8718,3.8718,3.8718,3.8718,3.8718,3.8718,3.8718,3.8718,3.8718,3.8718,3.8718,3.8718,3.8718,3.8718,3.8718,3.8718,3.8718,3.8718,3.8718,3.8718,3.8718,3.8718,3.8718,3.8718,3.8718,3.8718,3.8718,3.8718,3.8718,3.8718,3.8718,3.8718,3.8718,3.8718,3.8718,3.8718,3.8718,3.8718,3.8718,3.8718,3.8718,3.8718,3.8718,3.8718,3.8718,4.5672,4.4076,4.2422,4.3058,3.9647,3.6203,3.6374,3.5665,3.5004,3.5164,3.5431,3.5672,3.5805,3.6206,3.654,3.6687,3.6834,3.6992,3.7246,3.7742,3.8143,3.8437,3.8611,3.8718,3.8718,3.8718,3.8718,3.8718,3.8718,3.8718,3.8718,3.8718,3.8718,3.8718,3.8718,3.8718,3.8718,3.8718,3.8718,3.8718,3.8718,3.8718,3.8718,3.8718,3.8718,3.8718,3.8718,3.8718,3.8718,3.8718,3.8718,3.8718,3.8718,3.8718,3.8718,3.8718,3.8718,3.8718,3.8718,3.8718,3.8718,3.8718,3.8718,3.8718,3.8718,3.8718,3.8718,3.8718,3.8718,3.8718,3.8718,3.8718,3.8718,3.8718,3.8718,3.8718,3.8718,3.8718,3.8718,3.8718,3.8718,3.8718,3.8718,3.8718,3.8718,3.8718,3.8718,3.8718,3.8718,3.8718,3.8718,3.8718,3.8718,3.8718,3.8718,3.8718,3.8718,3.8718,3.8718,3.8718,3.8718,3.8718,3.8718,3.8718,3.8718,3.8718,3.8718,3.8718,3.8718,3.8718,3.8718,3.8718,4.363,4.1868,4.0091,4.0561,3.7436,3.4336,3.4376,3.4803,3.5204,3.5257,3.5498,3.5792,3.6086,3.638,3.6647,3.6845,3.6925,3.7195,3.7809,3.8103,3.8428,3.8691,3.8718,3.8718,3.8718,3.8718,3.8718,3.8718,3.8718,3.8718,3.8718,3.8718,3.8718,3.8718,3.8718,3.8718,3.8718,3.8718,3.8718,3.8718,3.8718,3.8718,3.8718,3.8718,3.8718,3.8718,3.8718,3.8718,3.8718,3.8718,3.8718,3.8718,3.8718,3.8718,3.8718,3.8718,3.8718,3.8718,3.8718,3.8718,3.8718,3.8718,3.8718,3.8718,3.8718,3.8718,3.8718,3.8718,3.8718,3.8718,3.8718,3.8718,3.8718,3.8718,3.8718,3.8718,3.8718,3.8718,3.8718,3.8718,3.8718,3.8718,3.8718,3.8718,3.8718,3.8718,3.8718,3.8718,3.8718,3.8718,3.8718,3.8718,3.8718,3.8718,3.8718,3.8718,3.8718,3.8718,3.8718,3.8718,3.8718,3.8718,3.8718,3.8718,3.8718,3.8718,3.8718,3.8718,3.8718,3.8718,3.8718,3.8718,4.3702,4.0829,3.787,3.817,3.6233,3.4389,3.4643,3.495,3.5271,3.5511,3.5805,3.6099,3.6393,3.6687,3.6845,3.6885,3.7155,3.7529,3.8116,3.8281,3.8428,3.8691,3.8718,3.8718,3.8718,3.8718,3.8718,3.8718,3.8718,3.8718,3.8718,3.8718,3.8718,3.8718,3.8718,3.8718,3.8718,3.8718,3.8718,3.8718,3.8718,3.8718,3.8718,3.8718,3.8718,3.8718,3.8718,3.8718,3.8718,3.8718,3.8718,3.8718,3.8718,3.8718,3.8718,3.8718,3.8718,3.8718,3.8718,3.8718,3.8718,3.8718,3.8718,3.8718,3.8718,3.8718,3.8718,3.8718,3.8718,3.8718,3.8718,3.8718,3.8718,3.8718,3.8718,3.8718,3.8718,3.8718,3.8718,3.8718,3.8718,3.8718,3.8718,3.8718,3.8718,3.8718,3.8718,3.8718,3.8718,3.8718,3.8718,3.8718,3.8718,3.8718,3.8718,3.8718,3.8718,3.8718,3.8718,3.8718,3.8718,3.8718,3.8718,3.8718,3.8718,3.8718,3.8718,3.8718,3.8718,3.8718,3.8718,3.8718,4.1893,3.8775,3.5555,3.5815,3.5058,3.4402,3.4696,3.499,3.5284,3.5511,3.5872,3.6166,3.6473,3.6699,3.6981,3.7155,3.7422,3.7782,3.824,3.8397,3.8584,3.866,3.8718,3.8718,3.8718,3.8718,3.8718,3.8718,3.8718,3.8718,3.8718,3.8718,3.8718,3.8718,3.8718,3.8718,3.8718,3.8718,3.8718,3.8718,3.8718,3.8718,3.8718,3.8718,3.8718,3.8718,3.8718,3.8718,3.8718,3.8718,3.8718,3.8718,3.8718,3.8718,3.8718,3.8718,3.8718,3.8718,3.8718,3.8718,3.8718,3.8718,3.8718,3.8718,3.8718,3.8718,3.8718,3.8718,3.8718,3.8718,3.8718,3.8718,3.8718,3.8718,3.8718,3.8718,3.8718,3.8718,3.8718,3.8718,3.8718,3.8718,3.8718,3.8718,3.8718,3.8718,3.8718,3.8718,3.8718,3.8718,3.8718,3.8718,3.8718,3.8718,3.8718,3.8718,3.8718,3.8718,3.8718,3.8718,3.8718,3.8718,3.8718,3.8718,3.8718,3.8718,3.8718,3.8718,3.8718,3.8718,3.8718,3.8718,3.9498,3.6805,3.3961,3.4242,3.4376,3.4496,3.4803,3.5084,3.5378,3.5672,3.5965,3.6259,3.654,3.6834,3.7155,3.7529,3.7782,3.8036,3.833,3.8584,3.8718,3.8718,3.8718,3.8718,3.8718,3.8718,3.8718,3.8718,3.8718,3.8718,3.8718,3.8718,3.8718,3.8718,3.8718,3.8718,3.8718,3.8718,3.8718,3.8718,3.8718,3.8718,3.8718,3.8718,3.8718,3.8718,3.8718,3.8718,3.8718,3.8718,3.8718,3.8718,3.8718,3.8718,3.8718,3.8718,3.8718,3.8718,3.8718,3.8718,3.8718,3.8718,3.8718,3.8718,3.8718,3.8718,3.8718,3.8718,3.8718,3.8718,3.8718,3.8718,3.8718,3.8718,3.8718,3.8718,3.8718,3.8718,3.8718,3.8718,3.8718,3.8718,3.8718,3.8718,3.8718,3.8718,3.8718,3.8718,3.8718,3.8718,3.8718,3.8718,3.8718,3.8718,3.8718,3.8718,3.8718,3.8718,3.8718,3.8718,3.8718,3.8718,3.8718,3.8718,3.8718,3.8718,3.8718,3.8718,3.8718,3.8718,3.8718,3.8718,3.6795,3.5401,3.3961,3.4242,3.4523,3.4855,3.5097,3.5391,3.5685,3.5979,3.6273,3.658,3.6805,3.7155,3.7585,3.8116,3.8281,3.8388,3.8651,3.866,3.8718,3.8718,3.8718,3.8718,3.8718,3.8718,3.8718,3.8718,3.8718,3.8718,3.8718,3.8718,3.8718,3.8718,3.8718,3.8718,3.8718,3.8718,3.8718,3.8718,3.8718,3.8718,3.8718,3.8718,3.8718,3.8718,3.8718,3.8718,3.8718,3.8718,3.8718,3.8718,3.8718,3.8718,3.8718,3.8718,3.8718,3.8718,3.8718,3.8718,3.8718,3.8718,3.8718,3.8718,3.8718,3.8718,3.8718,3.8718,3.8718,3.8718,3.8718,3.8718,3.8718,3.8718,3.8718,3.8718,3.8718,3.8718,3.8718,3.8718,3.8718,3.8718,3.8718,3.8718,3.8718,3.8718,3.8718,3.8718,3.8718,3.8718,3.8718,3.8718,3.8718,3.8718,3.8718,3.8718,3.8718,3.8718,3.8718,3.8718,3.8718,3.8718,3.8718,3.8718,3.8718,3.8718,3.8718,3.8718,3.8718,3.8718,3.8718,3.8718,3.7119,3.5755,3.4229,3.4523,3.495,3.5284,3.5204,3.5418,3.5712,3.6006,3.6299,3.6647,3.7128,3.7301,3.7625,3.8214,3.8321,3.837,3.8691,3.8718,3.8718,3.8718,3.8718,3.8718,3.8718,3.8718,3.8718,3.8718,3.8718,3.8718,3.8718,3.8718,3.8718,3.8718,3.8718,3.8718,3.8718,3.8718,3.8718,3.8718,3.8718,3.8718,3.8718,3.8718,3.8718,3.8718,3.8718,3.8718,3.8718,3.8718,3.8718,3.8718,3.8718,3.8718,3.8718,3.8718,3.8718,3.8718,3.8718,3.8718,3.8718,3.8718,3.8718,3.8718,3.8718,3.8718,3.8718,3.8718,3.8718,3.8718,3.8718,3.8718,3.8718,3.8718,3.8718,3.8718,3.8718,3.8718,3.8718,3.8718,3.8718,3.8718,3.8718,3.8718,3.8718,3.8718,3.8718,3.8718,3.8718,3.8718,3.8718,3.8718,3.8718,3.8718,3.8718,3.8718,3.8718,3.8718,3.8718,3.8718,3.8718,3.8718,3.8718,3.8718,3.8718,3.8718,3.8718,3.8718,3.8718,3.8718,3.8718,3.8718,3.6298,3.5429,3.4389,3.4748,3.5204,3.5525,3.5378,3.5631,3.5965,3.6166,3.6513,3.6941,3.7422,3.7595,3.7879,3.833,3.8397,3.8477,3.8691,3.8718,3.8718,3.8718,3.8718,3.8718,3.8718,3.8718,3.8718,3.8718,3.8718,3.8718,3.8718,3.8718,3.8718,3.8718,3.8718,3.8718,3.8718,3.8718,3.8718,3.8718,3.8718,3.8718,3.8718,3.8718,3.8718,3.8718,3.8718,3.8718,3.8718,3.8718,3.8718,3.8718,3.8718,3.8718,3.8718,3.8718,3.8718,3.8718,3.8718,3.8718,3.8718,3.8718,3.8718,3.8718,3.8718,3.8718,3.8718,3.8718,3.8718,3.8718,3.8718,3.8718,3.8718,3.8718,3.8718,3.8718,3.8718,3.8718,3.8718,3.8718,3.8718,3.8718,3.8718,3.8718,3.8718,3.8718,3.8718,3.8718,3.8718,3.8718,3.8718,3.8718,3.8718,3.8718,3.8718,3.8718,3.8718,3.8718,3.8718,3.8718,3.8718,3.8718,3.8718,3.8718,3.8718,3.8718,3.8718,3.8718,3.8718,3.8718,3.8718,3.8718,3.3721,3.4108,3.4389,3.4748,3.5204,3.5578,3.5578,3.6086,3.65,3.65,3.6981,3.7462,3.7782,3.8076,3.837,3.8691,3.8718,3.8718,3.8718,3.8718,3.8718,3.8718,3.8718,3.8718,3.8718,3.8718,3.8718,3.8718,3.8718,3.8718,3.8718,3.8718,3.8718,3.8718,3.8718,3.8718,3.8718,3.8718,3.8718,3.8718,3.8718,3.8718,3.8718,3.8718,3.8718,3.8718,3.8718,3.8718,3.8718,3.8718,3.8718,3.8718,3.8718,3.8718,3.8718,3.8718,3.8718,3.8718,3.8718,3.8718,3.8718,3.8718,3.8718,3.8718,3.8718,3.8718,3.8718,3.8718,3.8718,3.8718,3.8718,3.8718,3.8718,3.8718,3.8718,3.8718,3.8718,3.8718,3.8718,3.8718,3.8718,3.8718,3.8718,3.8718,3.8718,3.8718,3.8718,3.8718,3.8718,3.8718,3.8718,3.8718,3.8718,3.8718,3.8718,3.8718,3.8718,3.8718,3.8718,3.8718,3.8718,3.8718,3.8718,3.8718,3.8718,3.8718,3.8718,3.8718,3.8718,3.8718,3.8718,3.8718,3.4082,3.4402,3.471,3.499,3.5511,3.5939,3.5939,3.6233,3.658,3.6754,3.7128,3.7462,3.7782,3.8076,3.837,3.8691,3.8718,3.8718,3.8718,3.8718,3.8718,3.8718,3.8718,3.8718,3.8718,3.8718,3.8718,3.8718,3.8718,3.8718,3.8718,3.8718,3.8718,3.8718,3.8718,3.8718,3.8718,3.8718,3.8718,3.8718,3.8718,3.8718,3.8718,3.8718,3.8718,3.8718,3.8718,3.8718,3.8718,3.8718,3.8718,3.8718,3.8718,3.8718,3.8718,3.8718,3.8718,3.8718,3.8718,3.8718,3.8718,3.8718,3.8718,3.8718,3.8718,3.8718,3.8718,3.8718,3.8718,3.8718,3.8718,3.8718,3.8718,3.8718,3.8718,3.8718,3.8718,3.8718,3.8718,3.8718,3.8718,3.8718,3.8718,3.8718,3.8718,3.8718,3.8718,3.8718,3.8718,3.8718,3.8718,3.8718,3.8718,3.8718,3.8718,3.8718,3.8718,3.8718,3.8718,3.8718,3.8718,3.8718,3.8718,3.8718,3.8718,3.8718,3.8718,3.8718,3.8718,3.8718,3.8718,3.8718,3.4242,3.4536,3.4909,3.5271,3.5725,3.6139,3.6366,3.654,3.6727,3.6845,3.7261,3.7595,3.7782,3.8143,3.8504,3.8691,3.8718,3.8718,3.8718,3.8718,3.8718,3.8718,3.8718,3.8718,3.8718,3.8718,3.8718,3.8718,3.8718,3.8718,3.8718,3.8718,3.8718,3.8718,3.8718,3.8718,3.8718,3.8718,3.8718,3.8718,3.8718,3.8007,3.6817,3.8111,3.8718,3.8718,3.8718,3.8718,3.8718,3.8718,3.8718,3.8718,3.8718,3.7936,3.6804,3.6886,3.6065,3.5196,3.6568,3.7089,3.7089,3.7089,3.7046,3.6982,3.6911,3.6848,3.7037,3.8369,3.8718,3.8718,3.8718,3.8718,3.8718,3.8718,3.8718,3.8718,3.8718,3.8718,3.8718,3.8718,3.8718,3.8718,3.8718,3.8718,3.8718,3.8718,3.8718,3.8718,3.8718,3.8718,3.8718,3.8718,3.8718,3.8718,3.8718,3.8718,3.8718,3.8718,3.8718,3.8718,3.8718,3.8718,3.8718,3.8718,3.8718,3.8718,3.8718,3.8718,3.8718,3.8718,3.8718,3.8718,3.4282,3.4576,3.4937,3.5498,3.5872,3.6259,3.6794,3.6885,3.6885,3.6925,3.7408,3.7809,3.7849,3.833,3.8718,3.8718,3.8718,3.8718,3.8718,3.8718,3.8718,3.8718,3.8718,3.8718,3.8718,3.8718,3.8718,3.8718,3.8718,3.8718,3.8718,3.8718,3.8718,3.8718,3.8718,3.8718,3.8718,3.8718,3.853,3.824,3.824,3.6546,3.3571,3.7096,3.8718,3.866,3.8079,3.8007,3.824,3.7949,3.7846,3.7846,3.7846,3.607,3.3535,3.3719,3.194,2.9873,3.3034,3.4146,3.4146,3.4146,3.4067,3.3918,3.3811,3.3626,3.4088,3.7043,3.7846,3.782,3.782,3.782,3.782,3.782,3.8298,3.8718,3.8718,3.8718,3.8718,3.8718,3.8718,3.8718,3.8718,3.8718,3.8718,3.8718,3.8718,3.8718,3.8718,3.8718,3.8718,3.8718,3.8718,3.8718,3.8718,3.8718,3.8718,3.8718,3.8718,3.8718,3.8718,3.8718,3.8718,3.8718,3.8718,3.8718,3.8718,3.8718,3.8718,3.8718,3.8718,3.8718,3.4589,3.4883,3.5191,3.5538,3.6019,3.65,3.6805,3.6885,3.6952,3.7235,3.7555,3.7889,3.8116,3.8477,3.8718,3.8718,3.8718,3.8718,3.8718,3.8718,3.8718,3.8718,3.8718,3.8718,3.8718,3.8718,3.8718,3.8718,3.8718,3.8718,3.8718,3.8718,3.8718,3.8718,3.8718,3.8718,3.8718,3.8718,3.7458,3.4932,3.4932,3.3277,3.0374,3.6092,3.8718,3.8427,3.3406,3.263,3.4768,3.2276,3.1322,3.1375,3.1375,3.1063,3.0539,3.0591,3.0138,2.9643,3.0421,3.0684,3.0684,3.0684,3.0653,3.0661,3.0622,3.0466,3.0518,3.1234,3.1295,3.1214,3.1214,3.1214,3.1214,3.1214,3.5085,3.8718,3.8718,3.8718,3.8718,3.8718,3.8718,3.8718,3.8718,3.8718,3.8718,3.8718,3.8718,3.8718,3.8718,3.8718,3.8718,3.8718,3.8718,3.8718,3.8718,3.8718,3.8718,3.8718,3.8718,3.8718,3.8718,3.8718,3.8718,3.8718,3.8718,3.8718,3.8718,3.8718,3.8718,3.8718,3.8718,3.8718,3.4775,3.5084,3.5511,3.5939,3.638,3.6754,3.6845,3.6992,3.7235,3.7529,3.7702,3.7889,3.8223,3.8504,3.8718,3.8718,3.8718,3.8718,3.8718,3.8718,3.8718,3.8718,3.8718,3.8718,3.8718,3.8718,3.8718,3.8718,3.8718,3.8718,3.8718,3.8718,3.8718,3.8718,3.7225,3.6383,3.6383,3.4897,3.3277,3.1664,3.1664,3.0789,2.9307,3.263,3.4123,3.3994,3.066,3.02,3.1613,2.9986,2.9351,2.9492,2.9492,2.8592,2.7366,2.7397,2.6459,2.5374,2.7051,2.7634,2.7634,2.7634,2.756,2.7547,2.7486,2.7366,2.7554,2.9069,2.9401,2.928,2.928,2.9259,2.9178,2.9178,3.1734,3.4123,3.4123,3.5319,3.6383,3.6383,3.7658,3.8718,3.8718,3.8718,3.8718,3.8718,3.8718,3.8718,3.8718,3.8718,3.8718,3.8718,3.8718,3.8079,3.6546,3.782,3.7387,3.4346,3.5541,3.5741,3.4182,3.4123,3.5612,3.866,3.8718,3.8718,3.8718,3.8718,3.8718,3.8718,3.8718,3.7878,3.4883,3.5338,3.5899,3.638,3.6727,3.6885,3.6885,3.7155,3.7462,3.7742,3.7849,3.7996,3.829,3.8544,3.8718,3.8718,3.8718,3.8718,3.8718,3.8718,3.8718,3.8718,3.8718,3.8718,3.8718,3.8718,3.8718,3.8718,3.8718,3.8441,3.7878,3.7878,3.7587,3.7096,3.4475,3.3089,3.3089,3.0472,2.895,2.8345,2.7819,2.7571,2.7571,2.7571,2.8177,2.9118,2.8037,2.7973,2.8549,2.7985,2.7876,2.8014,2.8014,2.6449,2.4167,2.4275,2.2596,2.0755,2.3614,2.4661,2.4661,2.4661,2.4555,2.4449,2.4316,2.4186,2.4665,2.728,2.7924,2.7813,2.7794,2.7702,2.7619,2.759,2.7571,2.7888,2.895,3.1251,3.3089,3.3089,3.5248,3.7037,3.7037,3.7037,3.7037,3.7037,3.7037,3.7037,3.7037,3.7037,3.7037,3.7037,3.7037,3.5962,3.3336,3.5541,3.4826,2.9534,3.1664,3.1889,2.9307,2.9178,3.1664,3.6946,3.7037,3.7354,3.7878,3.7878,3.7878,3.7878,3.7878,3.6125,3.5378,3.5939,3.6393,3.6473,3.6727,3.6885,3.6885,3.7155,3.7462,3.7742,3.8036,3.829,3.8611,3.8691,3.8718,3.8718,3.8718,3.8718,3.8718,3.8718,3.8718,3.8718,3.8718,3.8718,3.8718,3.8718,3.8718,3.8718,3.8718,3.7458,3.4697,3.451,3.3277,3.0541,3.0078,2.9831,2.9831,2.9405,2.7819,2.5017,2.2288,2.0986,2.0986,2.0986,2.4013,2.8891,2.3512,2.2679,2.5017,2.2397,2.1446,2.1535,2.1535,2.137,2.1104,2.1125,2.0816,2.0569,2.1026,2.116,2.116,2.116,2.1146,2.1146,2.1139,2.1034,2.0971,2.141,2.1427,2.1316,2.1186,2.1128,2.1139,2.1008,2.0986,2.2462,2.7988,2.9534,2.9831,2.9831,3.0176,3.0503,3.0503,3.0503,3.0503,3.0503,3.0503,3.0503,3.0503,3.0503,3.0503,3.0503,3.0503,3.0305,2.989,3.0245,3.0088,2.9247,2.9593,2.9663,2.9237,2.9178,2.9604,3.0434,3.0503,3.1793,3.451,3.451,3.451,3.451,3.451,3.2854,3.5725,3.6179,3.654,3.6672,3.6834,3.6981,3.7155,3.7422,3.7702,3.7996,3.829,3.8544,3.8691,3.8718,3.8718,3.8718,3.8718,3.8718,3.8718,3.8718,3.8718,3.8718,3.8718,3.8718,3.8718,3.8718,3.7949,3.6125,3.6033,3.4639,3.1439,3.1251,3.0601,2.9247,2.7461,2.6506,2.6506,2.4786,2.317,2.1744,2.038,1.9725,1.9725,1.9752,2.1354,2.3868,2.1114,2.0751,2.2085,2.0748,2.0315,2.0388,2.0388,2.0422,2.0476,2.0476,2.0476,2.0476,2.0476,2.0476,2.0476,2.0476,2.0476,2.0476,2.0476,2.0442,2.0388,2.0388,2.0349,2.0187,2.0051,1.9942,1.9902,1.9759,1.9725,2.044,2.3299,2.5266,2.7044,2.8821,2.9178,2.9178,2.9178,2.9178,2.9178,2.9178,2.9178,2.9178,2.9178,2.9178,2.9178,2.9178,2.9178,2.8464,2.6635,2.8177,2.769,2.4073,2.5497,2.5728,2.3945,2.3909,2.3909,2.3909,2.9118,3.1664,3.1251,3.3019,3.2983,3.1251,3.1251,2.9534,3.6046,3.6393,3.6647,3.6845,3.6885,3.7008,3.7315,3.7595,3.7889,3.824,3.8504,3.8718,3.8718,3.8718,3.8718,3.8718,3.8718,3.8718,3.8718,3.8718,3.8718,3.8718,3.8718,3.8369,3.7587,3.7458,3.6125,3.2924,3.2725,3.131,2.8177,2.7988,2.7631,2.6814,2.4434,2.3238,2.3238,2.0858,1.9725,1.9725,1.9725,1.9739,1.9773,1.982,1.997,1.9997,1.9997,2.0119,2.0329,2.0363,2.0388,2.0476,2.0476,2.0476,2.0476,2.0476,2.0476,2.0476,2.0476,2.0476,2.0476,2.0476,2.0476,2.0476,2.0476,2.0476,2.0476,2.0476,2.0408,2.0349,2.0207,2.0051,1.9888,1.9752,1.9739,1.9725,1.9725,2.1578,2.3945,2.6335,2.6814,2.6814,2.6814,2.6814,2.6814,2.6814,2.6814,2.6814,2.6814,2.6814,2.6814,2.6814,2.6814,2.5788,2.3427,2.5437,2.4786,2.0015,2.1933,2.2168,1.9786,1.9725,1.9725,1.9725,2.7471,3.0315,2.7988,3.0315,3.0305,2.7988,2.7988,2.6276,3.6393,3.6687,3.6901,3.6885,3.6885,3.7008,3.7315,3.7595,3.7889,3.824,3.8504,3.8718,3.8718,3.8718,3.8718,3.8718,3.8718,3.8718,3.8718,3.8718,3.8718,3.8718,3.8718,3.7516,3.4475,3.4158,3.2854,2.9663,2.9464,2.8048,2.4846,2.4657,2.3299,2.0312,2.0022,1.9955,1.9955,1.9786,1.9725,1.9725,1.9725,1.9793,1.9916,1.9875,2.0031,2.0246,2.0246,2.0315,2.0286,2.0471,2.0476,2.0476,2.0476,2.0476,2.0476,2.0476,2.0476,2.0476,2.0476,2.0476,2.0476,2.0476,2.0476,2.0476,2.0476,2.0476,2.0476,2.0476,2.0476,2.0442,2.0349,2.0207,2.0051,1.9888,1.9766,1.9725,1.9725,1.9847,2.0015,2.0144,2.0204,2.0204,2.0204,2.0204,2.0204,2.0204,2.0204,2.0204,2.0204,2.0204,2.0204,2.0204,2.0204,2.0144,1.9955,2.0083,2.0022,1.9725,1.9847,1.9847,1.9725,1.9725,1.9725,1.9725,2.3134,2.4786,2.4657,2.4786,2.4786,2.4657,2.4657,2.2945,3.6433,3.6727,3.6885,3.6885,3.6885,3.7048,3.7555,3.7742,3.7956,3.8464,3.8651,3.8718,3.8718,3.8718,3.8718,3.8718,3.8718,3.8718,3.8718,3.8718,3.7949,3.5833,3.5612,3.4346,3.1214,3.0886,2.9534,2.6335,2.6147,2.4726,2.1578,2.1389,2.0858,1.9725,1.9725,1.9725,1.9725,1.9725,1.9725,1.9725,1.9814,1.982,1.9936,2.0085,2.0227,2.0329,2.0417,2.0408,2.0408,2.0462,2.0476,2.0476,2.0476,2.0476,2.0476,2.0476,2.0476,2.0476,2.0476,2.0476,2.0476,2.0476,2.0476,2.0476,2.0476,2.0476,2.0476,2.0476,2.0476,2.0442,2.03,2.0232,2.0187,1.9929,1.9827,1.9725,1.9725,1.9725,1.9725,1.9725,1.9725,1.9725,1.9725,1.9725,1.9725,1.9725,1.9725,1.9725,1.9725,1.9725,1.9725,1.9725,1.9725,1.9725,1.9725,1.9725,1.9725,1.9725,1.9725,1.9725,1.9725,1.9725,1.9725,1.9725,2.0797,2.1389,2.1389,2.3427,2.3359,2.1389,2.1389,2.0797,3.658,3.6739,3.6885,3.6885,3.6952,3.7179,3.7702,3.7889,3.8103,3.8611,3.8718,3.8718,3.8718,3.8718,3.8718,3.8718,3.8718,3.8718,3.8718,3.7749,3.6325,3.4158,3.2983,3.1085,2.7888,2.7571,2.6276,2.3065,2.2816,2.1933,1.9786,1.9725,1.9725,1.9725,1.9725,1.9725,1.9725,1.9725,1.9725,1.9725,1.9861,1.9908,1.9963,2.0207,2.0349,2.0397,2.0442,2.0476,2.0476,2.0476,2.0476,2.0476,2.0476,2.0476,2.0476,2.0476,2.0476,2.0476,2.0476,2.0476,2.0476,2.0476,2.0476,2.0476,2.0476,2.0476,2.0476,2.0476,2.0476,2.0462,2.0417,2.0329,2.0187,1.9929,1.9827,1.9725,1.9725,1.9725,1.9725,1.9725,1.9725,1.9725,1.9725,1.9725,1.9725,1.9725,1.9725,1.9725,1.9725,1.9725,1.9725,1.9725,1.9725,1.9725,1.9725,1.9725,1.9725,1.9725,1.9725,1.9725,1.9725,1.9725,1.9725,1.9725,1.9725,1.9725,1.9725,2.1805,2.1744,1.9725,1.9725,1.9725,0.0,0.0,0.0,3.6885,3.7155,3.7448,3.7742,3.8036,3.8388,3.8651,3.8718,3.8718,3.8718,3.8602,3.853,3.853,3.853,3.853,3.853,3.5891,3.3865,3.3794,3.1085,2.7888,2.4554,2.4245,2.3005,1.9955,1.9725,1.9725,1.9725,1.9725,1.9725,1.9725,1.9725,1.9725,1.9725,1.9725,1.9725,1.9725,1.9861,1.9963,2.0098,2.0261,2.0354,2.0476,2.0476,2.0476,2.0476,2.0476,2.0476,2.0476,2.0476,2.0476,2.0476,2.0476,2.0476,2.0476,2.0476,2.0476,2.0476,2.0476,2.0476,2.0476,2.0476,2.0476,2.0476,2.0476,2.0476,2.0476,2.0476,2.0329,2.0064,1.997,1.9827,1.9725,1.9725,1.9725,1.9725,1.9725,1.9725,1.9725,1.9725,1.9725,1.9725,1.9725,1.9725,1.9725,1.9725,1.9725,1.9725,1.9725,1.9725,1.9725,1.9725,1.9725,1.9725,1.9725,1.9725,1.9725,1.9725,1.9725,1.9725,1.9725,1.9725,1.9725,1.9725,1.9725,1.9725,1.9725,1.9725,1.9725,3.6805,0.0,0.0,0.0,0.0,0.0,3.7742,3.8036,3.8388,3.8651,3.8718,3.8718,3.8718,3.6804,3.5248,3.5248,3.5248,3.5248,3.5248,3.4475,3.3019,3.0789,2.9722,2.7044,2.1517,2.1033,2.0608,1.9786,1.9725,1.9725,1.9725,1.9725,1.9725,1.9725,1.9725,1.9725,1.9725,1.9725,1.9725,1.9725,1.9922,2.0064,2.0098,2.0363,2.0442,2.0476,2.0476,2.0476,2.0476,2.0476,2.0476,2.0476,2.0476,2.0476,2.0476,2.0476,2.0476,2.0476,2.0476,2.0476,2.0476,2.0476,2.0476,2.0476,2.0476,2.0476,2.0476,2.0476,2.0476,2.0476,2.0476,2.0397,2.0227,2.0064,1.9922,1.9848,1.9739,1.9725,1.9725,1.9725,1.9725,1.9725,1.9725,1.9725,1.9725,1.9725,1.9725,1.9725,1.9725,1.9725,1.9725,1.9725,1.9725,1.9725,1.9725,1.9725,1.9725,1.9725,1.9725,1.9725,1.9725,1.9725,1.9725,1.9725,1.9725,1.9725,1.9725,1.9725,1.9725,1.9725,1.9725,1.9725,3.6845,3.6885,3.6912,3.7088,0.0,0.0,3.7929,3.8281,3.8504,3.8691,3.7645,3.6675,3.6675,3.4123,3.1498,3.0176,2.9949,3.0434,3.1734,3.0789,2.9247,2.7402,2.6045,2.378,2.0083,1.9725,1.9725,1.9725,1.9725,1.9725,1.9725,1.9725,1.9725,1.9725,1.9725,1.9725,1.9725,1.9725,1.9725,1.9725,1.9963,2.0098,2.0119,2.0404,2.0476,2.0476,2.0476,2.0476,2.0476,2.0476,2.0476,2.0476,2.0476,2.0476,2.0476,2.0476,2.0476,2.0476,2.0476,2.0476,2.0476,2.0476,2.0476,2.0476,2.0476,2.0476,2.0476,2.0476,2.0476,2.0476,2.0476,2.0374,2.0246,2.0227,2.0085,1.9929,1.9786,1.9752,1.9793,1.9739,1.9725,1.9725,1.9725,1.9725,1.9725,1.9725,1.9725,1.9725,1.9725,1.9725,1.9725,1.9725,1.9725,1.9725,1.9725,1.9725,1.9725,1.9725,1.9725,1.9725,1.9725,1.9725,1.9725,1.9725,1.9725,1.9725,1.9725,1.9725,1.9725,1.9725,1.9725,1.9725,3.6885,0.0,0.0,3.7315,3.7635,0.0,3.824,3.8504,3.8718,3.8718,3.6454,3.4416,3.4416,3.1852,2.8762,2.5916,2.4855,2.5377,2.8246,2.6207,2.4425,2.4425,2.1933,2.0083,1.9725,1.9725,1.9725,1.9725,1.9725,1.9725,1.9725,1.9725,1.9725,1.9725,1.9725,1.9725,1.9725,1.9725,1.9725,1.9759,1.9963,2.0098,2.0119,2.0404,2.0476,2.0462,2.0476,2.0476,2.0476,2.0476,2.0476,2.0476,2.0476,2.0476,2.0476,2.0476,2.0476,2.0476,2.0476,2.0476,2.0476,2.0476,2.0476,2.0476,2.0476,2.0476,2.0476,2.0476,2.0476,2.0476,2.0476,2.0388,2.0349,2.0329,2.0227,2.0085,1.9929,1.9888,1.9916,1.9793,1.9739,1.9725,1.9725,1.9725,1.9725,1.9725,1.9725,1.9725,1.9725,1.9725,1.9725,1.9725,1.9725,1.9725,1.9725,1.9725,1.9725,1.9725,1.9725,1.9725,1.9725,1.9725,1.9725,1.9725,1.9725,1.9725,1.9725,1.9725,1.9725,1.9725,1.9725,1.9725,0.0,0.0,0.0,0.0,3.7782,0.0,3.8321,3.8504,3.8718,3.8718,3.8169,3.7749,3.7749,3.5119,3.2795,3.2147,2.7759,2.4597,2.5266,2.4786,2.4425,2.4425,2.3841,2.2462,1.9955,1.9725,1.9725,1.9725,1.9725,1.9725,1.9725,1.9725,1.9725,1.9725,1.9725,1.9725,1.9725,1.9725,1.9773,1.9841,2.001,2.0098,2.0119,2.0404,2.0471,2.032,2.0422,2.0476,2.0476,2.0476,2.0476,2.0476,2.0476,2.0476,2.0476,2.0476,2.0476,2.0476,2.0476,2.0476,2.0476,2.0476,2.0476,2.0476,2.0476,2.0476,2.0476,2.0476,2.0476,2.0476,2.0476,2.0462,2.0408,2.03,2.0246,2.0241,2.0085,2.0051,2.0051,2.001,1.982,1.9725,1.9725,1.9725,1.9725,1.9725,1.9725,1.9725,1.9725,1.9725,1.9725,1.9725,1.9725,1.9725,1.9725,1.9725,1.9725,1.9725,1.9725,1.9725,1.9725,1.9725,1.9725,1.9725,1.9725,1.9725,1.9725,1.9725,1.9725,1.9725,1.9725,1.9725,0.0,0.0,0.0,3.7742,0.0,0.0,0.0,3.8611,3.8718,3.8718,3.74,3.6325,3.6325,3.37,3.1535,3.1535,2.7502,2.4425,2.4425,2.3065,2.2039,2.2039,2.2039,2.1449,1.9847,1.9725,1.9725,1.9725,1.9725,1.9725,1.9725,1.9725,1.9725,1.9725,1.9725,1.9725,1.9725,1.9725,1.9759,1.9827,1.9922,1.9997,1.9997,2.0227,2.0329,2.0329,2.0397,2.0471,2.0476,2.0476,2.0476,2.0476,2.0476,2.0476,2.0476,2.0476,2.0476,2.0476,2.0476,2.0476,2.0476,2.0476,2.0476,2.0476,2.0476,2.0476,2.0476,2.0476,2.0476,2.0476,2.0476,2.0476,2.0462,2.0388,2.0374,2.0334,2.0241,2.0207,2.0187,2.0119,1.9976,1.9875,1.9875,1.9875,1.9854,1.9786,1.9827,1.9752,1.9739,1.9725,1.9725,1.9725,1.9725,1.9725,1.9725,1.9725,1.9725,1.9725,1.9725,1.9725,1.9725,1.9725,1.9725,1.9725,1.9725,1.9725,1.9725,1.9725,1.9725,1.9725,1.9725,1.9725,0.0,0.0,0.0,0.0,0.0,3.8397,0.0,0.0,0.0,3.8718,3.6617,3.4826,3.4826,3.2736,3.0993,3.0784,2.8198,2.6161,2.6002,2.3422,2.1093,1.9847,1.9725,1.9725,1.9725,1.9725,1.9725,1.9725,1.9725,1.9725,1.9725,1.9725,1.9725,1.9725,1.9725,1.9725,1.9725,1.9725,1.9739,1.9759,1.982,1.9875,1.9936,2.0064,2.0187,2.0232,2.0349,2.0374,2.0476,2.0476,2.0476,2.0476,2.0476,2.0476,2.0476,2.0476,2.0476,2.0476,2.0476,2.0476,2.0476,2.0476,2.0476,2.0476,2.0476,2.0476,2.0476,2.0476,2.0476,2.0476,2.0476,2.0476,2.0476,2.0476,2.0476,2.0442,2.0334,2.0363,2.0329,2.0207,2.0187,2.0173,2.0119,2.0098,2.0064,1.9942,1.9922,1.9875,1.9766,1.9752,1.9752,1.9752,1.9752,1.9752,1.9752,1.9752,1.9752,1.9752,1.9752,1.9752,1.9752,1.9752,1.9752,1.9752,1.9752,1.9752,1.9752,1.9752,1.9773,1.9725,1.9725,1.9725,0.0,0.0,0.0,0.0,3.8477,0.0,0.0,0.0,3.8718,3.8718,0.0,3.8169,3.8169,0.0,0.0,3.6575,3.4414,3.2557,3.1783,2.9634,2.6045,2.038,1.9725,1.9725,1.9725,1.9725,1.9725,1.9725,1.9725,1.9725,1.9725,1.9725,1.9725,1.9725,1.9725,1.9725,1.9725,1.9725,1.9732,1.9854,1.9875,1.9875,1.9888,2.0173,2.0241,2.0139,2.0397,2.0462,2.0476,2.0476,2.0476,2.0476,2.0476,2.0476,2.0476,2.0476,2.0476,2.0476,2.0476,2.0476,2.0476,2.0476,2.0476,2.0476,2.0476,2.0476,2.0476,2.0476,2.0476,2.0476,2.0476,2.0476,2.0476,2.0476,2.0476,2.0476,2.0462,2.0462,2.0442,2.0485,2.0422,2.0404,2.0153,2.0098,2.0098,2.0085,2.0085,2.0064,2.0051,2.0051,2.0051,2.0051,2.0051,2.0051,2.0051,2.0051,2.0051,2.0051,2.0051,2.0051,2.0051,2.0051,2.0051,2.0051,2.0051,2.0051,2.0051,2.0051,1.9922,1.9725,1.9725,1.9725,0.0,0.0,0.0,0.0,0.0,0.0,0.0,0.0,3.8718,0.0,0.0,0.0,0.0,0.0,0.0,0.0,3.5738,3.3794,3.3419,3.0949,2.8236,2.5497,2.3531,2.1684,1.9847,1.9725,1.9725,1.9725,1.9725,1.9725,1.9725,1.9725,1.9725,1.9725,1.9725,1.9725,1.9725,1.9725,1.9759,1.9752,1.9752,1.9848,1.9875,2.001,2.0119,2.0241,2.0363,2.0408,2.0476,2.0476,2.0476,2.0476,2.0476,2.0476,2.0476,2.0476,2.0476,2.0476,2.0476,2.0476,2.0476,2.0476,2.0476,2.0476,2.0476,2.0476,2.0476,2.0476,2.0476,2.0476,2.0476,2.0476,2.0476,2.0476,2.0476,2.0476,2.0476,2.0476,2.0476,2.0476,2.0476,2.0442,2.032,2.03,2.0329,2.0241,2.0241,2.0207,2.0119,2.0098,2.0098,2.0098,2.0098,2.0098,2.0098,2.0098,2.0098,2.0098,2.0098,2.0098,2.0098,2.0098,2.0098,2.0098,2.0098,2.0098,2.0098,2.0098,2.0031,1.9922,1.9922,1.9922,3.833,0.0,0.0,0.0,0.0,0.0,0.0,0.0,0.0,0.0,3.8718,0.0,0.0,0.0,3.8593,3.8397,0.0,3.5151,3.4898,3.3092,3.1144,2.9405,2.6335,2.3531,2.1222,2.0204,1.9725,1.9725,1.9725,1.9725,1.9725,1.9725,1.9725,1.9725,1.9725,1.9725,1.9725,1.9725,1.9725,1.9725,1.9725,1.9773,1.982,1.9888,2.0051,2.0275,2.0349,2.0388,2.0476,2.0476,2.0476,2.0476,2.0476,2.0476,2.0476,2.0476,2.0476,2.0476,2.0476,2.0476,2.0476,2.0476,2.0476,2.0476,2.0476,2.0476,2.0476,2.0476,2.0476,2.0476,2.0476,2.0476,2.0476,2.0476,2.0476,2.0476,2.0476,2.0476,2.0476,2.0476,2.0476,2.0476,2.0476,2.0476,2.0442,2.0397,2.032,2.0349,2.0241,2.0227,2.0227,2.0227,2.0227,2.0227,2.0227,2.0227,2.0227,2.0227,2.0227,2.0227,2.0227,2.0227,2.0227,2.0227,2.0227,2.0227,2.0227,2.0227,2.0227,2.0227,2.0139,2.0098,0.0,0.0,0.0,3.8718,0.0,0.0,0.0,0.0,3.8718,0.0,0.0,0.0,3.8718,3.8718,3.8437,0.0,3.8055,0.0,0.0,3.7928,3.6092,2.9949,2.6335,2.4365,2.4245,2.151,1.9725,1.9725,1.9725,1.9725,1.9725,1.9725,1.9725,1.9725,1.9725,1.9725,1.9725,1.9725,1.9725,1.9725,1.9725,1.9725,1.9739,1.9963,2.0098,2.0119,2.0354,2.0476,2.0476,2.0476,2.0476,2.0476,2.0476,2.0476,2.0476,2.0476,2.0476,2.0476,2.0476,2.0476,2.0476,2.0476,2.0476,2.0476,2.0476,2.0476,2.0476,2.0476,2.0476,2.0476,2.0476,2.0476,2.0476,2.0476,2.0476,2.0476,2.0476,2.0476,2.0476,2.0476,2.0476,2.0476,2.0476,2.0476,2.0476,2.0476,2.0476,2.0476,2.0462,2.0462,2.0462,2.0462,2.0462,2.0462,2.0462,2.0462,2.0462,2.0462,2.0462,2.0462,2.0462,2.0462,2.0462,2.0462,2.0462,2.0462,2.0462,2.0462,2.0462,2.0462,2.0241,2.0098,0.0,0.0,3.8718,3.8718,0.0,0.0,0.0,0.0,0.0,0.0,0.0,0.0,0.0,0.0,0.0,0.0,0.0,3.8611,0.0,3.8486,3.7878,3.5741,3.263,2.9049,2.4786,2.3427,2.1933,1.9847,1.9725,1.9725,1.9725,1.9725,1.9725,1.9725,1.9725,1.9725,1.9725,1.9725,1.9725,1.9725,1.9725,1.9773,1.9861,2.001,2.0153,2.0261,2.0388,2.0476,2.0476,2.0476,2.0476,2.0476,2.0476,2.0476,2.0476,2.0476,2.0476,2.0476,2.0476,2.0476,2.0476,2.0476,2.0476,2.0476,2.0476,2.0476,2.0476,2.0476,2.0476,2.0476,2.0476,2.0476,2.0476,2.0476,2.0476,2.0476,2.0476,2.0476,2.0476,2.0476,2.0476,2.0476,2.0476,2.0476,2.0476,2.0476,2.0476,2.0476,2.0476,2.0476,2.0476,2.0476,2.0476,2.0476,2.0476,2.0476,2.0476,2.0476,2.0476,2.0476,2.0476,2.0476,2.0476,2.0476,2.0476,2.0476,2.0476,2.0476,2.0476,2.0476,2.0438,2.0334,3.8718,3.8718,0.0,3.8718,3.8718,0.0,3.8718,0.0,0.0,0.0,0.0,0.0,0.0,0.0,0.0,0.0,0.0,0.0,0.0,3.8718,3.8718,3.8718,3.5833,3.1852,2.6625,2.5077,2.3065,1.9955,1.9725,1.9725,1.9725,1.9725,1.9725,1.9725,1.9725,1.9725,1.9725,1.9725,1.9725,1.9725,1.9725,1.9773,1.9861,2.001,2.0153,2.0261,2.0388,2.0476,2.0476,2.0476,2.0476,2.0476,2.0476,2.0476,2.0476,2.0476,2.0476,2.0476,2.0476,2.0476,2.0476,2.0476,2.0476,2.0476,2.0476,2.0476,2.0496,2.0618,2.0564,2.056,2.0618,2.0564,2.0476,2.0476,2.0476,2.0476,2.0476,2.0476,2.0476,2.0476,2.0476,2.0476,2.0476,2.0476,2.0476,2.0476,2.0476,2.0476,2.0476,2.0476,2.0476,2.0476,2.0476,2.0476,2.0476,2.0476,2.0476,2.0476,2.0476,2.0476,2.0476,2.0476,2.053,2.0702,2.053,2.053,2.0702,2.053,2.0476,2.0476,2.0476,2.0476]},{"header":{"parameterUnit":"m.s-1","parameterCategory":1,"la1":30.6,"la2":29.2853,"lo1":-89.7004,"lo2":-87.6739,"dy":0.0162,"dx":0.0183,"nx":112,"ny":82,"refTime":"2023-04-08T00:00:00:Z","depth":0,"parameterNumber":3,"parameterNumberName":"V-component_of_WINDS"},"data":[0.0,0.0,0.0,0.0,0.0,0.0,0.0,0.0,0.0,0.0,0.0,0.0,0.0,0.0,0.0,0.0,0.0,0.0,0.0,0.0,0.0,0.0,0.0,0.0,0.0,0.0,0.0,0.0,0.0,0.0,0.0,0.0,0.0,0.0,0.0,0.0,0.0,0.0,0.0,0.0,0.0,0.0,0.0,0.0,0.0,0.0,0.0,0.0,0.0,0.0,0.0,0.0,0.0,0.0,0.0,0.0,0.0,0.0,0.0,0.0,0.0,0.0,0.0,0.0,0.0,0.0,0.0,0.0,0.0,0.0,0.0,0.0,0.0,0.0,0.0,0.0,0.0,0.0,0.0,0.0,0.0,0.0,0.0,0.0,0.0,0.0,0.0,0.0,0.0,0.0,6.0317,6.0452,6.0452,6.0791,6.1569,6.1535,6.1535,6.1637,0.0,0.0,0.0,0.0,0.0,0.0,0.0,0.0,0.0,0.0,0.0,0.0,0.0,0.0,0.0,0.0,0.0,0.0,0.0,0.0,0.0,0.0,0.0,0.0,0.0,0.0,0.0,0.0,0.0,0.0,0.0,0.0,0.0,0.0,0.0,0.0,0.0,0.0,0.0,0.0,0.0,0.0,0.0,0.0,0.0,0.0,0.0,0.0,0.0,0.0,0.0,0.0,0.0,0.0,0.0,0.0,0.0,0.0,0.0,0.0,0.0,0.0,0.0,0.0,0.0,0.0,0.0,0.0,0.0,0.0,0.0,0.0,0.0,0.0,0.0,0.0,0.0,0.0,0.0,0.0,0.0,0.0,0.0,0.0,0.0,0.0,0.0,0.0,0.0,0.0,0.0,0.0,0.0,0.0,0.0,0.0,0.0,0.0,0.0,0.0,0.0,0.0,0.0,0.0,6.1366,6.1975,6.2062,6.2347,6.3105,6.2584,6.2482,6.3139,0.0,0.0,0.0,0.0,0.0,0.0,0.0,0.0,0.0,0.0,0.0,0.0,0.0,0.0,0.0,0.0,0.0,0.0,0.0,0.0,0.0,0.0,0.0,0.0,0.0,0.0,0.0,0.0,0.0,0.0,0.0,0.0,0.0,0.0,0.0,0.0,0.0,0.0,0.0,0.0,0.0,0.0,0.0,0.0,0.0,0.0,0.0,0.0,0.0,0.0,0.0,0.0,0.0,0.0,0.0,0.0,0.0,0.0,0.0,0.0,0.0,0.0,0.0,0.0,0.0,0.0,0.0,0.0,0.0,0.0,0.0,0.0,0.0,0.0,0.0,0.0,0.0,0.0,0.0,0.0,0.0,0.0,0.0,0.0,0.0,0.0,0.0,0.0,0.0,0.0,0.0,0.0,0.0,0.0,0.0,0.0,0.0,0.0,0.0,0.0,0.0,0.0,0.0,6.2854,6.3226,6.3565,6.3599,6.3734,6.4072,6.3802,6.3734,6.4072,6.3463,0.0,0.0,0.0,0.0,0.0,0.0,0.0,0.0,0.0,0.0,0.0,0.0,0.0,0.0,0.0,0.0,0.0,0.0,0.0,0.0,0.0,0.0,0.0,0.0,0.0,0.0,0.0,0.0,0.0,0.0,0.0,0.0,0.0,0.0,0.0,0.0,0.0,0.0,0.0,0.0,0.0,0.0,0.0,0.0,0.0,0.0,0.0,0.0,0.0,0.0,0.0,0.0,0.0,0.0,0.0,0.0,0.0,0.0,0.0,0.0,0.0,0.0,0.0,0.0,0.0,0.0,0.0,0.0,0.0,0.0,0.0,0.0,0.0,0.0,0.0,0.0,0.0,0.0,0.0,0.0,0.0,0.0,0.0,0.0,0.0,0.0,0.0,0.0,0.0,0.0,0.0,0.0,0.0,0.0,0.0,0.0,0.0,0.0,0.0,0.0,0.0,0.0,6.4241,6.4613,6.4613,6.4613,6.4681,6.485,6.4681,6.4681,6.485,6.4681,0.0,0.0,0.0,0.0,0.0,0.0,0.0,0.0,0.0,0.0,0.0,0.0,0.0,0.0,0.0,0.0,0.0,0.0,0.0,0.0,0.0,0.0,0.0,0.0,0.0,0.0,0.0,0.0,0.0,0.0,0.0,0.0,0.0,0.0,0.0,0.0,0.0,0.0,0.0,0.0,0.0,0.0,0.0,0.0,0.0,0.0,0.0,0.0,0.0,0.0,0.0,0.0,0.0,0.0,0.0,0.0,0.0,0.0,0.0,0.0,0.0,0.0,0.0,0.0,0.0,0.0,0.0,0.0,0.0,0.0,0.0,0.0,0.0,0.0,0.0,0.0,0.0,0.0,0.0,0.0,0.0,0.0,0.0,0.0,0.0,0.0,0.0,0.0,0.0,0.0,0.0,0.0,0.0,0.0,0.0,0.0,0.0,0.0,0.0,0.0,0.0,0.0,6.458,6.4613,6.4613,6.4613,6.4884,6.5561,6.4986,6.4884,6.5581,6.4986,0.0,0.0,0.0,0.0,0.0,0.0,0.0,0.0,0.0,0.0,0.0,0.0,0.0,0.0,0.0,0.0,0.0,0.0,0.0,0.0,0.0,0.0,0.0,0.0,0.0,0.0,0.0,0.0,0.0,0.0,0.0,0.0,0.0,0.0,0.0,0.0,0.0,0.0,0.0,0.0,0.0,0.0,0.0,0.0,0.0,0.0,0.0,0.0,0.0,0.0,0.0,0.0,0.0,0.0,0.0,0.0,0.0,0.0,0.0,0.0,0.0,0.0,0.0,0.0,0.0,0.0,0.0,0.0,0.0,0.0,0.0,0.0,0.0,0.0,0.0,0.0,0.0,0.0,0.0,0.0,0.0,0.0,0.0,0.0,0.0,0.0,0.0,0.0,0.0,0.0,0.0,0.0,0.0,0.0,0.0,0.0,0.0,0.0,0.0,0.0,0.0,0.0,6.5696,6.5967,0.0,6.5967,6.6102,6.6373,6.6136,6.6102,6.6373,0.0,0.0,0.0,0.0,0.0,0.0,0.0,0.0,0.0,0.0,0.0,0.0,0.0,0.0,0.0,0.0,0.0,0.0,0.0,0.0,0.0,0.0,0.0,0.0,0.0,0.0,0.0,0.0,0.0,0.0,0.0,0.0,0.0,0.0,0.0,0.0,0.0,0.0,0.0,0.0,0.0,0.0,0.0,0.0,0.0,0.0,0.0,0.0,0.0,0.0,0.0,0.0,0.0,0.0,0.0,0.0,0.0,0.0,0.0,0.0,0.0,0.0,0.0,0.0,0.0,0.0,0.0,0.0,0.0,0.0,0.0,0.0,0.0,0.0,0.0,0.0,0.0,0.0,0.0,0.0,0.0,0.0,0.0,0.0,0.0,0.0,0.0,0.0,0.0,0.0,0.0,0.0,0.0,0.0,0.0,0.0,0.0,0.0,0.0,0.0,0.0,0.0,6.6034,6.6508,6.6791,0.0,6.6791,6.6791,6.6791,6.6791,6.6791,6.6791,0.0,0.0,0.0,0.0,0.0,0.0,0.0,0.0,0.0,0.0,0.0,0.0,0.0,0.0,0.0,0.0,0.0,0.0,0.0,0.0,0.0,0.0,0.0,0.0,0.0,0.0,0.0,0.0,0.0,0.0,0.0,0.0,0.0,0.0,0.0,0.0,0.0,0.0,0.0,0.0,0.0,0.0,0.0,0.0,0.0,0.0,0.0,0.0,0.0,0.0,0.0,0.0,0.0,0.0,0.0,0.0,0.0,0.0,0.0,0.0,0.0,0.0,0.0,0.0,0.0,0.0,0.0,0.0,0.0,0.0,0.0,0.0,0.0,0.0,0.0,0.0,0.0,0.0,0.0,0.0,0.0,0.0,0.0,0.0,0.0,0.0,0.0,0.0,0.0,0.0,0.0,0.0,0.0,0.0,0.0,0.0,0.0,0.0,0.0,0.0,0.0,0.0,6.6791,6.6791,6.6791,6.6791,6.6791,6.6791,6.6791,6.6791,6.6791,0.0,0.0,0.0,0.0,0.0,0.0,0.0,0.0,0.0,0.0,0.0,0.0,0.0,0.0,0.0,0.0,0.0,0.0,0.0,0.0,0.0,0.0,0.0,0.0,0.0,0.0,0.0,0.0,0.0,0.0,0.0,0.0,0.0,0.0,0.0,0.0,0.0,0.0,0.0,0.0,0.0,0.0,0.0,0.0,0.0,0.0,0.0,0.0,0.0,0.0,0.0,0.0,0.0,0.0,0.0,0.0,0.0,0.0,0.0,0.0,0.0,0.0,0.0,0.0,0.0,0.0,0.0,0.0,0.0,0.0,0.0,0.0,0.0,0.0,0.0,0.0,0.0,0.0,0.0,0.0,0.0,0.0,0.0,0.0,0.0,0.0,0.0,0.0,0.0,0.0,0.0,0.0,0.0,0.0,0.0,0.0,0.0,0.0,0.0,0.0,0.0,0.0,0.0,6.6791,6.6791,6.6791,6.6791,6.6791,6.6791,6.6791,6.6791,6.6791,6.6791,0.0,0.0,0.0,0.0,0.0,0.0,0.0,0.0,0.0,0.0,0.0,0.0,0.0,0.0,0.0,0.0,0.0,0.0,0.0,0.0,0.0,0.0,0.0,0.0,0.0,0.0,0.0,0.0,0.0,0.0,0.0,0.0,0.0,0.0,0.0,0.0,0.0,0.0,0.0,0.0,0.0,0.0,0.0,0.0,0.0,0.0,0.0,0.0,0.0,0.0,0.0,0.0,0.0,0.0,0.0,0.0,0.0,0.0,0.0,0.0,0.0,0.0,0.0,0.0,0.0,0.0,0.0,0.0,0.0,0.0,0.0,0.0,0.0,0.0,0.0,0.0,0.0,0.0,0.0,0.0,0.0,0.0,0.0,0.0,0.0,0.0,0.0,0.0,0.0,0.0,0.0,0.0,0.0,0.0,0.0,0.0,0.0,0.0,0.0,0.0,0.0,0.0,6.7252,6.7523,6.7726,6.7726,6.7726,6.7726,6.7726,6.7726,6.7726,6.7726,0.0,0.0,0.0,0.0,0.0,0.0,0.0,0.0,0.0,0.0,0.0,0.0,0.0,0.0,0.0,0.0,0.0,0.0,0.0,0.0,0.0,0.0,0.0,0.0,0.0,0.0,0.0,0.0,0.0,0.0,0.0,0.0,0.0,0.0,0.0,0.0,0.0,0.0,0.0,0.0,0.0,0.0,0.0,0.0,0.0,0.0,0.0,0.0,0.0,0.0,0.0,0.0,0.0,0.0,0.0,0.0,0.0,0.0,0.0,0.0,0.0,0.0,0.0,0.0,0.0,0.0,0.0,0.0,0.0,0.0,0.0,0.0,0.0,0.0,0.0,0.0,0.0,0.0,0.0,0.0,0.0,0.0,0.0,0.0,0.0,0.0,0.0,0.0,0.0,0.0,0.0,0.0,0.0,0.0,0.0,0.0,0.0,0.0,0.0,0.0,0.0,0.0,6.7996,6.8639,6.9113,6.9113,6.9113,6.9113,6.9113,6.9113,6.9113,6.9113,0.0,0.0,0.0,0.0,0.0,0.0,0.0,0.0,0.0,0.0,0.0,0.0,0.0,0.0,0.0,0.0,0.0,0.0,0.0,0.0,0.0,0.0,0.0,0.0,0.0,0.0,0.0,0.0,0.0,0.0,0.0,0.0,0.0,0.0,0.0,0.0,0.0,0.0,0.0,0.0,0.0,0.0,0.0,0.0,0.0,0.0,0.0,0.0,0.0,0.0,0.0,0.0,0.0,0.0,0.0,0.0,0.0,0.0,0.0,0.0,6.4275,6.3734,0.0,0.0,0.0,0.0,0.0,0.0,0.0,0.0,0.0,0.0,0.0,0.0,0.0,0.0,0.0,0.0,0.0,0.0,0.0,0.0,0.0,0.0,0.0,0.0,0.0,0.0,0.0,0.0,0.0,0.0,0.0,0.0,0.0,0.0,0.0,0.0,0.0,0.0,0.0,0.0,6.8842,6.8977,6.9113,6.9113,6.9113,6.9113,6.9113,6.9113,6.9113,6.9113,6.9113,0.0,0.0,0.0,0.0,0.0,0.0,0.0,0.0,0.0,0.0,0.0,0.0,0.0,0.0,0.0,0.0,0.0,0.0,0.0,0.0,0.0,0.0,0.0,0.0,0.0,0.0,0.0,0.0,0.0,0.0,0.0,0.0,0.0,0.0,0.0,0.0,0.0,0.0,0.0,0.0,0.0,0.0,0.0,0.0,0.0,0.0,0.0,0.0,0.0,0.0,0.0,0.0,0.0,0.0,0.0,0.0,0.0,0.0,0.0,6.5256,6.4783,0.0,0.0,0.0,0.0,0.0,0.0,0.0,0.0,0.0,0.0,0.0,0.0,0.0,0.0,0.0,0.0,0.0,0.0,0.0,0.0,0.0,0.0,0.0,0.0,0.0,0.0,0.0,0.0,0.0,0.0,0.0,0.0,0.0,0.0,0.0,0.0,0.0,0.0,0.0,0.0,7.0161,7.077,7.121,7.121,7.121,7.121,7.121,7.121,7.121,7.121,7.121,0.0,0.0,0.0,0.0,0.0,0.0,0.0,0.0,0.0,0.0,0.0,0.0,0.0,0.0,0.0,0.0,0.0,0.0,0.0,0.0,0.0,0.0,0.0,0.0,0.0,0.0,0.0,0.0,0.0,0.0,0.0,0.0,0.0,0.0,0.0,0.0,0.0,0.0,0.0,0.0,0.0,0.0,0.0,0.0,0.0,0.0,0.0,0.0,0.0,0.0,0.0,0.0,0.0,6.6711,6.7062,6.7197,6.7197,6.7197,6.7129,6.5933,6.5595,6.5831,6.5222,0.0,0.0,0.0,0.0,0.0,0.0,0.0,0.0,0.0,0.0,0.0,0.0,0.0,0.0,0.0,0.0,0.0,0.0,0.0,0.0,0.0,0.0,0.0,0.0,6.9586,6.9722,0.0,0.0,0.0,0.0,0.0,0.0,0.0,0.0,0.0,0.0,0.0,0.0,7.1684,7.2732,7.35,7.35,7.35,7.35,7.35,7.35,7.35,7.35,7.35,7.389,0.0,0.0,0.0,0.0,0.0,0.0,0.0,0.0,0.0,0.0,0.0,0.0,0.0,0.0,0.0,0.0,0.0,0.0,0.0,0.0,0.0,0.0,0.0,0.0,0.0,0.0,0.0,0.0,0.0,0.0,0.0,0.0,6.1501,6.2868,0.0,0.0,0.0,0.0,0.0,0.0,0.0,0.0,0.0,0.0,0.0,0.0,0.0,6.6487,6.6487,6.6609,6.6981,6.7624,6.7692,6.8132,6.8808,6.8808,6.8808,6.8808,6.8605,0.0,6.6643,6.6555,0.0,0.0,0.0,0.0,0.0,0.0,0.0,0.0,0.0,0.0,0.0,0.0,0.0,0.0,0.0,0.0,0.0,0.0,0.0,0.0,0.0,0.0,7.0195,7.0872,7.1515,7.2124,0.0,7.0906,6.9282,6.9925,7.0026,0.0,0.0,0.0,0.0,0.0,0.0,0.0,7.3229,7.3398,7.35,7.35,7.35,7.35,7.35,7.35,7.35,7.35,7.35,7.3569,7.3696,7.3467,0.0,0.0,0.0,0.0,0.0,0.0,0.0,0.0,0.0,0.0,0.0,0.0,0.0,0.0,0.0,0.0,0.0,0.0,0.0,0.0,0.0,0.0,0.0,0.0,0.0,0.0,0.0,0.0,0.0,6.2685,6.3396,6.4038,6.414,6.4241,0.0,0.0,0.0,0.0,0.0,0.0,0.0,0.0,0.0,6.6948,6.7692,6.8098,6.8098,6.8098,6.8267,6.8571,6.8571,6.8774,6.9113,6.9113,6.9316,6.9722,6.9722,6.9586,6.926,6.8436,6.8098,6.8132,0.0,0.0,0.0,0.0,6.9113,6.9113,6.9113,6.9113,6.918,6.9586,0.0,0.0,0.0,0.0,0.0,0.0,0.0,0.0,0.0,0.0,7.2146,7.2462,7.2766,7.3105,7.3432,7.28,7.2157,0.0,7.2045,7.2282,7.2902,0.0,0.0,0.0,0.0,7.4728,7.4728,7.5473,7.6038,7.6038,7.6038,7.6038,7.6038,7.6038,7.6038,7.6038,7.5642,7.5667,7.6313,7.4898,7.4399,0.0,0.0,0.0,0.0,0.0,0.0,0.0,0.0,0.0,0.0,0.0,0.0,0.0,0.0,0.0,0.0,0.0,0.0,0.0,0.0,0.0,0.0,0.0,0.0,0.0,0.0,0.0,0.0,6.4546,6.4952,6.5155,6.5155,6.5155,0.0,0.0,0.0,0.0,0.0,0.0,6.7387,6.7929,6.8199,6.8199,6.8808,6.918,6.9383,6.9383,6.9586,6.9958,6.9958,7.0026,7.0229,7.0229,7.0534,7.1041,7.1041,7.1345,7.1751,7.0263,6.9654,6.9688,6.9891,6.9958,6.9958,7.0161,7.0229,7.0229,7.0229,7.0229,7.0331,7.0894,7.1041,7.1165,7.1718,0.0,0.0,0.0,0.0,7.3781,7.3781,7.4052,7.438,7.438,7.4515,7.465,7.465,7.5067,7.5202,0.0,7.4221,7.4447,7.4617,0.0,0.0,0.0,0.0,7.6284,7.6284,7.7266,7.8,7.8,7.8,7.8,7.8,7.8,7.8,7.8,7.7468,7.753,7.8339,7.6512,7.5852,7.6629,0.0,0.0,0.0,0.0,0.0,0.0,0.0,0.0,0.0,0.0,0.0,0.0,0.0,0.0,0.0,0.0,0.0,0.0,0.0,0.0,0.0,0.0,0.0,0.0,0.0,0.0,0.0,0.0,0.0,6.6609,6.669,0.0,0.0,0.0,0.0,6.7793,6.8538,6.8977,6.8977,6.9011,6.9045,6.9045,6.9079,6.9451,7.0128,7.0128,7.0838,7.2225,7.2225,7.2597,7.3297,7.3297,7.3297,7.3331,7.3331,7.3364,7.3274,7.1819,7.1188,7.1255,7.1954,7.2225,7.2326,7.3026,7.3297,7.3297,7.3297,7.3297,7.3297,7.3331,7.3331,7.3364,7.3398,7.3432,0.0,0.0,7.3984,7.4559,7.4559,7.5642,7.6724,7.6724,7.7266,7.7797,7.7797,7.7773,7.7367,0.0,7.6217,7.6961,7.7662,0.0,7.7797,7.7797,7.7865,7.7899,7.7899,7.7967,7.8,7.8,7.8,7.8,7.8,7.8,7.8,7.8,7.7967,7.7991,7.8006,7.789,7.7856,7.7905,7.8202,0.0,0.0,0.0,0.0,0.0,0.0,0.0,0.0,0.0,0.0,0.0,0.0,0.0,0.0,0.0,0.0,0.0,0.0,0.0,0.0,0.0,0.0,0.0,0.0,0.0,0.0,0.0,0.0,6.7421,6.7523,0.0,6.8233,6.8538,6.8673,6.8673,6.8944,6.9316,6.9755,7.0263,7.0737,7.121,7.1684,7.2056,7.2315,7.2315,7.2586,7.3105,7.3105,7.3477,7.4221,7.4221,7.4762,7.5676,7.5676,7.5946,7.6376,7.5811,7.4458,7.2732,7.3003,7.3105,7.3161,7.3398,7.3781,7.4221,7.4221,7.4525,7.4999,7.5506,7.6014,7.641,7.641,7.641,7.641,7.641,7.6613,7.6792,7.6792,7.7198,7.7604,7.7604,7.7807,7.8,7.8,7.8382,7.8551,7.801,7.7739,7.7671,7.7942,7.8,7.8235,7.8967,7.952,8.0075,8.0789,8.0663,8.0493,8.0493,7.9848,7.9431,7.9431,8.0082,8.0493,8.0493,8.0765,8.0901,8.0901,8.0447,7.9825,7.9107,7.9967,7.9488,0.0,0.0,0.0,0.0,0.0,0.0,0.0,0.0,0.0,0.0,0.0,0.0,0.0,0.0,0.0,0.0,0.0,0.0,0.0,0.0,0.0,0.0,0.0,0.0,0.0,6.74,6.776,6.8233,6.8301,6.8605,6.9383,6.9688,6.9958,7.0195,7.0432,7.0804,7.13,7.1785,7.2259,7.2766,7.3477,7.3984,7.4221,7.4492,7.4786,7.5023,7.5023,7.527,7.5743,7.5743,7.6318,7.7266,7.7266,7.7536,7.8,7.8,7.6816,7.5023,7.5023,7.5023,7.5023,7.5023,7.5337,7.5743,7.5743,7.6082,7.6555,7.7096,7.7604,7.8,7.8,7.8,7.8,7.8,7.8179,7.8382,7.8382,7.8551,7.872,7.872,7.872,7.872,7.872,7.9405,7.9941,7.9539,7.9092,7.872,7.872,7.872,7.8982,7.9746,8.0276,8.0857,8.1636,8.1505,8.1307,8.1307,8.0632,8.0351,8.0755,8.1101,8.1652,8.2414,8.237,8.248,8.2863,8.2409,8.1612,8.0465,8.1178,8.106,8.0072,0.0,0.0,0.0,0.0,0.0,0.0,0.0,0.0,0.0,0.0,0.0,0.0,0.0,0.0,0.0,0.0,0.0,0.0,0.0,0.0,0.0,0.0,0.0,6.8064,6.8639,6.9147,6.918,6.918,6.9485,7.0251,7.0939,7.1661,7.2394,7.3105,7.3567,7.3567,7.3601,7.3635,7.3635,7.4322,7.5067,7.5743,7.6555,7.7299,7.8,7.8,7.8034,7.8034,7.8034,7.8068,7.8068,7.8068,7.8068,7.8068,7.8068,7.8068,7.8044,7.8034,7.8,7.8,7.8,7.8034,7.8034,7.8044,7.8068,7.8068,7.8068,7.8068,7.8068,7.8117,7.8093,7.8068,7.8117,7.861,7.9135,7.9135,7.9667,8.0209,8.0209,8.0209,8.0234,8.0259,8.116,8.1627,8.0535,8.0318,8.0293,8.0209,8.0209,8.0234,8.0259,8.025,0.0,8.0351,8.0326,8.0301,8.0335,8.0309,8.074,8.1851,8.0951,8.1304,8.3536,8.2661,8.2549,8.3685,8.3727,8.3212,8.2083,8.1991,8.2716,8.4216,0.0,0.0,0.0,0.0,0.0,0.0,0.0,0.0,0.0,0.0,0.0,0.0,0.0,0.0,0.0,0.0,0.0,0.0,0.0,0.0,0.0,7.0364,7.0241,6.8944,6.9417,7.0094,7.0635,7.1176,7.1785,7.2518,7.2789,7.2969,7.3172,7.3883,7.4525,7.5067,7.5642,7.6217,7.6748,7.6961,7.7164,7.7391,7.757,7.7773,7.8,7.8,7.828,7.8822,7.8822,7.9092,7.96,7.96,7.96,7.96,7.96,7.96,7.9498,7.8416,7.8,7.8,7.8,7.8348,7.8889,7.9397,7.96,7.96,7.96,7.96,7.9741,8.058,8.0229,7.9766,8.0604,8.0375,7.9904,7.9904,8.004,8.0209,8.0209,8.0209,8.0587,8.1981,8.2553,8.2833,8.3062,8.3093,8.2467,8.052,8.0209,8.0467,8.1283,8.1427,0.0,8.367,8.3191,8.2871,8.3408,8.2707,8.2373,8.2694,8.3159,8.3842,8.4769,8.5334,8.5731,8.6046,8.6064,8.5935,8.5582,8.3964,8.3768,0.0,0.0,0.0,0.0,0.0,0.0,0.0,0.0,0.0,0.0,0.0,0.0,0.0,0.0,0.0,0.0,0.0,0.0,0.0,0.0,0.0,0.0,7.1921,7.1921,7.1041,7.1312,7.1718,7.2157,7.2597,7.3274,7.4322,7.4424,7.4695,7.5361,7.5777,7.6217,7.6623,7.7096,7.7536,7.8,7.828,7.845,7.845,7.8754,7.8923,7.8923,7.8923,7.916,7.9566,7.9566,7.9803,8.0209,8.0209,8.0209,8.0209,8.0209,8.0378,8.0547,0.0,0.0,0.0,0.0,7.9497,8.0336,8.078,8.0917,8.0917,8.0917,8.0616,8.0392,8.1535,8.1657,8.1654,8.2788,8.2509,8.1987,8.2476,8.2246,8.2012,8.25,8.262,8.2937,8.4064,8.4677,8.5018,8.498,8.5345,0.0,8.2995,8.18,8.1676,8.3368,8.3184,8.3515,8.5355,8.5023,8.4775,8.52,8.4655,8.443,8.4943,8.5141,0.0,0.0,0.0,8.7486,8.7988,8.7559,0.0,0.0,0.0,8.5698,8.65,0.0,0.0,0.0,8.3481,8.3121,0.0,0.0,0.0,0.0,0.0,0.0,0.0,0.0,0.0,0.0,0.0,0.0,0.0,0.0,0.0,0.0,7.3771,7.3804,7.3974,7.4007,7.394,7.3771,7.3906,7.4525,7.5811,7.5946,7.6521,7.7899,7.8102,7.8111,7.8111,7.8204,0.0,0.0,0.0,7.9203,7.9203,7.987,8.0242,8.031,8.031,8.0378,8.0445,8.0445,8.0521,8.0639,8.0639,8.0739,8.0854,8.0854,8.1229,8.1773,8.0951,8.0639,8.0664,8.0805,8.1486,8.235,8.235,0.0,0.0,8.235,8.1668,8.1068,8.2222,8.2975,8.3659,8.483,8.4795,8.467,8.5724,8.521,8.4693,8.5746,8.6009,8.6066,8.6267,8.7105,8.7585,8.6624,8.7341,8.776,8.6767,8.4502,8.3527,8.568,8.5073,8.4821,8.6031,8.6182,8.6218,8.6324,0.0,0.0,8.7729,8.6898,8.7208,8.9256,8.8429,8.8334,8.9364,8.841,8.8353,8.9382,8.8391,8.8064,8.8353,8.8353,8.7986,8.72,8.4999,8.4532,0.0,0.0,0.0,0.0,0.0,0.0,0.0,0.0,0.0,0.0,0.0,0.0,0.0,0.0,0.0,7.5067,7.527,7.5709,7.6927,7.7154,7.6657,7.5405,7.6352,7.7256,7.7527,7.7561,7.7696,7.8,7.8551,7.8889,7.8889,7.9464,7.9769,7.9769,7.9904,8.0006,8.0006,8.0141,8.0479,8.1114,8.1114,0.0,8.1968,8.1968,8.2512,8.3435,8.3435,8.3995,8.4901,8.4901,8.4949,8.4964,8.3876,8.3435,8.3555,8.4516,8.5,8.5199,8.5199,8.5199,8.5199,8.5199,8.5079,8.5089,8.6228,8.6041,0.0,8.6809,8.6438,8.5702,8.5944,8.5834,8.5702,8.5944,8.6009,8.6446,8.7993,8.8502,8.8779,8.9148,8.9955,9.0527,9.0321,8.7526,8.5457,8.5922,8.5812,8.6074,8.7223,8.7364,8.7596,8.8203,8.8275,8.8356,8.8558,8.8397,8.86,8.9365,8.9202,8.9184,8.9382,8.9184,8.9184,8.94,8.9184,8.9111,8.9179,8.9179,8.9106,8.8868,8.7157,8.6464,0.0,0.0,0.0,0.0,0.0,0.0,0.0,0.0,0.0,0.0,0.0,7.4153,7.4525,0.0,7.554,7.6657,7.6826,7.7096,7.7899,7.8314,7.8111,7.6995,7.7527,7.8145,7.8517,7.8551,7.8686,7.9058,7.9431,7.9667,7.9667,8.0006,8.0378,8.0716,8.075,8.0919,8.1291,8.1291,8.1494,8.1832,8.1832,8.2361,8.3314,8.3314,8.398,8.5096,8.5096,8.5435,8.6023,8.6413,8.6554,8.659,8.6957,8.6284,8.5164,8.579,8.6354,8.6838,8.6838,8.6838,8.6838,8.6838,8.646,8.6204,8.7344,8.7592,8.7695,8.8839,8.8911,8.881,8.9404,8.9425,8.9405,9.0001,9.0159,9.0429,9.1395,9.1584,9.173,9.2091,9.2492,9.2803,9.2803,9.1333,9.0159,9.0159,8.9651,8.9692,9.0866,9.0982,9.1128,9.1489,9.1562,9.1562,9.1562,9.1562,9.1628,9.184,9.1473,9.1235,9.1235,9.0831,9.0592,9.0592,9.0592,9.0408,8.9987,8.9987,8.9803,8.9363,8.8592,8.8189,0.0,0.0,0.0,0.0,0.0,0.0,0.0,7.3737,7.394,7.394,7.4627,7.5439,7.6048,7.669,7.7367,7.8077,7.8213,7.8247,7.8407,7.8957,7.9092,7.8483,7.844,7.8653,7.9261,7.9304,7.9634,8.0344,8.0412,8.0479,8.0615,8.0615,8.0885,8.1494,8.1741,8.214,8.2752,8.2972,8.3166,8.3303,8.3303,8.4004,8.5215,8.5215,8.5982,8.7279,8.7515,8.76,8.7671,8.8257,8.8507,8.8664,9.0222,8.9498,8.76,8.7421,8.8054,8.8991,8.8991,8.8991,8.8991,8.8991,8.8361,8.7768,8.8698,8.9445,9.0129,9.107,9.159,9.2106,9.3066,9.3086,9.3107,9.4074,9.4299,9.4299,9.4299,9.4299,9.4299,9.4299,9.441,9.452,9.452,9.4666,9.4666,9.4336,9.3462,9.3207,9.4169,9.4299,9.4299,9.4299,9.4299,9.4299,9.4299,9.4299,9.4299,9.4299,9.3675,9.3345,9.3345,9.2648,9.2281,9.2281,9.2281,9.195,9.1326,9.1326,9.0996,9.0354,9.0354,9.0024,7.0316,7.2022,7.306,7.3229,7.324,7.3297,0.0,7.4492,7.5439,7.5439,7.6589,7.7638,7.7705,7.7831,7.8111,7.8855,7.8991,7.9228,7.987,8.0006,8.004,7.9972,7.9938,8.0006,8.0073,8.0073,8.0378,8.1114,8.1181,8.146,8.2137,8.2171,8.2205,8.2272,8.3291,8.3925,8.3994,8.505,8.5944,8.6556,8.6556,8.7365,8.8901,8.8901,8.9943,9.1835,9.2895,9.3374,9.3374,9.3465,9.3465,9.3521,9.3726,9.3633,9.3301,9.255,9.2846,9.3562,9.3562,9.3562,9.3562,9.3562,9.3487,9.3393,9.3525,9.3599,9.3728,9.384,9.3931,9.3984,9.4134,9.4114,9.4131,9.4281,9.4299,9.4299,9.4299,9.4299,9.4299,9.4299,9.4887,9.5364,9.5364,9.5951,9.5951,9.452,9.4169,9.415,9.4299,9.4299,9.4299,9.4299,9.4299,9.4299,9.4299,9.4299,9.4299,9.4299,9.4226,9.4153,9.4153,9.4079,9.4006,9.4006,9.4006,9.3969,9.3896,9.3896,9.3822,9.3749,9.3749,9.2207,7.2068,7.3003,7.3578,7.4018,7.4458,7.4897,7.5371,7.6284,7.7029,7.7029,7.7536,7.8111,7.8551,7.8653,7.8889,7.9634,7.9735,7.987,8.0175,8.0547,8.0818,8.0818,8.1224,8.1325,8.0885,8.0818,8.1156,8.1866,8.2595,8.311,8.3453,8.4114,8.4691,8.512,8.6067,8.6801,8.7292,8.8242,8.888,8.9199,8.9199,8.9912,9.1262,9.1262,9.2093,9.3596,9.4093,9.4299,9.4299,9.4299,9.4299,9.4299,9.4299,9.4593,9.4887,9.4116,9.4006,9.4299,9.4299,9.4299,9.4299,9.4299,9.4299,9.4299,9.4299,9.4299,9.4299,9.4299,9.463,9.4997,9.4997,9.5364,9.5694,9.5694,9.5694,9.5694,9.5694,9.5694,9.5841,9.6282,9.6649,9.7052,9.753,9.7897,9.786,9.7199,9.6282,9.5694,9.5694,9.5694,9.5694,9.5694,9.5694,9.5694,9.5694,9.5694,9.5694,9.5694,9.5254,9.4997,9.4997,9.4556,9.4299,9.4299,9.4299,9.4299,9.4299,9.4299,9.4299,9.4299,9.4299,9.3565,7.4087,7.4583,7.4864,7.5405,7.5946,7.6487,7.7063,7.7773,7.828,7.828,7.845,7.8754,7.9295,7.9397,7.96,8.0107,8.0378,8.0513,8.0513,8.1443,8.1986,8.1647,8.2656,8.3127,8.2444,8.2214,8.2419,8.3143,8.4537,8.5414,8.5659,8.671,8.7533,8.8078,8.8978,8.976,9.0321,9.1245,9.1706,9.1706,9.1706,9.2258,9.3352,9.357,9.4137,9.496,9.496,9.507,9.529,9.529,9.5401,9.5621,9.5621,9.5988,9.6409,9.5841,9.5327,9.496,9.496,9.496,9.496,9.496,9.496,9.4997,9.5217,9.529,9.5327,9.5547,9.6061,9.6483,9.6483,9.6942,9.7346,9.7346,9.7346,9.7346,9.7346,9.7346,9.753,9.8117,9.8227,9.8411,9.8998,9.9108,9.9108,9.9108,9.8117,9.7346,9.7346,9.7346,9.7346,9.7346,9.7346,9.7346,9.7346,9.7346,9.7346,9.7346,9.6813,9.6483,9.6483,9.5731,9.529,9.529,9.507,9.496,9.496,9.496,9.496,9.496,9.496,9.507,7.6589,7.7299,7.7865,7.7899,7.7933,7.7933,7.7967,7.8551,7.9067,7.9067,7.9634,8.0141,8.0175,8.0175,8.0175,8.0209,8.0784,8.1283,8.1283,8.2914,8.3679,8.2495,8.4459,8.5694,8.5204,8.4519,8.4415,8.5153,8.7046,8.8516,8.9285,9.0097,9.0568,9.0604,9.1742,9.2388,9.2424,9.3579,9.4188,9.4188,9.4188,9.4628,9.5454,9.6224,9.6574,9.6612,9.6612,9.7052,9.7806,9.7806,9.8264,9.8941,9.8941,9.8961,9.8978,9.8941,9.797,9.6612,9.6612,9.6612,9.6612,9.6612,9.6612,9.6759,9.753,9.7806,9.7933,9.8741,9.8961,9.8978,9.8978,9.9015,9.9035,9.9035,9.9035,9.9035,9.9035,9.9035,9.9015,9.9071,9.9071,9.9052,9.9108,9.9108,9.9108,9.9108,9.9071,9.9035,9.9035,9.9035,9.9035,9.9035,9.9035,9.9035,9.9035,9.9035,9.9035,9.9035,9.8978,9.8978,9.8978,9.8227,9.7806,9.7806,9.7016,9.6612,9.6612,9.6612,9.6612,9.6612,9.6612,9.7052,7.7536,7.7807,7.8,7.8,7.8348,7.872,7.872,7.9295,7.9837,7.9837,8.004,8.0344,8.0818,8.0919,8.1088,8.1596,8.1866,8.2301,8.3125,8.4198,8.5255,8.6218,8.751,8.8487,8.8838,8.77,8.7243,8.8041,8.9938,9.1197,9.1463,9.2502,9.307,9.307,9.3992,9.4497,9.4497,9.5412,9.6171,9.6685,9.7236,9.764,9.7877,9.819,9.83,9.83,9.83,9.8447,9.8704,9.8704,9.8851,9.9108,9.9108,9.9108,9.9108,9.9108,9.8778,9.83,9.83,9.83,9.83,9.83,9.83,9.8337,9.8631,9.8704,9.8741,9.9035,9.9108,9.9108,9.9108,9.9108,9.9108,9.9108,9.9108,9.9108,9.9108,9.9108,9.9255,9.9805,9.9916,10.0099,10.0613,10.0686,10.0686,10.0686,9.9769,9.9108,9.9108,9.9108,9.9108,9.9108,9.9108,9.9108,9.9108,9.9108,9.9108,9.9108,9.9108,9.9108,9.9108,9.8851,9.8704,9.8704,9.8447,9.83,9.83,9.83,9.83,9.83,9.83,9.8447,7.8382,7.8585,7.8813,7.8813,7.9126,7.9498,7.9498,7.987,8.0209,8.0209,8.0412,8.0716,8.1215,8.1494,8.1832,8.234,8.2821,8.3611,8.4838,8.626,8.7656,8.9002,9.0357,9.1255,9.1327,9.1068,9.0774,9.0591,9.2424,9.3583,9.3583,9.458,9.529,9.5584,9.6098,9.6502,9.6776,9.7309,9.7823,9.8337,9.8851,9.9108,9.9108,9.9108,9.9108,9.9108,9.9108,9.9255,9.9548,9.9548,9.9695,9.9952,9.9952,9.9952,9.9952,9.9952,9.9952,9.9879,9.9292,9.9108,9.9108,9.9108,9.9108,9.9125,9.9438,9.9548,9.9585,9.9879,9.9952,9.9952,9.9952,9.9952,9.9952,9.9952,9.9952,9.9952,9.9952,9.9952,10.0099,10.0613,10.0686,10.0907,10.1404,10.1514,10.1514,10.1514,10.0613,9.9952,9.9952,9.9952,9.9952,9.9952,9.9952,9.9952,9.9952,9.9952,9.9952,9.9952,9.9952,9.9952,9.9952,9.9695,9.9548,9.9548,9.9255,9.9108,9.9108,9.9108,9.9108,9.9108,9.9108,9.9255,7.916,7.9667,8.0209,8.0209,8.0209,8.0209,8.0209,8.0209,8.0209,8.0242,8.0784,8.1317,8.1418,8.2019,8.2579,8.2613,8.3885,8.5282,8.6581,8.9026,9.0756,9.0905,9.2981,9.3939,9.2833,9.4475,9.4814,9.2921,9.4531,9.5602,9.5602,9.6392,9.7163,9.7933,9.797,9.8337,9.9088,9.9145,9.9181,9.9181,9.9218,9.9218,9.9218,9.9218,9.9218,9.9218,9.9218,9.9659,10.0393,10.0393,10.0796,10.1514,10.1514,10.1514,10.1514,10.1514,10.1514,10.131,9.9805,9.9235,9.9218,9.9218,9.9218,9.9365,10.0099,10.0393,10.0503,10.1294,10.1514,10.1514,10.1514,10.1514,10.1514,10.1514,10.1514,10.1587,10.1587,10.1624,10.1604,10.1604,10.1604,10.1604,10.1604,10.1604,10.1604,10.1604,10.1604,10.1587,10.1514,10.1514,10.1514,10.1514,10.1514,10.1514,10.1514,10.1514,10.1514,10.1514,10.1514,10.1514,10.1514,10.0796,10.0393,10.0393,9.9622,9.9218,9.9218,9.9218,9.9218,9.9218,9.9292,9.9695,7.9938,8.0073,8.0209,8.0209,8.0209,8.0209,8.0209,8.0209,8.0344,8.0885,8.1181,8.1655,8.2746,8.3831,8.4747,8.5298,8.6999,8.8685,8.9899,9.1204,9.2592,9.4103,9.4838,9.5306,9.5604,9.666,9.7066,9.6555,9.699,9.7273,9.7273,9.8043,9.8594,9.8778,9.8778,9.8888,9.9108,9.9695,9.9989,9.9989,10.0613,10.0907,10.0907,10.0907,10.0907,10.0907,10.0907,10.098,10.122,10.122,10.1274,10.1514,10.1514,10.1514,10.1514,10.1514,10.1898,10.2301,10.1898,10.1384,10.0907,10.0907,10.0907,10.0907,10.109,10.122,10.12,10.1384,10.1514,10.1514,10.1514,10.1514,10.1514,10.1514,10.1991,10.2412,10.2412,10.2889,10.3293,10.3293,10.3293,10.3293,10.3293,10.3293,10.3293,10.3293,10.3293,10.2909,10.1698,10.1514,10.1514,10.1514,10.1514,10.1514,10.1514,10.1514,10.1514,10.1514,10.1514,10.1514,10.1514,10.1294,10.122,10.122,10.098,10.0907,10.0907,10.0907,10.0907,10.0907,10.1494,10.1898,8.0209,8.0209,8.0209,8.0209,8.0209,8.0276,8.0615,8.0682,8.0885,8.1629,8.2035,8.2784,8.4515,8.5668,8.6773,8.8073,8.953,9.0931,9.2175,9.3043,9.4162,9.5817,9.6355,9.6722,9.7163,9.7933,9.8411,9.8411,9.8411,9.8411,9.8411,9.8851,9.9255,9.9622,9.9622,9.9805,10.0099,10.0613,10.0796,10.0796,10.1294,10.1514,10.1514,10.1918,10.2008,10.2008,10.2375,10.2615,10.2615,10.2615,10.2615,10.2615,10.2615,10.2615,10.2615,10.2615,10.2815,10.3219,10.3219,10.2889,10.2615,10.2615,10.2615,10.2615,10.2615,10.2615,10.2615,10.2615,10.2615,10.2615,10.2615,10.2615,10.2615,10.2615,10.2889,10.3219,10.3219,10.3586,10.388,10.388,10.388,10.388,10.388,10.388,10.388,10.388,10.388,10.3586,10.2726,10.2615,10.2615,10.2615,10.2615,10.2615,10.2615,10.2615,10.2615,10.2615,10.2615,10.2615,10.2615,10.2615,10.2615,10.2615,10.2615,10.2615,10.2615,10.2615,10.2615,10.2615,10.2999,10.3219,8.0209,8.0209,8.0209,8.0209,8.0276,8.0513,8.1148,8.1384,8.1663,8.2408,8.3275,8.4438,8.6326,8.7579,8.8916,9.0649,9.1704,9.2689,9.3798,9.459,9.5503,9.6736,9.7456,9.7933,9.8043,9.8778,9.9255,9.9255,9.9365,9.9365,9.9255,9.9365,9.9732,10.0393,10.0503,10.0796,10.1698,10.1698,10.1698,10.1808,10.1808,10.1808,10.1788,10.2522,10.2889,10.2889,10.3586,10.388,10.388,10.388,10.388,10.388,10.388,10.388,10.388,10.388,10.399,10.41,10.41,10.41,10.421,10.399,10.388,10.388,10.388,10.388,10.388,10.388,10.388,10.388,10.388,10.388,10.388,10.388,10.399,10.41,10.41,10.4194,10.421,10.421,10.421,10.421,10.421,10.421,10.421,10.421,10.421,10.421,10.421,10.399,10.388,10.388,10.388,10.388,10.388,10.388,10.388,10.388,10.388,10.388,10.388,10.388,10.388,10.388,10.388,10.388,10.388,10.388,10.388,10.388,10.399,10.41,8.0209,8.0209,8.0209,8.0209,8.0648,8.1148,8.1283,8.1765,8.2441,8.3152,8.4719,8.6286,8.7305,8.9772,9.1778,9.2114,9.3679,9.4918,9.515,9.5865,9.6712,9.7584,9.7843,9.8154,9.8851,9.9622,10.0099,10.0099,10.0686,10.0796,10.0099,10.0686,10.109,10.1294,10.1294,10.1677,10.2485,10.2485,10.2815,10.3476,10.3476,10.3476,10.3476,10.3586,10.3696,10.3696,10.3806,10.388,10.388,10.388,10.388,10.388,10.388,10.388,10.388,10.388,10.432,10.4908,10.4908,10.5385,10.5678,10.4414,10.388,10.388,10.388,10.388,10.388,10.388,10.388,10.388,10.388,10.388,10.388,10.388,10.4394,10.4908,10.4908,10.5495,10.5993,10.5993,10.5993,10.5993,10.5993,10.5993,10.5993,10.5993,10.5993,10.5993,10.5993,10.4818,10.388,10.388,10.388,10.388,10.388,10.388,10.388,10.388,10.388,10.388,10.388,10.388,10.388,10.388,10.388,10.388,10.388,10.388,10.388,10.388,10.4614,10.4908,8.0209,8.0209,8.0276,8.0682,8.1021,8.152,8.2272,8.2712,8.3496,8.5327,8.6457,8.79,9.0349,9.2086,9.3468,9.4528,9.5496,9.6282,9.6685,9.7089,9.7603,9.8411,9.8888,9.9292,9.9695,10.0503,10.0907,10.0907,10.1677,10.1788,10.1,10.1677,10.2081,10.2081,10.2485,10.2889,10.3293,10.3293,10.3513,10.388,10.388,10.388,10.388,10.432,10.4504,10.4483,10.4981,10.5201,10.5201,10.5201,10.5201,10.5201,10.5201,10.5201,10.5201,10.5201,10.5385,10.5789,10.5789,10.6082,10.6324,10.5516,10.5201,10.5201,10.5201,10.5201,10.5201,10.5201,10.5201,10.5201,10.5201,10.5201,10.5201,10.5201,10.5495,10.5789,10.5789,10.6082,10.6376,10.6376,10.6376,10.6376,10.6376,10.6376,10.6376,10.6376,10.6376,10.6376,10.6376,10.5678,10.5201,10.5201,10.5201,10.5201,10.5201,10.5201,10.5201,10.5201,10.5201,10.5201,10.5201,10.5201,10.5201,10.5201,10.5201,10.5201,10.5201,10.5201,10.5201,10.5201,10.5605,10.5789,8.0209,8.0209,8.0378,8.1114,8.1393,8.1866,8.3186,8.3761,8.4689,8.7194,8.8167,8.9646,9.3064,9.4068,9.4936,9.668,9.6942,9.7236,9.8043,9.8154,9.8447,9.9255,9.9916,10.0393,10.0503,10.109,10.1587,10.1677,10.2485,10.2705,10.2008,10.2595,10.2999,10.2999,10.3586,10.399,10.421,10.421,10.4284,10.4394,10.4394,10.4394,10.4525,10.5091,10.5422,10.5401,10.6082,10.6376,10.6376,10.6376,10.6376,10.6376,10.6376,10.6376,10.6376,10.6376,10.6376,10.6376,10.6376,10.6376,10.6376,10.6376,10.6376,10.6376,10.6376,10.6376,10.6376,10.6376,10.6376,10.6376,10.6376,10.6376,10.6376,10.6376,10.6376,10.6376,10.6376,10.6376,10.6376,10.6376,10.6376,10.6376,10.6376,10.6376,10.6376,10.6376,10.6376,10.6376,10.6376,10.6376,10.6376,10.6376,10.6376,10.6376,10.6376,10.6376,10.6376,10.6376,10.6376,10.6376,10.6376,10.6376,10.6376,10.6376,10.6376,10.6376,10.6376,10.6376,10.6376,10.6376,10.6376,10.6376,8.0209,8.0209,8.0378,8.1114,8.1799,8.2509,8.3321,8.4573,8.5981,8.7402,8.9676,9.1887,9.343,9.5207,9.6736,9.764,9.7806,9.808,9.8888,9.8998,9.9292,10.0099,10.0283,10.0613,10.1274,10.1514,10.1788,10.2522,10.3293,10.3806,10.3696,10.3696,10.3806,10.3806,10.388,10.4284,10.4997,10.4997,10.5422,10.6213,10.6213,10.6213,10.6213,10.6192,10.6302,10.6302,10.6397,10.6376,10.6376,10.6376,10.6376,10.6376,10.6376,10.6376,10.6376,10.6376,10.6376,10.6376,10.6376,10.6376,10.6376,10.6376,10.6376,10.6376,10.6376,10.6376,10.6376,10.6376,10.6376,10.6376,10.6376,10.6376,10.6376,10.6376,10.6376,10.6376,10.6376,10.6376,10.6376,10.6376,10.6376,10.6376,10.6376,10.6376,10.6376,10.6376,10.6376,10.6376,10.6376,10.6376,10.6376,10.6376,10.6376,10.6376,10.6376,10.6376,10.6376,10.6376,10.6376,10.6376,10.6376,10.6376,10.6376,10.6376,10.6376,10.6376,10.6376,10.6376,10.6376,10.6376,10.6376,10.6376,8.0209,8.0513,8.1021,8.1765,8.2509,8.3454,8.4924,8.6122,8.764,9.0087,9.1836,9.3481,9.5203,9.6158,9.6942,9.775,9.7916,9.8337,9.9659,9.9805,10.0099,10.0907,10.098,10.131,10.2118,10.2191,10.2815,10.4006,10.441,10.4908,10.5385,10.4908,10.4614,10.4614,10.5091,10.5605,10.5899,10.5899,10.6082,10.6376,10.6376,10.6376,10.6376,10.6376,10.6376,10.6376,10.6376,10.6376,10.6376,10.6376,10.6376,10.6376,10.6376,10.6376,10.6376,10.6376,10.6376,10.6376,10.6376,10.6376,10.6376,10.6376,10.6376,10.6376,10.6376,10.6376,10.6376,10.6376,10.6376,10.6376,10.6376,10.6376,10.6376,10.6376,10.6376,10.6376,10.6376,10.6376,10.6376,10.6376,10.6376,10.6376,10.6376,10.6376,10.6376,10.6376,10.6376,10.6376,10.6376,10.6376,10.6376,10.6376,10.6376,10.6376,10.6376,10.6376,10.6376,10.6376,10.6376,10.6376,10.6376,10.6376,10.6376,10.6376,10.6376,10.6376,10.6376,10.6376,10.6376,10.6376,10.6376,10.6376,8.0209,8.0716,8.1486,8.2238,8.2949,8.4086,8.6256,8.7434,8.8923,9.2202,9.3476,9.4571,9.6345,9.6906,9.7309,9.8117,9.8447,9.9071,10.0503,10.0706,10.098,10.1808,10.1918,10.2191,10.2999,10.3293,10.3917,10.4997,10.529,10.5789,10.6397,10.5789,10.5495,10.5495,10.6082,10.6376,10.6376,10.6376,10.6376,10.6376,10.6376,10.6376,10.6376,10.6376,10.6376,10.6376,10.6376,10.6376,10.6376,10.6376,10.6376,10.6376,10.6376,10.6376,10.6376,10.6376,10.6376,10.6376,10.6376,10.6376,10.6376,10.6376,10.6376,10.6376,10.6376,10.6376,10.6376,10.6376,10.6376,10.6376,10.6376,10.6376,10.6376,10.6376,10.6376,10.6376,10.6376,10.6376,10.6376,10.6376,10.6376,10.6376,10.6376,10.6376,10.6376,10.6376,10.6376,10.6376,10.6376,10.6376,10.6376,10.6376,10.6376,10.6376,10.6376,10.6376,10.6376,10.6376,10.6376,10.6376,10.6376,10.6376,10.6376,10.6376,10.6376,10.6376,10.6376,10.6376,10.6376,10.6376,10.6376,10.6376,8.0209,8.0716,8.1486,8.2238,8.2949,8.4255,8.7031,8.8266,8.9727,9.3014,9.425,9.5181,9.6455,9.7346,9.8154,9.8961,9.9769,10.0576,10.1404,10.1514,10.1808,10.2595,10.2705,10.2999,10.3806,10.4614,10.5107,10.5107,10.5899,10.6376,10.6376,10.6376,10.6376,10.6376,10.6376,10.6376,10.6376,10.6376,10.6376,10.6376,10.6376,10.6376,10.6376,10.6376,10.6376,10.6376,10.6376,10.6376,10.6376,10.6376,10.6376,10.6376,10.6376,10.6376,10.6376,10.6376,10.6376,10.6376,10.6376,10.6376,10.6376,10.6376,10.6376,10.6376,10.6376,10.6376,10.6376,10.6376,10.6376,10.6376,10.6376,10.6376,10.6376,10.6376,10.6376,10.6376,10.6376,10.6376,10.6376,10.6376,10.6376,10.6376,10.6376,10.6376,10.6376,10.6376,10.6376,10.6376,10.6376,10.6376,10.6376,10.6376,10.6376,10.6376,10.6376,10.6376,10.6376,10.6376,10.6376,10.6376,10.6376,10.6376,10.6376,10.6376,10.6376,10.6376,10.6376,10.6376,10.6376,10.6376,10.6376,10.6376,8.0818,8.1494,8.2238,8.2983,8.4353,8.6074,8.8404,9.0178,9.1986,9.4422,9.5539,9.6223,9.6628,9.7346,9.8154,9.8961,9.9769,10.0576,10.1404,10.1514,10.1808,10.2595,10.3696,10.441,10.4724,10.5495,10.6009,10.6009,10.6192,10.6376,10.6376,10.6376,10.6376,10.6376,10.6376,10.6376,10.6376,10.6376,10.6376,10.6376,10.6376,10.6376,10.6376,10.6376,10.6376,10.6376,10.6376,10.6376,10.6376,10.6376,10.6376,10.6376,10.6376,10.6376,10.6376,10.6376,10.6376,10.6376,10.6376,10.6376,10.6376,10.6376,10.6376,10.6376,10.6376,10.6376,10.6376,10.6376,10.6376,10.6376,10.6376,10.6376,10.6376,10.6376,10.6376,10.6376,10.6376,10.6376,10.6376,10.6376,10.6376,10.6376,10.6376,10.6376,10.6376,10.6376,10.6376,10.6376,10.6376,10.6376,10.6376,10.6376,10.6376,10.6376,10.6376,10.6376,10.6376,10.6376,10.6376,10.6376,10.6376,10.6376,10.6376,10.6376,10.6376,10.6376,10.6376,10.6376,10.6376,10.6376,10.6376,10.6376,8.1114,8.2148,8.3268,8.3994,8.5881,8.8112,9.0161,9.1836,9.3499,9.552,9.6355,9.6795,9.7089,9.7823,9.8631,9.9438,10.0209,10.0907,10.1384,10.1808,10.2375,10.3513,10.4798,10.5605,10.5605,10.6082,10.6376,10.6376,10.6376,10.6376,10.6376,10.6376,10.6376,10.6376,10.6376,10.6376,10.6376,10.6376,10.6376,10.6376,10.6376,10.6376,10.6376,10.6376,10.6376,10.6376,10.6376,10.6376,0.0,10.6376,10.6376,10.6376,10.6376,10.6376,10.6376,10.6376,10.6376,10.6376,10.6376,10.6376,10.6376,10.6376,10.6376,10.6376,10.6376,10.6376,10.6376,10.6376,10.6376,10.6376,10.6376,10.6376,10.6376,10.6376,10.6376,10.6376,10.6376,10.6376,10.6376,10.6376,10.6376,10.6376,10.6376,10.6376,10.6376,10.6376,10.6376,10.6376,10.6376,10.6376,10.6376,10.6376,10.6376,10.6376,10.6376,10.6376,10.6376,10.6376,10.6376,10.6376,10.6376,10.6376,10.6376,10.6376,10.6376,10.6376,10.6376,10.6376,10.6376,10.6376,10.6376,10.6376,0.0,8.2766,8.4383,8.5167,8.7527,9.0112,9.2055,9.3199,0.0,9.6309,9.6759,9.7016,9.7769,9.8594,9.9438,10.0209,10.098,10.1514,10.1514,10.2191,10.3403,10.4887,10.5899,10.6376,10.6376,10.6376,10.6376,10.6376,10.6376,10.6376,10.6376,10.6376,10.6376,10.6376,10.6376,10.6376,10.6376,10.6376,10.6376,10.6376,10.6376,10.6376,10.6376,10.6376,10.6376,10.6376,10.6376,10.6376,10.6376,10.6376,10.6376,10.6376,10.6376,10.6376,10.6376,10.6376,10.6376,10.6376,10.6376,10.6376,10.6376,10.6376,10.6376,10.6376,10.6376,10.6376,10.6376,10.6376,10.6376,10.6376,10.6376,10.6376,10.6376,10.6376,10.6376,10.6376,10.6376,10.6376,10.6376,10.6376,10.6376,10.6376,10.6376,10.6376,10.6376,10.6376,10.6376,10.6376,10.6376,10.6376,10.6376,10.6376,10.6376,10.6376,10.6376,10.6376,10.6376,10.6376,10.6376,10.6376,10.6376,10.6376,10.6376,10.6376,10.6376,10.6376,10.6376,10.6376,10.6376,10.6376,10.6376,10.6376,8.1934,0.0,8.4522,8.5825,8.8525,9.1179,0.0,9.3825,9.5406,9.6481,9.7199,9.7676,9.7879,9.9071,10.0099,10.0283,10.098,10.1514,10.1514,10.2705,10.399,10.4997,10.5899,10.6376,10.6376,10.6376,10.6376,10.6376,10.6376,10.6376,10.6376,10.6376,10.6376,10.6376,10.6376,10.6376,10.6376,10.6376,10.6376,10.6376,10.6376,10.6376,10.6376,10.6376,10.6376,10.6376,10.6376,10.6376,10.6376,10.6376,10.6376,10.6376,10.6376,10.6376,10.6376,10.6376,10.6376,10.6376,10.6376,10.6376,10.6376,10.6376,10.6376,10.6376,10.6376,10.6376,10.6376,10.6376,10.6376,10.6376,10.6376,10.6376,10.6376,10.6376,10.6376,10.6376,10.6376,10.6376,10.6376,10.6376,10.6376,10.6376,10.6376,10.6376,10.6376,10.6376,10.6376,10.6376,10.6376,10.6376,10.6376,10.6376,10.6376,10.6376,10.6376,10.6376,10.6376,10.6376,10.6376,10.6376,10.6376,10.6376,10.6376,10.6376,10.6376,10.6376,10.6376,10.6376,10.6376,10.6376,10.6376,10.6376,8.3034,8.4332,8.5787,8.6954,8.9972,9.2797,9.3234,9.476,9.6171,9.6612,9.7346,9.8007,9.8374,9.9475,10.0393,10.0796,10.12,10.1808,10.2505,10.3696,10.4798,10.5605,10.6082,10.6376,10.6376,10.6376,10.6376,10.6376,10.6376,10.6376,10.6376,10.6376,10.6376,10.6376,10.6376,10.6376,10.6376,10.6376,10.6376,10.6376,10.6376,10.6376,10.6376,10.6376,10.6376,10.6376,10.6376,10.6376,10.6376,10.6376,10.6376,10.6376,10.6376,10.6376,10.6376,10.6376,10.6376,10.6376,10.6376,10.6376,10.6376,10.6376,10.6376,10.6376,10.6376,10.6376,10.6376,10.6376,10.6376,10.6376,10.6376,10.6376,10.6376,10.6376,10.6376,10.6376,10.6376,10.6376,10.6376,10.6376,10.6376,10.6376,10.6376,10.6376,10.6376,10.6376,10.6376,10.6376,10.6376,10.6376,10.6376,10.6376,10.6376,10.6376,10.6376,10.6376,10.6376,10.6376,10.6376,10.6376,10.6376,10.6376,10.6376,10.6376,10.6376,10.6376,10.6376,10.6376,10.6376,10.6376,10.6376,10.6376,8.4036,8.5842,8.7718,8.8491,9.1505,9.4336,9.4446,9.5621,9.6722,9.6869,9.753,9.8337,9.9145,9.9952,10.0686,10.1404,10.1624,10.2191,10.388,10.4687,10.5401,10.6302,10.6376,10.6376,10.6376,10.6376,10.6376,10.6376,10.6376,10.6376,10.6376,10.6376,10.6376,10.6376,10.6376,10.6376,10.6376,10.6376,10.6376,10.6376,10.6376,10.6376,10.6376,10.6376,10.6376,10.6376,10.6376,10.6376,10.6376,10.6376,10.6376,10.6376,10.6376,10.6376,10.6376,10.6376,10.6376,10.6376,10.6376,10.6376,10.6376,10.6376,10.6376,10.6376,10.6376,10.6376,10.6376,10.6376,10.6376,10.6376,10.6376,10.6376,10.6376,10.6376,10.6376,10.6376,10.6376,10.6376,10.6376,10.6376,10.6376,10.6376,10.6376,10.6376,10.6376,10.6376,10.6376,10.6376,10.6376,10.6376,10.6376,10.6376,10.6376,10.6376,10.6376,10.6376,10.6376,10.6376,10.6376,10.6376,10.6376,10.6376,10.6376,10.6376,10.6376,10.6376,10.6376,10.6376,10.6376,10.6376,10.6376,10.6376,8.4175,8.6816,8.976,9.0609,9.2576,9.4483,9.518,9.6025,9.6906,9.7566,9.8374,9.9181,9.9989,10.0796,10.1404,10.1514,10.2081,10.3109,10.4724,10.4997,10.5401,10.6302,10.6376,10.6376,10.6376,10.6376,10.6376,10.6376,10.6376,10.6376,10.6376,10.6376,10.6376,10.6376,10.6376,10.6376,10.6376,10.6376,10.6376,10.6376,10.6376,10.6376,10.6376,10.6376,10.6376,10.6376,10.6376,10.6376,10.6376,10.6376,10.6376,10.6376,10.6376,10.6376,10.6376,10.6376,10.6376,10.6376,10.6376,10.6376,10.6376,10.6376,10.6376,10.6376,10.6376,10.6376,10.6376,10.6376,10.6376,10.6376,10.6376,10.6376,10.6376,10.6376,10.6376,10.6376,10.6376,10.6376,10.6376,10.6376,10.6376,10.6376,10.6376,10.6376,10.6376,10.6376,10.6376,10.6376,10.6376,10.6376,10.6376,10.6376,10.6376,10.6376,10.6376,10.6376,10.6376,10.6376,10.6376,10.6376,10.6376,10.6376,10.6376,10.6376,10.6376,10.6376,10.6376,10.6376,10.6376,10.6376,10.6376,10.6376,8.5656,8.8648,9.1875,9.2696,9.3611,9.452,9.5327,9.6135,9.6942,9.7733,9.8557,9.9365,10.0209,10.1,10.1604,10.2081,10.2815,10.3806,10.4887,10.5495,10.6009,10.6397,10.6376,10.6376,10.6376,10.6376,10.6376,10.6376,10.6376,10.6376,10.6376,10.6376,10.6376,10.6376,10.6376,10.6376,10.6376,10.6376,10.6376,10.6376,10.6376,10.6376,10.6376,10.6376,10.6376,10.6376,10.6376,10.6376,10.6376,10.6376,10.6376,10.6376,10.6376,10.6376,10.6376,10.6376,10.6376,10.6376,10.6376,10.6376,10.6376,10.6376,10.6376,10.6376,10.6376,10.6376,10.6376,10.6376,10.6376,10.6376,10.6376,10.6376,10.6376,10.6376,10.6376,10.6376,10.6376,10.6376,10.6376,10.6376,10.6376,10.6376,10.6376,10.6376,10.6376,10.6376,10.6376,10.6376,10.6376,10.6376,10.6376,10.6376,10.6376,10.6376,10.6376,10.6376,10.6376,10.6376,10.6376,10.6376,10.6376,10.6376,10.6376,10.6376,10.6376,10.6376,10.6376,10.6376,10.6376,10.6376,10.6376,10.6376,8.7301,9.0244,9.3308,9.4079,9.4446,9.4777,9.5621,9.6392,9.7199,9.8007,9.8814,9.9622,10.0393,10.12,10.2081,10.3109,10.3806,10.4504,10.5311,10.6009,10.6376,10.6376,10.6376,10.6376,10.6376,10.6376,10.6376,10.6376,10.6376,10.6376,10.6376,10.6376,10.6376,10.6376,10.6376,10.6376,10.6376,10.6376,10.6376,10.6376,10.6376,10.6376,10.6376,10.6376,10.6376,10.6376,10.6376,10.6376,10.6376,10.6376,10.6376,10.6376,10.6376,10.6376,10.6376,10.6376,10.6376,10.6376,10.6376,10.6376,10.6376,10.6376,10.6376,10.6376,10.6376,10.6376,10.6376,10.6376,10.6376,10.6376,10.6376,10.6376,10.6376,10.6376,10.6376,10.6376,10.6376,10.6376,10.6376,10.6376,10.6376,10.6376,10.6376,10.6376,10.6376,10.6376,10.6376,10.6376,10.6376,10.6376,10.6376,10.6376,10.6376,10.6376,10.6376,10.6376,10.6376,10.6376,10.6376,10.6376,10.6376,10.6376,10.6376,10.6376,10.6376,10.6376,10.6376,10.6376,10.6376,10.6376,10.6376,10.6376,8.8558,9.0888,9.3308,9.4079,9.485,9.5602,9.6428,9.7236,9.8043,9.8851,9.9659,10.0503,10.1294,10.2081,10.3089,10.4724,10.4997,10.529,10.6192,10.6397,10.6376,10.6376,10.6376,10.6376,10.6376,10.6376,10.6376,10.6376,10.6376,10.6376,10.6376,10.6376,10.6376,10.6376,10.6376,10.6376,10.6376,10.6376,10.6376,10.6376,10.6376,10.6376,10.6376,10.6376,10.6376,10.6376,10.6376,10.6376,10.6376,10.6376,10.6376,10.6376,10.6376,10.6376,10.6376,10.6376,10.6376,10.6376,10.6376,10.6376,10.6376,10.6376,10.6376,10.6376,10.6376,10.6376,10.6376,10.6376,10.6376,10.6376,10.6376,10.6376,10.6376,10.6376,10.6376,10.6376,10.6376,10.6376,10.6376,10.6376,10.6376,10.6376,10.6376,10.6376,10.6376,10.6376,10.6376,10.6376,10.6376,10.6376,10.6376,10.6376,10.6376,10.6376,10.6376,10.6376,10.6376,10.6376,10.6376,10.6376,10.6376,10.6376,10.6376,10.6376,10.6376,10.6376,10.6376,10.6376,10.6376,10.6376,10.6376,10.6376,9.0031,9.2091,9.4042,9.485,9.6025,9.6942,9.6722,9.7309,9.8117,9.8924,9.9732,10.0686,10.2008,10.2485,10.3199,10.4813,10.5107,10.5422,10.6302,10.6376,10.6376,10.6376,10.6376,10.6376,10.6376,10.6376,10.6376,10.6376,10.6376,10.6376,10.6376,10.6376,10.6376,10.6376,10.6376,10.6376,10.6376,10.6376,10.6376,10.6376,10.6376,10.6376,10.6376,10.6376,10.6376,10.6376,10.6376,10.6376,10.6376,10.6376,10.6376,10.6376,10.6376,10.6376,10.6376,10.6376,10.6376,10.6376,10.6376,10.6376,10.6376,10.6376,10.6376,10.6376,10.6376,10.6376,10.6376,10.6376,10.6376,10.6376,10.6376,10.6376,10.6376,10.6376,10.6376,10.6376,10.6376,10.6376,10.6376,10.6376,10.6376,10.6376,10.6376,10.6376,10.6376,10.6376,10.6376,10.6376,10.6376,10.6376,10.6376,10.6376,10.6376,10.6376,10.6376,10.6376,10.6376,10.6376,10.6376,10.6376,10.6376,10.6376,10.6376,10.6376,10.6376,10.6376,10.6376,10.6376,10.6376,10.6376,10.6376,10.6376,9.1416,9.3054,9.4483,9.5308,9.6722,9.7769,9.7199,9.7897,9.8814,9.9365,10.0319,10.1494,10.2815,10.3293,10.3896,10.5311,10.5495,10.5715,10.6302,10.6376,10.6376,10.6376,10.6376,10.6376,10.6376,10.6376,10.6376,10.6376,10.6376,10.6376,10.6376,10.6376,10.6376,10.6376,10.6376,10.6376,10.6376,10.6376,10.6376,10.6376,10.6376,10.6376,10.6376,10.6376,10.6376,10.6376,10.6376,10.6376,10.6376,10.6376,10.6376,10.6376,10.6376,10.6376,10.6376,10.6376,10.6376,10.6376,10.6376,10.6376,10.6376,10.6376,10.6376,10.6376,10.6376,10.6376,10.6376,10.6376,10.6376,10.6376,10.6376,10.6376,10.6376,10.6376,10.6376,10.6376,10.6376,10.6376,10.6376,10.6376,10.6376,10.6376,10.6376,10.6376,10.6376,10.6376,10.6376,10.6376,10.6376,10.6376,10.6376,10.6376,10.6376,10.6376,10.6376,10.6376,10.6376,10.6376,10.6376,10.6376,10.6376,10.6376,10.6376,10.6376,10.6376,10.6376,10.6376,10.6376,10.6376,10.6376,10.6376,10.6376,9.2648,9.3712,9.4483,9.5308,9.6722,9.7916,9.7916,9.9145,10.0283,10.0283,10.1604,10.2925,10.3806,10.4614,10.5422,10.6302,10.6376,10.6376,10.6376,10.6376,10.6376,10.6376,10.6376,10.6376,10.6376,10.6376,10.6376,10.6376,10.6376,10.6376,10.6376,10.6376,10.6376,10.6376,10.6376,10.6376,10.6376,10.6376,10.6376,10.6376,10.6376,10.6376,10.6376,10.6376,10.6376,10.6376,10.6376,10.6376,10.6376,10.6376,10.6376,10.6376,10.6376,10.6376,10.6376,10.6376,10.6376,10.6376,10.6376,10.6376,10.6376,10.6376,10.6376,10.6376,10.6376,10.6376,10.6376,10.6376,10.6376,10.6376,10.6376,10.6376,10.6376,10.6376,10.6376,10.6376,10.6376,10.6376,10.6376,10.6376,10.6376,10.6376,10.6376,10.6376,10.6376,10.6376,10.6376,10.6376,10.6376,10.6376,10.6376,10.6376,10.6376,10.6376,10.6376,10.6376,10.6376,10.6376,10.6376,10.6376,10.6376,10.6376,10.6376,10.6376,10.6376,10.6376,10.6376,10.6376,10.6376,10.6376,10.6376,10.6376,9.3639,9.452,9.5364,9.6135,9.7566,9.8741,9.8741,9.9548,10.0503,10.098,10.2008,10.2925,10.3806,10.4614,10.5422,10.6302,10.6376,10.6376,10.6376,10.6376,10.6376,10.6376,10.6376,10.6376,10.6376,10.6376,10.6376,10.6376,10.6376,10.6376,10.6376,10.6376,10.6376,10.6376,10.6376,10.6376,10.6376,10.6376,10.6376,10.6376,10.6376,10.6376,10.6376,10.6376,10.6376,10.6376,10.6376,10.6376,10.6376,10.6376,10.6376,10.6376,10.6376,10.6376,10.6376,10.6376,10.6376,10.6376,10.6376,10.6376,10.6376,10.6376,10.6376,10.6376,10.6376,10.6376,10.6376,10.6376,10.6376,10.6376,10.6376,10.6376,10.6376,10.6376,10.6376,10.6376,10.6376,10.6376,10.6376,10.6376,10.6376,10.6376,10.6376,10.6376,10.6376,10.6376,10.6376,10.6376,10.6376,10.6376,10.6376,10.6376,10.6376,10.6376,10.6376,10.6376,10.6376,10.6376,10.6376,10.6376,10.6376,10.6376,10.6376,10.6376,10.6376,10.6376,10.6376,10.6376,10.6376,10.6376,10.6376,10.6376,9.4079,9.4887,9.5749,9.6906,9.8154,9.9292,9.9916,10.0393,10.0907,10.1404,10.2375,10.3293,10.3806,10.4798,10.5789,10.6302,10.6376,10.6376,10.6376,10.6376,10.6376,10.6376,10.6376,10.6376,10.6376,10.6376,10.6376,10.6376,10.6376,10.6376,10.6376,10.6376,10.6376,10.6376,10.6376,10.6376,10.6376,10.6376,10.6376,10.6376,10.6376,10.659,10.6925,10.6512,10.6376,10.6376,10.6376,10.6376,10.6376,10.6376,10.6376,10.6376,10.6376,10.6574,10.6888,10.7314,10.7593,10.7921,10.7918,10.7905,10.7905,10.7905,10.7589,10.7405,10.7388,10.7203,10.6807,10.6502,10.6376,10.6376,10.6376,10.6376,10.6376,10.6376,10.6376,10.6376,10.6376,10.6376,10.6376,10.6376,10.6376,10.6376,10.6376,10.6376,10.6376,10.6376,10.6376,10.6376,10.6376,10.6376,10.6376,10.6376,10.6376,10.6376,10.6376,10.6376,10.6376,10.6376,10.6376,10.6376,10.6376,10.6376,10.6376,10.6376,10.6376,10.6376,10.6376,10.6376,10.6376,10.6376,10.6376,10.6376,9.4189,9.4997,9.5988,9.753,9.8557,9.9622,10.109,10.1514,10.1514,10.1624,10.2779,10.388,10.399,10.5311,10.6376,10.6376,10.6376,10.6376,10.6376,10.6376,10.6376,10.6376,10.6376,10.6376,10.6376,10.6376,10.6376,10.6376,10.6376,10.6376,10.6376,10.6376,10.6376,10.6376,10.6376,10.6376,10.6376,10.6376,10.6402,10.6507,10.6507,10.6894,10.7701,10.6787,10.6376,10.6397,10.6606,10.659,10.6507,10.6611,10.6689,10.6689,10.6689,10.722,10.7999,10.8801,10.958,11.0283,11.0194,11.0181,11.0181,11.0181,10.9715,10.9025,10.9099,10.8502,10.7703,10.7012,10.6689,10.6615,10.6615,10.6615,10.6615,10.6615,10.6486,10.6376,10.6376,10.6376,10.6376,10.6376,10.6376,10.6376,10.6376,10.6376,10.6376,10.6376,10.6376,10.6376,10.6376,10.6376,10.6376,10.6376,10.6376,10.6376,10.6376,10.6376,10.6376,10.6376,10.6376,10.6376,10.6376,10.6376,10.6376,10.6376,10.6376,10.6376,10.6376,10.6376,10.6376,10.6376,10.6376,10.6376,9.5034,9.5841,9.6685,9.764,9.8961,10.0283,10.1294,10.1514,10.1698,10.2301,10.3182,10.41,10.4724,10.5715,10.6376,10.6376,10.6376,10.6376,10.6376,10.6376,10.6376,10.6376,10.6376,10.6376,10.6376,10.6376,10.6376,10.6376,10.6376,10.6376,10.6376,10.6376,10.6376,10.6376,10.6376,10.6376,10.6376,10.6376,10.6702,10.7309,10.7309,10.7793,10.8606,10.7089,10.6376,10.6481,10.7793,10.799,10.7403,10.8096,10.8783,10.9418,10.9418,10.9913,11.0587,11.0775,11.1021,11.1114,11.1106,11.1114,11.1114,11.1114,11.1001,11.0796,11.0888,11.0324,10.9579,10.9377,10.8913,10.8408,10.8408,10.8408,10.8408,10.8408,10.7382,10.6376,10.6376,10.6376,10.6376,10.6376,10.6376,10.6376,10.6376,10.6376,10.6376,10.6376,10.6376,10.6376,10.6376,10.6376,10.6376,10.6376,10.6376,10.6376,10.6376,10.6376,10.6376,10.6376,10.6376,10.6376,10.6376,10.6376,10.6376,10.6376,10.6376,10.6376,10.6376,10.6376,10.6376,10.6376,10.6376,10.6376,9.5382,9.6392,9.7566,9.8741,9.9952,10.098,10.1404,10.1808,10.2301,10.3109,10.3586,10.41,10.5018,10.5789,10.6376,10.6376,10.6376,10.6376,10.6376,10.6376,10.6376,10.6376,10.6376,10.6376,10.6376,10.6376,10.6376,10.6376,10.6376,10.6376,10.6376,10.6376,10.6376,10.6376,10.6783,10.699,10.699,10.7402,10.7793,10.8196,10.8196,10.8489,10.8899,10.799,10.761,10.761,10.8485,10.8898,10.8902,10.9281,11.0019,11.079,11.079,11.1308,11.2098,11.2493,11.2918,11.3287,11.3219,11.3199,11.3199,11.3199,11.2895,11.2577,11.2592,11.2098,11.1288,11.0902,11.0208,10.9512,10.9512,10.9195,10.8893,10.8893,10.8216,10.761,10.761,10.7305,10.699,10.699,10.6714,10.6376,10.6376,10.6376,10.6376,10.6376,10.6376,10.6376,10.6376,10.6376,10.6376,10.6376,10.6376,10.6606,10.6894,10.6615,10.6685,10.7498,10.7191,10.7207,10.7591,10.761,10.7209,10.6397,10.6376,10.6376,10.6376,10.6376,10.6376,10.6376,10.6376,10.6595,9.5841,9.7089,9.8631,9.9952,10.0907,10.1514,10.1514,10.2081,10.2925,10.3696,10.399,10.4394,10.5201,10.5899,10.6376,10.6376,10.6376,10.6376,10.6376,10.6376,10.6376,10.6376,10.6376,10.6376,10.6376,10.6376,10.6376,10.6376,10.6376,10.6518,10.6595,10.6595,10.6698,10.6787,10.7498,10.7809,10.7809,10.8497,10.8994,10.9112,10.9288,10.9311,10.9311,10.9311,10.9196,10.8909,10.9394,10.9894,11.0391,11.0697,11.1288,11.2099,11.2099,11.2599,11.3391,11.4206,11.4908,11.5493,11.5421,11.5402,11.5402,11.5402,11.4905,11.4409,11.4397,11.3786,11.3003,11.228,11.1478,11.078,11.0705,11.0083,10.95,10.9386,10.9311,10.9311,10.8994,10.8316,10.7809,10.7809,10.7287,10.6807,10.6807,10.6807,10.6807,10.6807,10.6807,10.6807,10.6807,10.6807,10.6807,10.6807,10.6807,10.7092,10.7774,10.7191,10.7384,10.8797,10.8196,10.8089,10.8899,10.8893,10.8196,10.6921,10.6807,10.6779,10.6595,10.6595,10.6595,10.6595,10.6595,10.6996,9.7199,9.8741,9.9989,10.0209,10.0907,10.1514,10.1514,10.2081,10.2925,10.3696,10.4504,10.5201,10.6082,10.6302,10.6376,10.6376,10.6376,10.6376,10.6376,10.6376,10.6376,10.6376,10.6376,10.6376,10.6376,10.6376,10.6376,10.6376,10.6376,10.6702,10.7385,10.7404,10.7793,10.8518,10.8688,10.8716,10.8716,10.8791,10.9288,11.0003,11.0788,11.1201,11.1201,11.1201,11.0307,10.901,11.1213,11.1785,11.1405,11.2917,11.3976,11.4794,11.4794,11.5302,11.5986,11.6101,11.6197,11.628,11.6278,11.6293,11.6293,11.6293,11.6217,11.6217,11.6178,11.5602,11.4898,11.4818,11.4218,11.3285,11.2594,11.2287,11.2007,11.1316,11.1201,11.0713,10.9205,10.8797,10.8716,10.8716,10.858,10.861,10.861,10.861,10.861,10.861,10.861,10.861,10.861,10.861,10.861,10.861,10.861,10.8585,10.8699,10.8601,10.8726,10.8915,10.8781,10.8802,10.8877,10.8893,10.8818,10.8589,10.861,10.8199,10.7404,10.7404,10.7404,10.7404,10.7404,10.7881,9.8154,9.9402,10.0393,10.0927,10.12,10.1604,10.2081,10.2815,10.3586,10.4394,10.5201,10.5899,10.6302,10.6376,10.6376,10.6376,10.6376,10.6376,10.6376,10.6376,10.6376,10.6376,10.6376,10.6376,10.6376,10.6376,10.6611,10.6996,10.7109,10.7404,10.8302,10.8316,10.8502,10.8915,10.9379,10.9614,10.9614,11.0096,11.0487,11.0896,11.1314,11.1511,11.1511,11.2022,11.1807,11.1098,11.221,11.2993,11.3615,11.4383,11.5215,11.5995,11.5995,11.6187,11.6495,11.6495,11.6495,11.6495,11.6495,11.6495,11.6495,11.6495,11.6495,11.6495,11.6495,11.6303,11.5995,11.5995,11.5407,11.4484,11.3714,11.3099,11.2511,11.1703,11.1511,11.1302,11.05,10.9987,10.9483,10.8988,10.8893,10.8893,10.8893,10.8893,10.8893,10.8893,10.8893,10.8893,10.8893,10.8893,10.8893,10.8893,10.8893,10.9081,10.9623,10.9196,10.9281,11.0294,10.9893,10.9799,11.0282,11.0409,11.0409,11.0409,10.8909,10.8196,10.8316,10.779,10.7883,10.8316,10.8316,10.8797,9.9035,9.9989,10.0686,10.1404,10.1514,10.1677,10.2522,10.3293,10.41,10.4887,10.5789,10.6376,10.6376,10.6376,10.6376,10.6376,10.6376,10.6376,10.6376,10.6376,10.6376,10.6376,10.6376,10.6502,10.6698,10.6702,10.6996,10.7901,10.788,10.8299,10.9196,10.9205,10.9296,10.9579,11.0214,11.0513,11.0513,11.1185,11.1511,11.1511,11.1511,11.1588,11.178,11.2406,11.2896,11.3407,11.3407,11.4099,11.5291,11.5484,11.5995,11.6495,11.6495,11.6495,11.6495,11.6495,11.6495,11.6495,11.6495,11.6495,11.6495,11.6495,11.6495,11.6495,11.6495,11.6495,11.6495,11.6495,11.611,11.5407,11.4599,11.3714,11.2791,11.2022,11.1588,11.1511,11.1511,11.1008,11.0282,10.9695,10.9579,10.9579,10.9579,10.9579,10.9579,10.9579,10.9579,10.9579,10.9579,10.9579,10.9579,10.9579,10.9579,10.9785,11.0513,10.9907,11.0096,11.138,11.0898,11.0812,11.15,11.1511,11.1511,11.1511,10.9416,10.8622,10.9205,10.8622,10.8585,10.9205,10.9205,10.971,9.9989,10.0796,10.1384,10.1514,10.1514,10.1677,10.2522,10.3293,10.41,10.4887,10.5789,10.6376,10.6376,10.6376,10.6376,10.6376,10.6376,10.6376,10.6376,10.6376,10.6376,10.6376,10.6376,10.6681,10.7498,10.7517,10.7881,10.8802,10.8775,10.9189,11.0082,11.0085,11.05,11.1286,11.1418,11.1391,11.1391,11.15,11.1511,11.1511,11.1511,11.1895,11.2588,11.2714,11.3599,11.5187,11.5187,11.5215,11.5418,11.6099,11.6495,11.6495,11.6495,11.6495,11.6495,11.6495,11.6495,11.6495,11.6495,11.6495,11.6495,11.6495,11.6495,11.6495,11.6495,11.6495,11.6495,11.6495,11.6495,11.6303,11.5407,11.4599,11.3714,11.2791,11.2099,11.1511,11.1511,11.1489,11.138,11.1396,11.1385,11.1385,11.1385,11.1385,11.1385,11.1385,11.1385,11.1385,11.1385,11.1385,11.1385,11.1385,11.1385,11.1396,11.1391,11.1407,11.1418,11.1511,11.1489,11.1489,11.1511,11.1511,11.1511,11.1511,11.0614,11.0096,11.0085,11.0096,11.0096,11.0085,11.0085,11.0614,10.0099,10.0907,10.1514,10.1514,10.1514,10.1788,10.3182,10.3696,10.4284,10.5678,10.6192,10.6376,10.6376,10.6376,10.6376,10.6376,10.6376,10.6376,10.6376,10.6376,10.6611,10.7094,10.7209,10.7498,10.8408,10.838,10.8797,10.9695,10.97,11.0109,11.1008,11.1005,11.1185,11.1511,11.1511,11.1511,11.1511,11.1511,11.1511,11.1511,11.2011,11.2406,11.2703,11.3907,11.4714,11.5291,11.5792,11.611,11.611,11.6418,11.6495,11.6495,11.6495,11.6495,11.6495,11.6495,11.6495,11.6495,11.6495,11.6495,11.6495,11.6495,11.6495,11.6495,11.6495,11.6495,11.6495,11.6495,11.6495,11.6303,11.5495,11.511,11.4484,11.3022,11.2088,11.1511,11.1511,11.1511,11.1511,11.1511,11.1511,11.1511,11.1511,11.1511,11.1511,11.1511,11.1511,11.1511,11.1511,11.1511,11.1511,11.1511,11.1511,11.1511,11.1511,11.1511,11.1511,11.1511,11.1511,11.1511,11.1511,11.1511,11.1511,11.1511,11.1197,11.1005,11.1005,11.0513,11.0487,11.1005,11.1005,11.1197,10.0503,10.111,10.1514,10.1514,10.1698,10.2322,10.3586,10.41,10.4687,10.6082,10.6376,10.6376,10.6376,10.6376,10.6376,10.6376,10.6376,10.6376,10.6376,10.6599,10.701,10.7517,10.7883,10.8405,10.9311,10.9311,10.971,11.0589,11.0601,11.0898,11.15,11.1511,11.1511,11.1511,11.1511,11.1511,11.1511,11.1511,11.1511,11.1511,11.228,11.2906,11.3214,11.4599,11.5407,11.5676,11.6303,11.6495,11.6495,11.6495,11.6495,11.6495,11.6495,11.6495,11.6495,11.6495,11.6495,11.6495,11.6495,11.6495,11.6495,11.6495,11.6495,11.6495,11.6495,11.6495,11.6495,11.6495,11.6495,11.6418,11.5792,11.5291,11.4484,11.3022,11.2088,11.1511,11.1511,11.1511,11.1511,11.1511,11.1511,11.1511,11.1511,11.1511,11.1511,11.1511,11.1511,11.1511,11.1511,11.1511,11.1511,11.1511,11.1511,11.1511,11.1511,11.1511,11.1511,11.1511,11.1511,11.1511,11.1511,11.1511,11.1511,11.1511,11.1511,11.1511,11.1511,11.0884,11.0896,11.1511,11.1511,11.1511,0.0,0.0,0.0,10.1514,10.2081,10.2889,10.3696,10.4504,10.529,10.6192,10.6376,10.6376,10.6376,10.6418,10.6402,10.6402,10.6402,10.6402,10.6402,10.7074,10.7609,10.7591,10.8405,10.9311,11.0188,11.0216,11.0601,11.1391,11.1511,11.1511,11.1511,11.1511,11.1511,11.1511,11.1511,11.1511,11.1511,11.1511,11.1511,11.1511,11.228,11.3214,11.3984,11.4907,11.5803,11.6495,11.6495,11.6495,11.6495,11.6495,11.6495,11.6495,11.6495,11.6495,11.6495,11.6495,11.6495,11.6495,11.6495,11.6495,11.6495,11.6495,11.6495,11.6495,11.6495,11.6495,11.6495,11.6495,11.6495,11.6495,11.6495,11.5291,11.3791,11.2896,11.2088,11.1511,11.1511,11.1511,11.1511,11.1511,11.1511,11.1511,11.1511,11.1511,11.1511,11.1511,11.1511,11.1511,11.1511,11.1511,11.1511,11.1511,11.1511,11.1511,11.1511,11.1511,11.1511,11.1511,11.1511,11.1511,11.1511,11.1511,11.1511,11.1511,11.1511,11.1511,11.1511,11.1511,11.1511,11.1511,11.1511,11.1511,10.1294,0.0,0.0,0.0,0.0,0.0,10.3696,10.4504,10.529,10.6192,10.6376,10.6376,10.6376,10.6888,10.7287,10.7287,10.7287,10.7287,10.7287,10.7498,10.779,10.8489,10.8786,10.9483,11.102,11.1113,11.1192,11.15,11.1511,11.1511,11.1511,11.1511,11.1511,11.1511,11.1511,11.1511,11.1511,11.1511,11.1511,11.1511,11.2983,11.3791,11.3984,11.5484,11.6303,11.6495,11.6495,11.6495,11.6495,11.6495,11.6495,11.6495,11.6495,11.6495,11.6495,11.6495,11.6495,11.6495,11.6495,11.6495,11.6495,11.6495,11.6495,11.6495,11.6495,11.6495,11.6495,11.6495,11.6495,11.6495,11.6495,11.5676,11.4714,11.3791,11.2983,11.2203,11.1588,11.1511,11.1511,11.1511,11.1511,11.1511,11.1511,11.1511,11.1511,11.1511,11.1511,11.1511,11.1511,11.1511,11.1511,11.1511,11.1511,11.1511,11.1511,11.1511,11.1511,11.1511,11.1511,11.1511,11.1511,11.1511,11.1511,11.1511,11.1511,11.1511,11.1511,11.1511,11.1511,11.1511,11.1511,11.1511,10.1404,10.1514,10.1587,10.1898,0.0,0.0,10.421,10.4997,10.5789,10.6302,10.6677,10.6891,10.6891,10.761,10.8285,10.858,10.8683,10.8589,10.8216,10.8489,10.8915,10.9394,10.9805,11.0397,11.1407,11.1511,11.1511,11.1511,11.1511,11.1511,11.1511,11.1511,11.1511,11.1511,11.1511,11.1511,11.1511,11.1511,11.1511,11.1511,11.3214,11.3984,11.4099,11.5715,11.6495,11.6495,11.6495,11.6495,11.6495,11.6495,11.6495,11.6495,11.6495,11.6495,11.6495,11.6495,11.6495,11.6495,11.6495,11.6495,11.6495,11.6495,11.6495,11.6495,11.6495,11.6495,11.6495,11.6495,11.6495,11.6495,11.6495,11.5918,11.5187,11.4714,11.3907,11.3022,11.2214,11.2022,11.1895,11.1588,11.1511,11.1511,11.1511,11.1511,11.1511,11.1511,11.1511,11.1511,11.1511,11.1511,11.1511,11.1511,11.1511,11.1511,11.1511,11.1511,11.1511,11.1511,11.1511,11.1511,11.1511,11.1511,11.1511,11.1511,11.1511,11.1511,11.1511,11.1511,11.1511,11.1511,11.1511,11.1511,10.1514,0.0,0.0,10.2522,10.3403,0.0,10.4887,10.5789,10.6376,10.6376,10.7008,10.7516,10.7516,10.8181,10.9003,10.9795,11.012,10.9921,10.9219,10.9686,11.0176,11.0176,11.0898,11.1407,11.1511,11.1511,11.1511,11.1511,11.1511,11.1511,11.1511,11.1511,11.1511,11.1511,11.1511,11.1511,11.1511,11.1511,11.1511,11.1703,11.3214,11.3984,11.4099,11.5715,11.6495,11.6418,11.6495,11.6495,11.6495,11.6495,11.6495,11.6495,11.6495,11.6495,11.6495,11.6495,11.6495,11.6495,11.6495,11.6495,11.6495,11.6495,11.6495,11.6495,11.6495,11.6495,11.6495,11.6495,11.6495,11.6495,11.6495,11.5995,11.5407,11.5291,11.4714,11.3907,11.3022,11.2791,11.2588,11.1895,11.1588,11.1511,11.1511,11.1511,11.1511,11.1511,11.1511,11.1511,11.1511,11.1511,11.1511,11.1511,11.1511,11.1511,11.1511,11.1511,11.1511,11.1511,11.1511,11.1511,11.1511,11.1511,11.1511,11.1511,11.1511,11.1511,11.1511,11.1511,11.1511,11.1511,11.1511,11.1511,0.0,0.0,0.0,0.0,10.3806,0.0,10.5107,10.5789,10.6376,10.6376,10.6491,10.6599,10.6599,10.7289,10.7899,10.8094,10.9303,11.0098,10.9987,11.0096,11.0176,11.0176,11.0384,11.0713,11.1391,11.1511,11.1511,11.1511,11.1511,11.1511,11.1511,11.1511,11.1511,11.1511,11.1511,11.1511,11.1511,11.1511,11.178,11.2522,11.3483,11.3984,11.4099,11.5715,11.6099,11.561,11.6187,11.6495,11.6495,11.6495,11.6495,11.6495,11.6495,11.6495,11.6495,11.6495,11.6495,11.6495,11.6495,11.6495,11.6495,11.6495,11.6495,11.6495,11.6495,11.6495,11.6495,11.6495,11.6495,11.6495,11.6495,11.6418,11.611,11.5495,11.5187,11.4791,11.3907,11.3714,11.3714,11.3483,11.2406,11.1511,11.1511,11.1511,11.1511,11.1511,11.1511,11.1511,11.1511,11.1511,11.1511,11.1511,11.1511,11.1511,11.1511,11.1511,11.1511,11.1511,11.1511,11.1511,11.1511,11.1511,11.1511,11.1511,11.1511,11.1511,11.1511,11.1511,11.1511,11.1511,11.1511,11.1511,0.0,0.0,0.0,10.3696,0.0,0.0,0.0,10.6082,10.6376,10.6376,10.6722,10.701,10.701,10.7702,10.8193,10.8193,10.9288,11.0176,11.0176,11.0589,11.0798,11.0798,11.0798,11.0993,11.1489,11.1511,11.1511,11.1511,11.1511,11.1511,11.1511,11.1511,11.1511,11.1511,11.1511,11.1511,11.1511,11.1511,11.1703,11.2088,11.2983,11.3407,11.3407,11.4714,11.5291,11.5291,11.5676,11.6099,11.6495,11.6495,11.6495,11.6495,11.6495,11.6495,11.6495,11.6495,11.6495,11.6495,11.6495,11.6495,11.6495,11.6495,11.6495,11.6495,11.6495,11.6495,11.6495,11.6495,11.6495,11.6495,11.6495,11.6495,11.6418,11.5995,11.5918,11.5687,11.4791,11.4599,11.4484,11.4099,11.3291,11.2714,11.2714,11.2714,11.2599,11.2214,11.2088,11.2022,11.1588,11.1511,11.1511,11.1511,11.1511,11.1511,11.1511,11.1511,11.1511,11.1511,11.1511,11.1511,11.1511,11.1511,11.1511,11.1511,11.1511,11.1511,11.1511,11.1511,11.1511,11.1511,11.1511,11.1511,0.0,0.0,0.0,0.0,0.0,10.5495,0.0,0.0,0.0,10.6376,10.6911,10.7384,10.7384,10.7917,10.8309,10.78,10.8788,10.9496,10.9092,11.0194,11.1101,11.1489,11.1511,11.1511,11.1511,11.1511,11.1511,11.1511,11.1511,11.1511,11.1511,11.1511,11.1511,11.1511,11.1511,11.1511,11.1511,11.1511,11.1588,11.1703,11.2406,11.2714,11.2703,11.3791,11.4484,11.511,11.5407,11.5918,11.6495,11.6495,11.6495,11.6495,11.6495,11.6495,11.6495,11.6495,11.6495,11.6495,11.6495,11.6495,11.6495,11.6495,11.6495,11.6495,11.6495,11.6495,11.6495,11.6495,11.6495,11.6495,11.6495,11.6495,11.6495,11.6495,11.6495,11.6303,11.5687,11.5484,11.5291,11.4599,11.4484,11.4407,11.4099,11.3984,11.3791,11.3099,11.2983,11.2714,11.2099,11.2022,11.2022,11.2022,11.2022,11.2022,11.2022,11.2022,11.2022,11.2022,11.2022,11.2022,11.2022,11.2022,11.2022,11.2022,11.2022,11.2022,11.2022,11.2022,11.178,11.1511,11.1511,11.1511,0.0,0.0,0.0,0.0,10.5715,0.0,0.0,0.0,10.6376,10.6376,0.0,10.6491,10.6491,0.0,0.0,10.3824,10.5916,10.7114,10.4982,10.7311,10.9805,11.1314,11.1511,11.1511,11.1511,11.1511,11.1511,11.1511,11.1511,11.1511,11.1511,11.1511,11.1511,11.1511,11.1511,11.1511,11.1511,11.1511,11.1906,11.2599,11.2714,11.2714,11.2791,11.4407,11.4791,11.4214,11.5676,11.6418,11.6495,11.6495,11.6495,11.6495,11.6495,11.6495,11.6495,11.6495,11.6495,11.6495,11.6495,11.6495,11.6495,11.6495,11.6495,11.6495,11.6495,11.6495,11.6495,11.6495,11.6495,11.6495,11.6495,11.6495,11.6495,11.6495,11.6495,11.6495,11.6418,11.6418,11.6303,11.6176,11.6187,11.5715,11.4291,11.3984,11.3984,11.3907,11.3907,11.3791,11.3714,11.3714,11.3714,11.3714,11.3714,11.3714,11.3714,11.3714,11.3714,11.3714,11.3714,11.3714,11.3714,11.3714,11.3714,11.3714,11.3714,11.3714,11.3714,11.3714,11.2983,11.1511,11.1511,11.1511,0.0,0.0,0.0,0.0,0.0,0.0,0.0,0.0,10.6376,0.0,0.0,0.0,0.0,0.0,0.0,0.0,10.6425,10.7181,10.6194,10.7712,10.9181,10.9893,11.0411,11.0908,11.1489,11.1511,11.1511,11.1511,11.1511,11.1511,11.1511,11.1511,11.1511,11.1511,11.1511,11.1511,11.1511,11.1511,11.1703,11.2022,11.2022,11.2203,11.2714,11.3483,11.4099,11.4791,11.5484,11.611,11.6495,11.6495,11.6495,11.6495,11.6495,11.6495,11.6495,11.6495,11.6495,11.6495,11.6495,11.6495,11.6495,11.6495,11.6495,11.6495,11.6495,11.6495,11.6495,11.6495,11.6495,11.6495,11.6495,11.6495,11.6495,11.6495,11.6495,11.6495,11.6495,11.6495,11.6495,11.6495,11.6495,11.6303,11.561,11.5495,11.5291,11.4791,11.4791,11.4599,11.4099,11.3984,11.3984,11.3984,11.3984,11.3984,11.3984,11.3984,11.3984,11.3984,11.3984,11.3984,11.3984,11.3984,11.3984,11.3984,11.3984,11.3984,11.3984,11.3984,11.3599,11.2983,11.2983,11.2983,10.5311,0.0,0.0,0.0,0.0,0.0,0.0,0.0,0.0,0.0,10.6376,0.0,0.0,0.0,10.6213,10.5495,0.0,10.6991,10.6416,10.74,10.8388,10.8791,10.9695,11.0411,11.1116,11.1385,11.1511,11.1511,11.1511,11.1511,11.1511,11.1511,11.1511,11.1511,11.1511,11.1511,11.1511,11.1511,11.1511,11.1511,11.1511,11.178,11.2406,11.2791,11.3714,11.4984,11.5407,11.5995,11.6495,11.6495,11.6495,11.6495,11.6495,11.6495,11.6495,11.6495,11.6495,11.6495,11.6495,11.6495,11.6495,11.6495,11.6495,11.6495,11.6495,11.6495,11.6495,11.6495,11.6495,11.6495,11.6495,11.6495,11.6495,11.6495,11.6495,11.6495,11.6495,11.6495,11.6495,11.6495,11.6495,11.6495,11.6495,11.6495,11.6303,11.5676,11.561,11.5407,11.4791,11.4714,11.4714,11.4714,11.4714,11.4714,11.4714,11.4714,11.4714,11.4714,11.4714,11.4714,11.4714,11.4714,11.4714,11.4714,11.4714,11.4714,11.4714,11.4714,11.4714,11.4714,11.4214,11.3984,0.0,0.0,0.0,10.6376,0.0,0.0,0.0,0.0,10.6376,0.0,0.0,0.0,10.6376,10.6376,10.5605,0.0,10.4912,0.0,0.0,10.4917,10.7089,10.8683,10.9695,11.019,11.0216,11.0981,11.1511,11.1511,11.1511,11.1511,11.1511,11.1511,11.1511,11.1511,11.1511,11.1511,11.1511,11.1511,11.1511,11.1511,11.1511,11.1511,11.1588,11.3214,11.3984,11.4099,11.5803,11.6495,11.6495,11.6495,11.6495,11.6495,11.6495,11.6495,11.6495,11.6495,11.6495,11.6495,11.6495,11.6495,11.6495,11.6495,11.6495,11.6495,11.6495,11.6495,11.6495,11.6495,11.6495,11.6495,11.6495,11.6495,11.6495,11.6495,11.6495,11.6495,11.6495,11.6495,11.6495,11.6495,11.6495,11.6495,11.6495,11.6495,11.6495,11.6495,11.6495,11.6495,11.6418,11.6418,11.6418,11.6418,11.6418,11.6418,11.6418,11.6418,11.6418,11.6418,11.6418,11.6418,11.6418,11.6418,11.6418,11.6418,11.6418,11.6418,11.6418,11.6418,11.6418,11.6418,11.4791,11.3984,0.0,0.0,10.6376,10.6376,0.0,0.0,0.0,0.0,0.0,0.0,0.0,0.0,0.0,0.0,0.0,0.0,0.0,10.6082,0.0,10.592,10.6595,10.7207,10.799,10.8887,11.0096,11.0513,11.0898,11.1489,11.1511,11.1511,11.1511,11.1511,11.1511,11.1511,11.1511,11.1511,11.1511,11.1511,11.1511,11.1511,11.1511,11.178,11.228,11.3483,11.4291,11.4907,11.5995,11.6495,11.6495,11.6495,11.6495,11.6495,11.6495,11.6495,11.6495,11.6495,11.6495,11.6495,11.6495,11.6495,11.6495,11.6495,11.6495,11.6495,11.6495,11.6495,11.6495,11.6495,11.6495,11.6495,11.6495,11.6495,11.6495,11.6495,11.6495,11.6495,11.6495,11.6495,11.6495,11.6495,11.6495,11.6495,11.6495,11.6495,11.6495,11.6495,11.6495,11.6495,11.6495,11.6495,11.6495,11.6495,11.6495,11.6495,11.6495,11.6495,11.6495,11.6495,11.6495,11.6495,11.6495,11.6495,11.6495,11.6495,11.6495,11.6495,11.6495,11.6495,11.6495,11.6495,11.5907,11.5687,10.6376,10.6376,0.0,10.6376,10.6376,0.0,10.6376,0.0,0.0,0.0,0.0,0.0,0.0,0.0,0.0,0.0,0.0,0.0,0.0,10.6376,10.6376,10.6376,10.7094,10.8181,10.9585,10.999,11.0589,11.1391,11.1511,11.1511,11.1511,11.1511,11.1511,11.1511,11.1511,11.1511,11.1511,11.1511,11.1511,11.1511,11.1511,11.178,11.228,11.3483,11.4291,11.4907,11.5995,11.6495,11.6495,11.6495,11.6495,11.6495,11.6495,11.6495,11.6495,11.6495,11.6495,11.6495,11.6495,11.6495,11.6495,11.6495,11.6495,11.6495,11.6495,11.6495,11.6611,11.7303,11.6995,11.6599,11.7303,11.6995,11.6495,11.6495,11.6495,11.6495,11.6495,11.6495,11.6495,11.6495,11.6495,11.6495,11.6495,11.6495,11.6495,11.6495,11.6495,11.6495,11.6495,11.6495,11.6495,11.6495,11.6495,11.6495,11.6495,11.6495,11.6495,11.6495,11.6495,11.6495,11.6495,11.6495,11.6803,11.7407,11.6803,11.6803,11.7407,11.6803,11.6495,11.6495,11.6495,11.6495]}]]